GFSGL_850_temp_003.txt.gz
Temp
5 4 4 4 3 2 1 1 1 0 -1 -1 -1 -1 -2 -2 -2 -4 -4 -4 -3 -2 -3 -3 -3 -3 -3 -4 -4 -4 -4 -4 -3 -3 -3 -3 -3 -3 -3 -2 -2 -2 -2
4 4 3 2 1 1 -0 -0 -1 -1 -2 -2 -2 -3 -3 -3 -4 -3 -3 -3 -3 -3 -3 -3 -3 -3 -4 -4 -4 -5 -5 -5 -4 -4 -4 -4 -4 -4 -3 -3 -3 -3 -3
3 2 2 1 0 -1 -1 -2 -2 -2 -3 -3 -3 -3 -4 -3 -3 -3 -3 -3 -3 -4 -4 -4 -4 -5 -5 -5 -5 -6 -6 -6 -6 -5 -5 -5 -5 -5 -4 -4 -4 -4 -4
3 2 1 -0 -2 -2 -2 -3 -3 -3 -3 -3 -4 -4 -4 -4 -4 -4 -4 -4 -4 -4 -5 -5 -6 -6 -6 -6 -7 -7 -7 -7 -7 -6 -6 -6 -5 -5 -5 -5 -5 -5 -5
1 0 -1 -1 -2 -2 -3 -4 -4 -4 -3 -3 -3 -3 -4 -4 -4 -4 -5 -5 -5 -6 -6 -6 -7 -7 -7 -7 -8 -8 -8 -7 -7 -7 -7 -7 -6 -6 -7 -6 -6 -5 -5
-0 -1 -2 -2 -3 -3 -3 -3 -3 -3 -4 -4 -4 -5 -5 -5 -5 -6 -6 -7 -7 -7 -8 -7 -8 -8 -7 -7 -8 -8 -9 -9 -8 -8 -8 -7 -7 -7 -7 -7 -6 -6 -6
-1 -2 -2 -3 -3 -3 -3 -4 -4 -4 -5 -5 -5 -6 -6 -6 -7 -7 -8 -8 -9 -8 -9 -10 -10 -9 -9 -10 -10 -10 -10 -10 -10 -10 -9 -8 -8 -8 -8 -8 -7 -7 -7
-2 -2 -3 -3 -3 -4 -4 -4 -5 -5 -5 -6 -6 -7 -7 -8 -8 -8 -9 -9 -9 -10 -10 -9 -10 -10 -10 -10 -10 -10 -10 -10 -9 -9 -9 -9 -9 -8 -8 -8 -8 -7 -7
-2 -3 -3 -3 -4 -4 -4 -5 -5 -6 -6 -7 -7 -8 -9 -9 -9 -9 -10 -10 -11 -11 -9 -11 -11 -11 -10 -10 -10 -10 -10 -9 -9 -9 -9 -9 -9 -9 -9 -9 -9 -8 -8
-4 -3 -4 -4 -4 -5 -5 -5 -6 -6 -7 -8 -8 -9 -9 -9 -10 -10 -11 -12 -12 -11 -11 -11 -11 -10 -10 -10 -10 -10 -10 -9 -9 -9 -9 -9 -9 -8 -9 -9 -9 -9 -8
-3 -4 -4 -4 -5 -5 -5 -6 -7 -7 -8 -8 -9 -9 -10 -10 -10 -11 -11 -12 -12 -11 -11 -10 -10 -10 -10 -10 -11 -11 -11 -11 -11 -10 -9 -9 -9 -8 -9 -9 -9 -9 -8
-3 -4 -4 -5 -5 -5 -6 -6 -7 -8 -8 -9 -9 -11 -12 -12 -12 -11 -12 -12 -12 -11 -11 -10 -10 -10 -11 -11 -11 -11 -11 -11 -11 -10 -10 -10 -9 -9 -9 -9 -9 -9 -9
-3 -4 -4 -5 -5 -6 -6 -7 -8 -9 -10 -10 -11 -12 -12 -13 -13 -12 -12 -12 -12 -11 -10 -10 -11 -11 -11 -12 -12 -11 -11 -10 -10 -10 -10 -9 -9 -8 -8 -8 -8 -8 -8
-3 -4 -5 -5 -6 -6 -7 -8 -9 -10 -11 -11 -12 -12 -13 -13 -13 -13 -13 -13 -12 -11 -11 -11 -11 -11 -12 -12 -12 -11 -11 -10 -10 -9 -9 -8 -8 -8 -8 -8 -8 -8 -8
-4 -4 -5 -6 -6 -7 -7 -8 -9 -10 -11 -12 -13 -13 -14 -14 -14 -13 -13 -13 -12 -12 -12 -12 -12 -12 -12 -13 -13 -12 -11 -10 -10 -9 -8 -8 -8 -8 -8 -8 -8 -8 -8
-4 -5 -5 -6 -7 -7 -8 -8 -9 -10 -11 -12 -12 -13 -14 -14 -14 -14 -13 -13 -13 -12 -12 -12 -12 -12 -13 -13 -14 -14 -12 -11 -10 -9 -9 -8 -8 -8 -8 -8 -8 -8 -8
-5 -5 -6 -7 -7 -8 -8 -9 -10 -10 -11 -12 -13 -13 -14 -15 -14 -13 -13 -13 -13 -12 -13 -13 -13 -13 -13 -14 -13 -13 -13 -12 -11 -10 -9 -8 -8 -8 -8 -7 -8 -8 -8
-5 -6 -7 -7 -8 -8 -9 -9 -10 -11 -12 -12 -13 -13 -14 -14 -14 -14 -13 -13 -13 -13 -13 -13 -13 -13 -13 -14 -13 -13 -12 -12 -11 -11 -10 -9 -9 -8 -8 -8 -8 -8 -8
-7 -7 -7 -7 -8 -9 -9 -10 -11 -11 -12 -13 -13 -14 -14 -14 -14 -14 -14 -14 -14 -14 -14 -14 -14 -14 -14 -14 -13 -13 -13 -12 -12 -12 -11 -10 -10 -9 -9 -9 -8 -8 -8
-7 -8 -8 -8 -8 -9 -10 -10 -11 -11 -12 -13 -14 -14 -14 -14 -14 -14 -14 -14 -14 -14 -14 -14 -14 -14 -14 -14 -14 -13 -13 -12 -12 -12 -12 -11 -11 -10 -10 -10 -9 -9 -9
-8 -8 -8 -8 -9 -10 -10 -10 -11 -12 -12 -13 -14 -14 -15 -15 -15 -16 -15 -15 -15 -14 -14 -14 -14 -14 -14 -14 -14 -13 -13 -13 -13 -12 -12 -12 -12 -11 -11 -11 -11 -10 -10
-9 -9 -9 -9 -10 -10 -11 -11 -11 -11 -12 -13 -14 -14 -15 -15 -15 -16 -16 -16 -15 -15 -14 -14 -14 -14 -14 -14 -14 -13 -13 -13 -13 -13 -13 -12 -12 -12 -12 -12 -11 -11 -11
-9 -10 -10 -10 -10 -11 -11 -11 -11 -11 -12 -13 -13 -14 -14 -15 -15 -16 -16 -15 -15 -15 -14 -14 -14 -14 -14 -14 -14 -13 -13 -13 -13 -13 -13 -13 -12 -12 -12 -12 -12 -12 -11
-10 -10 -10 -10 -11 -11 -11 -11 -11 -11 -12 -12 -13 -13 -14 -14 -15 -15 -15 -15 -15 -15 -14 -14 -14 -14 -14 -14 -14 -13 -13 -13 -13 -13 -13 -13 -13 -13 -12 -12 -12 -12 -12
-10 -10 -10 -10 -11 -11 -10 -11 -11 -11 -12 -12 -12 -13 -13 -14 -14 -15 -15 -15 -15 -14 -14 -14 -14 -14 -14 -14 -14 -14 -13 -13 -13 -13 -13 -13 -13 -13 -13 -13 -13 -13 -13
-10 -10 -10 -11 -11 -10 -10 -10 -11 -11 -11 -12 -12 -12 -12 -13 -13 -14 -14 -14 -15 -15 -14 -14 -14 -14 -14 -14 -14 -14 -14 -13 -13 -13 -13 -13 -13 -13 -13 -13 -13 -13 -13

GFSGL_850_temp_006.txt.gz
Temp
4 4 3 2 1 1 0 -1 -1 -1 -1 -1 -1 -2 -2 -3 -3 -3 -3 -4 -3 -3 -3 -2 -2 -2 -2 -2 -2 -2 -2 -2 -1 -1 -1 -1 -1 -1 -1 -1 -1 -1 -1
4 2 2 1 0 -0 -1 -1 -1 -2 -2 -2 -2 -3 -3 -3 -3 -4 -4 -3 -3 -3 -3 -3 -3 -3 -3 -3 -3 -3 -3 -3 -2 -2 -2 -1 -1 -1 -1 -2 -1 -1 -1
2 2 1 0 -0 -1 -2 -2 -2 -3 -3 -3 -3 -3 -3 -4 -4 -3 -4 -3 -3 -3 -4 -4 -4 -4 -4 -4 -4 -4 -4 -4 -4 -3 -3 -3 -2 -2 -2 -2 -2 -2 -2
1 1 1 -0 -2 -2 -2 -3 -3 -3 -3 -3 -3 -3 -4 -4 -4 -4 -4 -4 -4 -5 -5 -6 -6 -6 -6 -6 -6 -5 -5 -5 -5 -4 -4 -3 -3 -3 -3 -3 -3 -3 -2
1 -0 -1 -2 -2 -2 -2 -3 -3 -3 -4 -4 -4 -4 -5 -5 -4 -5 -6 -5 -5 -5 -6 -6 -6 -7 -7 -7 -7 -7 -7 -6 -5 -4 -4 -4 -4 -3 -3 -3 -3 -3 -3
-0 -1 -2 -2 -2 -3 -3 -3 -4 -4 -4 -5 -5 -5 -5 -5 -6 -7 -7 -7 -7 -6 -6 -6 -7 -7 -7 -8 -9 -9 -9 -8 -7 -6 -6 -6 -5 -5 -5 -5 -6 -6 -5
-1 -2 -2 -2 -3 -3 -3 -4 -4 -4 -5 -5 -6 -6 -6 -7 -7 -7 -8 -8 -8 -8 -7 -7 -8 -8 -8 -8 -8 -9 -9 -10 -10 -9 -9 -8 -7 -7 -7 -7 -6 -6 -6
-1 -2 -2 -3 -3 -3 -4 -4 -5 -5 -5 -6 -6 -7 -7 -7 -8 -8 -9 -9 -9 -9 -8 -8 -8 -8 -8 -9 -9 -9 -9 -9 -9 -9 -9 -8 -8 -8 -7 -7 -7 -7 -7
-1 -2 -3 -3 -4 -4 -4 -5 -5 -5 -6 -6 -7 -8 -8 -8 -10 -10 -10 -11 -10 -10 -9 -9 -9 -10 -10 -10 -10 -10 -9 -9 -8 -8 -8 -8 -9 -8 -8 -8 -8 -7 -7
-2 -3 -3 -4 -4 -4 -5 -5 -5 -6 -6 -7 -8 -9 -9 -10 -10 -12 -12 -11 -11 -11 -10 -10 -10 -10 -10 -10 -10 -10 -10 -9 -9 -9 -8 -8 -8 -9 -8 -9 -8 -8 -7
-2 -3 -3 -4 -4 -5 -5 -5 -6 -6 -7 -9 -9 -10 -10 -10 -11 -12 -12 -12 -12 -12 -11 -10 -10 -9 -9 -10 -10 -10 -11 -11 -11 -11 -10 -9 -9 -8 -8 -7 -8 -8 -8
-2 -3 -4 -4 -5 -5 -5 -5 -6 -6 -8 -9 -9 -9 -10 -10 -11 -12 -12 -12 -12 -12 -11 -10 -9 -10 -10 -11 -11 -12 -11 -11 -11 -10 -10 -10 -9 -8 -8 -7 -8 -8 -8
-3 -3 -4 -4 -5 -5 -5 -6 -7 -7 -9 -9 -9 -10 -10 -11 -11 -12 -12 -12 -12 -12 -11 -11 -11 -11 -11 -12 -12 -12 -11 -11 -11 -10 -10 -9 -9 -8 -8 -8 -8 -8 -8
-4 -4 -4 -5 -5 -6 -6 -7 -7 -8 -9 -10 -10 -10 -11 -11 -12 -13 -13 -13 -12 -12 -12 -11 -11 -12 -12 -12 -12 -12 -12 -11 -11 -11 -10 -9 -8 -8 -7 -7 -8 -8 -7
-4 -4 -5 -6 -6 -6 -7 -7 -9 -9 -10 -11 -12 -12 -12 -13 -13 -14 -13 -13 -13 -13 -12 -12 -12 -12 -12 -12 -12 -12 -12 -12 -12 -11 -10 -10 -9 -8 -8 -8 -8 -8 -7
-4 -5 -6 -6 -7 -7 -7 -8 -9 -10 -11 -12 -12 -13 -14 -14 -14 -14 -13 -13 -13 -13 -13 -13 -13 -13 -13 -13 -13 -13 -13 -13 -12 -12 -11 -10 -9 -9 -8 -8 -8 -8 -7
-5 -5 -7 -7 -7 -8 -8 -9 -9 -10 -11 -12 -13 -13 -14 -15 -15 -14 -13 -13 -13 -13 -13 -13 -14 -13 -14 -13 -14 -14 -13 -13 -13 -12 -11 -10 -9 -9 -8 -8 -8 -8 -8
-5 -7 -7 -8 -8 -9 -9 -10 -10 -11 -11 -11 -12 -14 -15 -15 -15 -14 -13 -13 -13 -13 -14 -14 -14 -15 -15 -14 -14 -15 -14 -14 -13 -13 -12 -11 -10 -10 -9 -9 -9 -8 -7
-8 -8 -7 -8 -8 -8 -10 -10 -10 -11 -11 -12 -12 -13 -15 -15 -15 -15 -14 -15 -15 -14 -14 -15 -15 -16 -16 -15 -15 -15 -14 -14 -14 -13 -13 -12 -11 -11 -10 -10 -10 -9 -8
-9 -8 -8 -9 -9 -10 -10 -10 -11 -11 -11 -12 -13 -14 -15 -15 -15 -16 -16 -16 -16 -16 -16 -17 -16 -16 -16 -16 -16 -15 -14 -14 -14 -14 -13 -13 -12 -12 -11 -11 -11 -10 -10
-9 -9 -8 -9 -10 -10 -11 -11 -11 -12 -12 -12 -13 -14 -14 -16 -16 -16 -16 -16 -16 -16 -16 -17 -17 -16 -16 -16 -16 -16 -15 -15 -15 -14 -14 -13 -13 -12 -12 -11 -11 -11 -11
-9 -9 -10 -10 -10 -10 -11 -11 -12 -12 -12 -12 -13 -14 -14 -16 -16 -16 -16 -16 -15 -15 -15 -15 -15 -15 -14 -14 -14 -16 -16 -16 -15 -14 -14 -14 -13 -13 -12 -12 -12 -12 -11
-10 -10 -9 -9 -10 -10 -10 -11 -11 -12 -12 -13 -13 -14 -15 -15 -16 -16 -16 -15 -14 -14 -14 -14 -14 -14 -14 -14 -14 -14 -14 -13 -13 -13 -14 -14 -14 -13 -13 -12 -12 -12 -12
-10 -10 -10 -10 -10 -10 -11 -11 -11 -11 -12 -13 -13 -14 -14 -15 -15 -15 -15 -14 -14 -14 -14 -14 -14 -14 -14 -14 -14 -14 -13 -13 -13 -13 -13 -13 -14 -14 -14 -14 -13 -13 -13
-10 -10 -10 -10 -10 -10 -10 -11 -11 -11 -12 -12 -13 -14 -14 -14 -14 -14 -14 -14 -14 -14 -14 -14 -14 -14 -14 -14 -14 -14 -14 -13 -13 -13 -13 -13 -13 -13 -13 -14 -14 -14 -14
-10 -10 -10 -10 -10 -11 -10 -10 -10 -11 -12 -12 -13 -14 -14 -14 -13 -13 -13 -14 -14 -14 -14 -14 -14 -14 -14 -14 -14 -14 -14 -14 -14 -13 -13 -13 -13 -13 -13 -13 -13 -15 -15

GFSGL_850_temp_009.txt.gz
Temp
6 5 4 3 2 2 2 1 0 -0 -1 -1 -1 -1 -1 -2 -2 -3 -3 -3 -3 -3 -3 -2 -2 -2 -2 -1 -1 -1 -1 -1 -1 -0 0 0 0 0 0 0 -0 -0 -0
4 4 4 3 3 2 1 -0 -1 -1 -2 -2 -2 -3 -3 -3 -3 -3 -4 -3 -3 -3 -3 -3 -3 -2 -2 -2 -2 -2 -2 -2 -1 -1 -1 -1 -1 -0 -0 -0 -0 0 -0
4 4 3 3 2 1 -0 -1 -2 -2 -2 -2 -2 -2 -2 -2 -2 -3 -3 -3 -3 -3 -3 -3 -3 -3 -3 -3 -3 -3 -3 -3 -3 -2 -2 -2 -2 -1 -1 -1 -1 -1 -1
3 3 2 1 0 -0 -1 -1 -1 -2 -2 -2 -2 -3 -3 -3 -3 -3 -3 -4 -4 -3 -4 -4 -4 -4 -4 -5 -5 -5 -4 -4 -4 -4 -3 -3 -2 -2 -2 -2 -2 -1 -1
3 3 2 1 0 -0 -1 -1 -2 -2 -2 -3 -3 -3 -3 -4 -4 -5 -5 -6 -6 -5 -5 -5 -4 -5 -5 -6 -6 -7 -7 -7 -6 -5 -4 -3 -3 -2 -2 -2 -2 -2 -2
2 2 1 0 -1 -1 -2 -2 -2 -2 -3 -3 -4 -4 -4 -4 -5 -6 -6 -7 -8 -7 -6 -6 -5 -5 -6 -6 -7 -7 -8 -8 -8 -7 -6 -5 -4 -4 -4 -4 -4 -4 -4
3 2 1 -1 -2 -2 -2 -2 -2 -3 -3 -4 -4 -4 -5 -5 -6 -7 -7 -8 -9 -8 -7 -7 -7 -6 -6 -6 -7 -7 -8 -8 -8 -9 -9 -8 -7 -7 -6 -6 -6 -6 -5
2 2 0 -1 -2 -2 -2 -2 -3 -3 -4 -4 -4 -5 -6 -6 -7 -8 -8 -9 -9 -9 -8 -8 -8 -7 -7 -8 -8 -8 -8 -9 -8 -8 -8 -8 -8 -8 -7 -7 -7 -7 -6
2 1 0 -1 -2 -2 -2 -3 -3 -3 -4 -4 -5 -6 -7 -8 -9 -9 -10 -11 -10 -10 -10 -9 -9 -9 -9 -9 -9 -9 -9 -9 -8 -8 -8 -8 -8 -8 -8 -8 -8 -7 -7
1 1 -1 -1 -2 -3 -3 -3 -3 -4 -4 -5 -7 -8 -8 -9 -9 -10 -10 -11 -11 -11 -10 -10 -10 -10 -9 -9 -9 -9 -9 -9 -9 -9 -9 -8 -8 -8 -8 -8 -8 -8 -8
-0 -0 -1 -2 -3 -3 -3 -3 -3 -4 -5 -7 -7 -8 -9 -9 -9 -10 -11 -11 -11 -11 -11 -10 -10 -9 -9 -9 -9 -10 -10 -11 -11 -11 -10 -10 -9 -9 -8 -8 -7 -8 -7
-1 -1 -2 -3 -3 -3 -3 -3 -4 -5 -6 -7 -8 -8 -9 -9 -10 -10 -11 -11 -12 -12 -11 -11 -10 -10 -10 -10 -10 -11 -11 -11 -11 -10 -10 -9 -9 -9 -8 -8 -7 -7 -7
-3 -3 -4 -4 -3 -3 -3 -4 -5 -5 -7 -8 -8 -9 -9 -10 -10 -11 -12 -12 -12 -12 -11 -11 -11 -11 -11 -11 -11 -11 -11 -11 -10 -10 -9 -9 -8 -8 -8 -7 -7 -7 -7
-4 -4 -4 -4 -3 -4 -4 -4 -5 -7 -8 -8 -9 -10 -10 -11 -11 -12 -13 -13 -13 -12 -12 -12 -11 -12 -12 -11 -11 -11 -11 -11 -10 -10 -10 -9 -9 -8 -7 -7 -7 -7 -7
-5 -4 -4 -4 -4 -4 -5 -6 -6 -8 -9 -10 -11 -12 -12 -13 -13 -14 -14 -14 -13 -13 -12 -12 -12 -12 -12 -12 -12 -12 -11 -11 -11 -11 -10 -9 -9 -8 -7 -7 -7 -7 -7
-6 -5 -5 -5 -5 -6 -6 -6 -7 -8 -9 -10 -10 -11 -12 -14 -14 -14 -15 -13 -13 -13 -13 -13 -13 -13 -13 -13 -12 -12 -12 -12 -12 -11 -10 -10 -9 -8 -8 -7 -7 -7 -7
-6 -6 -6 -6 -6 -7 -7 -8 -8 -8 -9 -10 -10 -11 -12 -13 -15 -15 -15 -13 -14 -13 -14 -14 -14 -14 -13 -13 -13 -13 -13 -12 -12 -11 -11 -11 -10 -9 -8 -8 -7 -7 -7
-7 -7 -7 -7 -7 -8 -8 -9 -9 -9 -9 -10 -11 -11 -13 -13 -15 -15 -15 -14 -14 -14 -14 -14 -14 -14 -14 -14 -14 -14 -13 -13 -12 -12 -11 -11 -11 -10 -9 -9 -9 -8 -8
-7 -8 -8 -8 -8 -9 -9 -9 -9 -10 -10 -10 -11 -11 -13 -14 -14 -14 -15 -15 -15 -15 -15 -15 -15 -15 -15 -15 -14 -14 -13 -13 -13 -12 -12 -11 -11 -10 -10 -10 -10 -9 -9
-6 -8 -8 -8 -8 -9 -9 -9 -10 -10 -10 -10 -11 -11 -13 -14 -14 -14 -15 -15 -16 -16 -16 -16 -16 -15 -16 -15 -15 -15 -14 -14 -14 -13 -12 -12 -11 -11 -11 -11 -10 -10 -10
-7 -8 -8 -9 -9 -9 -9 -10 -10 -10 -10 -10 -11 -12 -13 -14 -14 -14 -15 -15 -16 -16 -16 -16 -16 -16 -16 -16 -16 -16 -15 -15 -14 -14 -14 -12 -12 -11 -11 -11 -11 -10 -10
-9 -8 -9 -9 -9 -9 -9 -10 -10 -10 -11 -11 -11 -12 -13 -13 -14 -14 -15 -15 -16 -15 -14 -15 -16 -16 -15 -16 -16 -16 -16 -16 -15 -15 -15 -13 -13 -12 -12 -11 -11 -11 -11
-9 -9 -9 -9 -9 -10 -10 -10 -10 -10 -11 -11 -11 -12 -12 -13 -14 -14 -15 -15 -15 -14 -13 -13 -14 -14 -14 -13 -14 -14 -13 -13 -13 -13 -14 -15 -14 -13 -12 -12 -12 -12 -12
-9 -9 -9 -9 -9 -10 -10 -10 -10 -10 -11 -11 -11 -12 -12 -13 -14 -14 -15 -15 -15 -15 -14 -13 -13 -13 -13 -13 -13 -14 -14 -13 -13 -13 -13 -15 -15 -14 -14 -13 -13 -13 -13
-9 -9 -9 -9 -9 -9 -10 -10 -10 -10 -10 -11 -11 -12 -12 -13 -13 -14 -14 -15 -15 -15 -14 -13 -13 -13 -13 -13 -14 -14 -14 -14 -13 -13 -13 -14 -13 -13 -14 -14 -13 -13 -13
-9 -9 -9 -9 -9 -9 -9 -10 -10 -10 -10 -11 -11 -12 -12 -13 -13 -14 -15 -15 -15 -14 -14 -14 -14 -14 -14 -14 -14 -14 -14 -14 -13 -13 -13 -13 -13 -13 -13 -14 -13 -15 -14

GFSGL_850_temp_012.txt.gz
Temp
6 5 4 4 4 3 3 2 1 1 -1 -1 -1 -2 -2 -2 -2 -2 -2 -2 -3 -3 -2 -3 -3 -3 -4 -4 -3 -3 -2 -2 -2 -2 -1 -1 -1 -0 -0 -0 -1 -1 -0
5 4 4 4 3 2 2 1 -0 -1 -1 -1 -2 -2 -2 -2 -2 -2 -3 -3 -3 -3 -3 -3 -3 -3 -3 -3 -4 -3 -3 -3 -3 -2 -2 -2 -2 -1 -1 -1 -1 -1 -0
5 4 4 3 2 1 1 -0 -1 -1 -1 -2 -2 -2 -2 -3 -3 -3 -3 -3 -3 -3 -3 -4 -4 -4 -4 -4 -4 -4 -4 -4 -4 -4 -4 -4 -3 -3 -2 -2 -2 -1 -1
5 4 3 3 2 1 0 -0 -1 -1 -2 -2 -2 -3 -3 -3 -3 -4 -4 -4 -4 -5 -5 -5 -5 -5 -5 -5 -5 -5 -5 -5 -5 -5 -5 -5 -4 -4 -3 -3 -2 -2 -2
3 2 3 3 2 1 -0 -1 -2 -2 -2 -2 -3 -3 -4 -4 -4 -4 -5 -5 -6 -6 -6 -7 -7 -6 -6 -6 -6 -6 -6 -6 -6 -7 -7 -6 -5 -4 -4 -3 -3 -3 -3
3 2 2 1 0 -1 -0 -1 -2 -2 -2 -3 -3 -4 -4 -4 -5 -6 -6 -6 -7 -8 -8 -8 -8 -8 -7 -7 -7 -7 -7 -7 -7 -8 -8 -8 -7 -7 -6 -6 -6 -5 -5
4 4 2 1 -0 -2 -1 -2 -2 -2 -3 -3 -3 -4 -5 -5 -6 -6 -7 -8 -9 -9 -10 -9 -9 -9 -8 -8 -8 -8 -8 -7 -8 -8 -8 -8 -8 -8 -7 -6 -6 -6 -6
4 3 1 -1 -1 -1 -2 -2 -2 -3 -3 -3 -4 -5 -5 -5 -6 -8 -8 -9 -9 -10 -10 -10 -10 -10 -9 -9 -9 -9 -9 -8 -8 -8 -8 -8 -8 -8 -8 -8 -8 -7 -7
3 2 0 -1 -1 -2 -2 -2 -3 -3 -3 -4 -5 -5 -6 -7 -8 -8 -9 -9 -10 -10 -10 -11 -10 -10 -10 -9 -9 -9 -9 -8 -8 -9 -9 -8 -8 -8 -8 -8 -8 -8 -8
0 -0 -1 -2 -2 -2 -3 -3 -3 -3 -4 -5 -5 -5 -7 -7 -8 -9 -9 -10 -11 -11 -11 -11 -10 -10 -10 -9 -9 -9 -9 -9 -9 -9 -8 -8 -8 -9 -8 -8 -8 -8 -8
-1 -1 -2 -2 -3 -3 -3 -3 -3 -4 -4 -5 -6 -6 -7 -8 -9 -10 -10 -11 -12 -12 -12 -11 -11 -10 -10 -10 -10 -10 -10 -10 -10 -10 -10 -9 -9 -9 -9 -9 -8 -8 -8
-2 -3 -3 -3 -4 -3 -3 -3 -4 -4 -5 -6 -6 -8 -9 -9 -10 -10 -11 -12 -12 -12 -12 -12 -11 -11 -11 -11 -11 -11 -11 -11 -11 -10 -10 -9 -9 -9 -8 -8 -8 -8 -8
-3 -4 -3 -4 -4 -4 -4 -4 -4 -5 -6 -6 -8 -9 -10 -10 -11 -12 -12 -12 -13 -13 -13 -12 -11 -11 -11 -11 -11 -11 -11 -11 -10 -10 -10 -9 -9 -9 -8 -8 -7 -7 -7
-4 -4 -4 -4 -4 -4 -4 -4 -5 -6 -6 -7 -9 -10 -10 -11 -12 -13 -13 -14 -13 -13 -12 -12 -12 -12 -12 -11 -11 -11 -11 -11 -10 -10 -10 -9 -9 -8 -8 -8 -7 -7 -7
-5 -5 -5 -5 -4 -5 -5 -5 -6 -7 -7 -8 -9 -10 -11 -11 -13 -14 -14 -14 -14 -13 -13 -13 -13 -13 -12 -12 -12 -12 -12 -11 -11 -11 -10 -10 -9 -9 -8 -7 -7 -7 -7
-6 -5 -6 -6 -6 -6 -6 -6 -7 -8 -8 -9 -9 -10 -10 -12 -13 -14 -14 -14 -14 -13 -13 -13 -13 -13 -13 -13 -13 -13 -12 -12 -12 -11 -11 -10 -10 -9 -8 -8 -7 -7 -7
-6 -6 -7 -6 -6 -7 -7 -7 -8 -9 -9 -9 -9 -10 -11 -12 -13 -14 -14 -14 -14 -14 -14 -14 -14 -14 -14 -14 -14 -13 -13 -12 -12 -12 -11 -11 -10 -9 -9 -8 -8 -8 -7
-6 -7 -7 -7 -7 -7 -8 -8 -9 -9 -9 -9 -10 -10 -11 -11 -12 -13 -14 -14 -14 -14 -14 -15 -15 -14 -14 -14 -14 -14 -13 -13 -13 -12 -12 -11 -11 -10 -10 -10 -9 -9 -8
-6 -6 -6 -8 -8 -8 -9 -9 -9 -9 -9 -9 -10 -10 -11 -11 -12 -13 -14 -14 -15 -15 -15 -15 -15 -15 -15 -15 -15 -14 -14 -13 -13 -13 -12 -12 -11 -11 -10 -10 -10 -10 -9
-6 -6 -7 -8 -8 -9 -9 -9 -9 -9 -10 -10 -10 -10 -11 -12 -12 -13 -14 -14 -15 -15 -15 -15 -15 -15 -15 -15 -15 -15 -14 -14 -14 -13 -13 -12 -12 -11 -11 -11 -10 -10 -10
-7 -7 -8 -9 -9 -9 -9 -9 -9 -10 -10 -10 -10 -11 -11 -12 -13 -13 -14 -14 -15 -14 -14 -14 -15 -14 -14 -14 -14 -14 -14 -14 -14 -13 -13 -13 -13 -12 -11 -11 -11 -11 -11
-7 -8 -9 -9 -9 -9 -9 -9 -10 -10 -10 -10 -10 -11 -11 -12 -12 -13 -14 -14 -15 -14 -14 -14 -14 -14 -14 -14 -13 -13 -13 -13 -13 -13 -13 -14 -13 -13 -12 -12 -12 -12 -12
-9 -9 -9 -9 -9 -9 -9 -10 -10 -10 -10 -10 -10 -11 -11 -12 -12 -13 -14 -14 -15 -14 -13 -13 -13 -13 -13 -13 -13 -13 -13 -13 -13 -13 -13 -14 -14 -14 -13 -13 -12 -13 -13
-9 -9 -9 -9 -9 -9 -9 -9 -9 -10 -10 -10 -10 -10 -11 -11 -12 -13 -13 -14 -14 -14 -13 -13 -13 -13 -13 -13 -13 -13 -14 -14 -13 -13 -14 -13 -14 -14 -14 -14 -13 -13 -13
-8 -9 -9 -9 -9 -9 -9 -9 -9 -10 -10 -10 -10 -10 -11 -11 -12 -13 -13 -14 -14 -14 -13 -13 -13 -13 -13 -13 -13 -14 -14 -14 -14 -14 -13 -13 -13 -13 -14 -14 -13 -14 -14
-8 -9 -9 -9 -9 -9 -9 -9 -9 -10 -10 -10 -10 -10 -11 -11 -12 -13 -13 -13 -13 -13 -14 -13 -13 -13 -14 -13 -14 -14 -14 -14 -14 -14 -14 -13 -13 -13 -13 -13 -14 -14 -14

GFSGL_850_temp_015.txt.gz
Temp
6 6 5 5 4 4 3 3 3 2 1 -1 -2 -2 -2 -2 -2 -3 -3 -3 -3 -3 -3 -3 -4 -4 -4 -4 -4 -4 -4 -4 -5 -4 -3 -3 -2 -2 -2 -2 -1 -2 -3
6 5 4 4 4 3 3 2 2 1 -1 -1 -2 -2 -2 -3 -3 -3 -3 -4 -4 -4 -4 -4 -4 -4 -4 -4 -4 -4 -4 -4 -4 -4 -4 -4 -3 -3 -2 -2 -2 -2 -2
6 5 4 4 2 1 1 1 0 -0 -1 -2 -2 -2 -3 -3 -3 -4 -4 -4 -4 -5 -5 -5 -5 -5 -5 -6 -5 -5 -5 -5 -5 -5 -5 -4 -4 -4 -4 -3 -3 -2 -2
5 5 4 4 2 1 0 -1 -1 -2 -2 -2 -2 -3 -3 -3 -4 -4 -4 -4 -5 -5 -6 -6 -7 -7 -7 -7 -7 -7 -6 -6 -6 -6 -6 -5 -5 -5 -5 -5 -4 -4 -3
4 4 4 3 1 1 1 -1 -2 -2 -2 -2 -3 -3 -3 -4 -4 -4 -5 -5 -6 -6 -7 -8 -8 -8 -9 -8 -8 -8 -7 -7 -7 -7 -7 -7 -7 -7 -6 -6 -6 -5 -4
3 3 3 2 2 1 -0 -2 -2 -2 -2 -2 -3 -3 -4 -4 -5 -5 -6 -6 -7 -8 -8 -9 -9 -10 -10 -9 -9 -8 -8 -8 -7 -7 -8 -8 -8 -8 -7 -7 -7 -7 -6
2 2 1 1 0 -1 -2 -2 -3 -3 -3 -3 -3 -4 -4 -5 -5 -7 -7 -8 -8 -9 -9 -10 -10 -10 -10 -10 -10 -9 -9 -9 -8 -8 -8 -8 -8 -8 -8 -8 -8 -8 -8
2 1 1 0 -1 -1 -1 -3 -3 -3 -4 -3 -4 -4 -5 -6 -6 -7 -8 -8 -9 -10 -10 -11 -11 -11 -11 -10 -10 -10 -9 -9 -9 -9 -9 -8 -9 -8 -8 -8 -8 -8 -8
1 0 -0 -1 -2 -3 -3 -3 -4 -4 -3 -4 -4 -5 -6 -7 -7 -8 -9 -9 -10 -10 -11 -11 -11 -11 -11 -10 -10 -10 -9 -9 -9 -9 -9 -9 -9 -9 -9 -9 -8 -9 -8
-0 -1 -1 -2 -3 -3 -3 -4 -4 -3 -4 -4 -5 -5 -6 -7 -8 -9 -10 -11 -11 -11 -12 -11 -11 -11 -11 -10 -10 -10 -10 -10 -10 -9 -9 -9 -9 -9 -9 -9 -9 -9 -9
-1 -1 -3 -3 -3 -4 -4 -5 -4 -4 -4 -5 -5 -6 -7 -8 -9 -10 -11 -12 -12 -13 -13 -12 -12 -12 -11 -11 -11 -11 -11 -11 -11 -11 -10 -10 -9 -9 -9 -9 -9 -9 -9
-2 -2 -3 -4 -4 -4 -4 -4 -4 -4 -5 -5 -6 -6 -8 -9 -10 -11 -12 -13 -13 -13 -13 -12 -12 -12 -11 -11 -11 -11 -11 -11 -11 -10 -10 -10 -9 -9 -9 -8 -8 -8 -9
-2 -4 -4 -4 -4 -4 -4 -4 -5 -5 -6 -6 -7 -8 -9 -10 -11 -11 -13 -13 -13 -13 -13 -12 -12 -12 -12 -12 -11 -11 -11 -11 -11 -11 -10 -10 -10 -9 -8 -8 -8 -7 -7
-4 -4 -5 -5 -5 -5 -5 -5 -6 -6 -6 -7 -8 -9 -9 -10 -11 -13 -13 -14 -13 -13 -13 -13 -13 -13 -12 -12 -12 -12 -12 -11 -11 -11 -10 -10 -9 -9 -8 -8 -7 -7 -7
-4 -4 -5 -5 -6 -6 -6 -6 -6 -7 -7 -8 -9 -9 -10 -10 -12 -13 -13 -13 -13 -13 -13 -13 -13 -13 -13 -13 -13 -12 -12 -12 -12 -11 -11 -10 -10 -9 -8 -8 -7 -7 -7
-5 -5 -5 -6 -7 -7 -7 -7 -7 -7 -8 -9 -9 -10 -10 -11 -12 -13 -13 -14 -14 -14 -14 -14 -14 -14 -14 -14 -13 -13 -13 -13 -12 -12 -11 -11 -10 -9 -9 -8 -8 -8 -7
-5 -6 -6 -6 -7 -7 -7 -8 -8 -8 -9 -9 -9 -10 -10 -11 -12 -12 -13 -14 -14 -14 -14 -15 -15 -15 -15 -15 -14 -14 -13 -13 -13 -12 -11 -11 -11 -10 -10 -9 -9 -8 -8
-6 -6 -7 -7 -7 -7 -8 -9 -9 -9 -9 -9 -10 -10 -10 -11 -11 -12 -14 -13 -13 -13 -14 -15 -15 -15 -15 -15 -15 -14 -14 -14 -13 -12 -12 -11 -11 -11 -10 -10 -10 -10 -9
-6 -6 -7 -7 -7 -9 -9 -9 -9 -9 -10 -10 -10 -10 -11 -11 -11 -12 -13 -14 -14 -13 -14 -14 -15 -15 -15 -15 -15 -15 -14 -14 -14 -13 -12 -12 -11 -11 -11 -11 -10 -10 -10
-7 -7 -7 -7 -8 -9 -9 -9 -10 -10 -10 -10 -10 -10 -11 -11 -11 -12 -13 -13 -14 -13 -13 -13 -14 -14 -14 -14 -14 -14 -14 -13 -13 -13 -13 -12 -12 -12 -11 -12 -11 -11 -11
-7 -7 -7 -7 -8 -9 -9 -9 -10 -10 -10 -10 -10 -10 -11 -11 -12 -12 -13 -13 -13 -13 -13 -13 -13 -13 -13 -13 -13 -13 -14 -13 -13 -13 -13 -13 -13 -12 -12 -12 -12 -12 -12
-7 -8 -8 -8 -9 -9 -9 -9 -10 -10 -10 -10 -10 -10 -11 -11 -11 -12 -12 -13 -13 -13 -13 -13 -13 -13 -13 -13 -13 -13 -13 -13 -13 -13 -13 -14 -13 -13 -13 -13 -13 -13 -13
-7 -7 -9 -9 -9 -9 -9 -9 -10 -10 -10 -10 -10 -10 -10 -11 -11 -12 -12 -13 -13 -13 -13 -13 -13 -13 -13 -13 -13 -13 -13 -14 -14 -14 -13 -14 -13 -13 -14 -13 -13 -13 -13
-7 -7 -8 -9 -9 -9 -9 -9 -9 -9 -10 -10 -10 -10 -10 -11 -11 -12 -12 -13 -13 -13 -13 -13 -13 -13 -13 -13 -13 -14 -14 -14 -14 -14 -14 -14 -13 -13 -13 -13 -13 -14 -13
-7 -7 -8 -9 -9 -9 -9 -9 -9 -9 -10 -10 -10 -10 -10 -11 -11 -11 -12 -12 -13 -13 -13 -13 -13 -13 -14 -13 -14 -14 -14 -14 -14 -14 -14 -14 -14 -14 -14 -14 -13 -13 -13
-7 -7 -8 -8 -9 -9 -9 -9 -9 -9 -10 -10 -10 -10 -11 -11 -11 -11 -12 -12 -12 -12 -13 -13 -13 -13 -14 -14 -14 -14 -14 -14 -14 -14 -14 -14 -14 -14 -14 -14 -14 -14 -14

GFSGL_850_temp_018.txt.gz
Temp
6 6 5 5 4 4 3 3 2 1 -1 -2 -1 -2 -2 -2 -2 -3 -3 -4 -4 -4 -4 -4 -4 -4 -4 -4 -4 -4 -5 -5 -5 -5 -4 -4 -4 -4 -3 -2 -2 -2 -3
5 5 5 4 4 4 3 2 1 -0 -1 -2 -1 -2 -2 -2 -3 -3 -4 -4 -4 -4 -5 -5 -5 -5 -6 -6 -6 -6 -5 -5 -5 -5 -5 -5 -5 -5 -4 -4 -3 -3 -3
5 4 4 3 3 3 2 1 -1 -2 -0 -2 -2 -2 -2 -3 -3 -4 -4 -4 -5 -5 -5 -5 -6 -7 -7 -7 -7 -7 -6 -6 -6 -7 -6 -6 -6 -5 -5 -5 -4 -4 -3
5 4 3 3 2 1 1 -0 0 -1 -3 -2 -3 -3 -3 -3 -4 -4 -5 -5 -5 -6 -6 -7 -8 -8 -8 -9 -9 -9 -8 -8 -7 -7 -7 -7 -7 -6 -6 -6 -6 -5 -4
4 3 3 2 1 1 -0 -0 -1 -2 -3 -3 -3 -3 -3 -4 -4 -5 -5 -6 -6 -7 -7 -8 -9 -9 -9 -10 -10 -9 -9 -9 -8 -8 -7 -7 -7 -7 -7 -7 -7 -7 -5
3 2 2 2 1 -0 -1 -2 -2 -2 -3 -4 -4 -4 -4 -4 -5 -6 -6 -7 -7 -8 -9 -9 -10 -10 -10 -11 -11 -10 -10 -9 -9 -9 -8 -8 -8 -7 -7 -7 -8 -8 -7
2 1 1 1 -0 -1 -2 -3 -3 -3 -4 -4 -5 -4 -4 -5 -6 -6 -7 -8 -9 -9 -10 -10 -11 -11 -11 -11 -11 -10 -10 -10 -10 -10 -9 -9 -8 -8 -8 -8 -8 -8 -8
1 1 0 -0 -1 -2 -3 -3 -3 -4 -4 -4 -4 -4 -5 -6 -6 -7 -8 -9 -10 -10 -11 -11 -11 -11 -12 -11 -11 -10 -10 -10 -10 -10 -10 -9 -9 -9 -9 -9 -9 -9 -9
1 0 -1 -1 -2 -3 -3 -4 -4 -4 -4 -4 -4 -5 -6 -7 -8 -9 -9 -10 -11 -11 -11 -11 -13 -12 -12 -11 -11 -11 -11 -10 -10 -10 -10 -9 -9 -9 -9 -9 -9 -9 -9
-0 -1 -2 -3 -4 -4 -4 -4 -4 -4 -5 -5 -5 -6 -7 -8 -9 -9 -10 -12 -12 -12 -12 -12 -12 -12 -12 -11 -11 -11 -11 -10 -11 -10 -10 -10 -10 -9 -9 -9 -9 -9 -9
-2 -2 -3 -4 -4 -4 -5 -5 -5 -4 -5 -5 -6 -7 -8 -8 -9 -9 -10 -13 -13 -13 -13 -12 -12 -12 -12 -12 -11 -11 -11 -11 -11 -11 -11 -10 -10 -10 -9 -9 -9 -9 -9
-2 -3 -4 -4 -5 -5 -4 -4 -5 -5 -6 -6 -7 -7 -8 -9 -9 -10 -11 -14 -14 -13 -13 -13 -13 -12 -12 -12 -12 -11 -11 -11 -11 -11 -10 -10 -10 -10 -9 -9 -8 -8 -8
-3 -4 -4 -5 -5 -5 -5 -5 -6 -6 -6 -7 -7 -8 -8 -9 -10 -10 -12 -13 -13 -13 -13 -13 -13 -13 -13 -13 -12 -12 -12 -11 -11 -11 -11 -10 -10 -9 -9 -8 -8 -8 -8
-4 -4 -5 -5 -5 -6 -6 -6 -6 -7 -7 -7 -8 -8 -9 -10 -10 -11 -13 -13 -13 -13 -13 -13 -13 -13 -13 -13 -13 -12 -12 -12 -12 -11 -11 -10 -10 -9 -9 -8 -7 -7 -7
-4 -5 -5 -5 -6 -6 -7 -7 -7 -7 -8 -8 -9 -9 -9 -10 -11 -12 -13 -13 -14 -14 -14 -14 -14 -13 -13 -13 -13 -13 -13 -12 -12 -11 -11 -11 -10 -9 -9 -8 -8 -7 -7
-5 -5 -6 -6 -6 -7 -7 -7 -8 -8 -8 -9 -9 -9 -10 -10 -11 -13 -13 -13 -13 -14 -14 -14 -14 -14 -14 -14 -14 -13 -13 -13 -13 -12 -11 -11 -10 -10 -10 -9 -9 -8 -7
-5 -6 -6 -7 -7 -7 -8 -8 -9 -9 -9 -9 -9 -10 -10 -11 -11 -12 -12 -13 -13 -13 -14 -14 -14 -14 -15 -15 -15 -14 -14 -14 -13 -12 -12 -11 -11 -10 -10 -10 -9 -9 -8
-6 -7 -7 -7 -7 -7 -8 -9 -9 -9 -9 -10 -10 -10 -10 -11 -11 -12 -12 -12 -12 -12 -13 -14 -14 -14 -14 -15 -15 -15 -14 -14 -13 -13 -12 -12 -11 -11 -11 -11 -10 -10 -10
-7 -7 -7 -7 -7 -8 -8 -9 -9 -9 -9 -10 -10 -10 -10 -11 -11 -12 -12 -12 -13 -13 -13 -13 -14 -14 -14 -14 -14 -14 -14 -14 -13 -13 -13 -12 -12 -11 -11 -11 -11 -11 -11
-7 -7 -7 -7 -8 -8 -9 -9 -10 -10 -10 -10 -10 -10 -10 -11 -11 -12 -12 -13 -13 -13 -13 -13 -13 -13 -13 -13 -13 -13 -13 -13 -13 -13 -13 -13 -13 -12 -12 -12 -12 -12 -11
-7 -7 -8 -8 -8 -8 -9 -9 -10 -10 -10 -10 -10 -10 -10 -11 -11 -11 -12 -12 -13 -13 -13 -13 -13 -13 -13 -13 -13 -13 -13 -13 -13 -13 -14 -13 -13 -13 -13 -13 -13 -12 -12
-7 -7 -8 -8 -9 -9 -9 -9 -9 -10 -10 -10 -10 -10 -10 -10 -11 -11 -12 -12 -13 -13 -13 -13 -13 -13 -13 -13 -13 -13 -13 -13 -13 -13 -13 -14 -14 -14 -13 -13 -13 -13 -13
-6 -6 -7 -7 -9 -10 -10 -9 -9 -9 -10 -10 -10 -10 -10 -10 -11 -11 -12 -12 -12 -13 -13 -13 -13 -13 -13 -13 -13 -13 -13 -13 -13 -13 -13 -13 -13 -13 -14 -14 -14 -13 -13
-6 -6 -7 -7 -8 -9 -9 -9 -9 -9 -9 -10 -10 -10 -10 -10 -11 -11 -11 -12 -12 -12 -13 -13 -13 -13 -13 -13 -14 -14 -14 -14 -14 -14 -14 -13 -13 -13 -13 -14 -14 -14 -13
-6 -7 -7 -7 -8 -8 -9 -9 -9 -9 -9 -9 -9 -10 -10 -10 -11 -11 -11 -11 -12 -12 -12 -13 -13 -13 -13 -14 -14 -14 -14 -14 -14 -14 -14 -14 -14 -14 -14 -14 -13 -13 -13
-6 -7 -7 -7 -8 -8 -9 -9 -10 -9 -9 -10 -10 -11 -11 -11 -11 -11 -11 -11 -12 -12 -12 -12 -13 -13 -14 -14 -14 -14 -14 -14 -14 -14 -14 -14 -13 -14 -14 -14 -14 -14 -14

GFSGL_850_temp_021.txt.gz
Temp
6 5 5 4 3 3 3 2 2 1 0 -1 -1 -2 -2 -2 -2 -3 -3 -3 -4 -4 -4 -5 -5 -5 -5 -6 -6 -6 -6 -6 -6 -6 -6 -5 -5 -5 -4 -4 -4 -3 -3
5 5 5 4 3 3 2 1 0 0 0 -0 -1 -2 -4 -3 -3 -3 -3 -4 -4 -5 -5 -5 -6 -6 -7 -7 -8 -8 -8 -7 -7 -7 -6 -6 -6 -6 -5 -5 -5 -4 -3
5 4 4 3 3 2 1 1 -0 -0 -1 -1 -2 -3 -3 -4 -3 -4 -4 -4 -5 -5 -6 -6 -7 -7 -8 -8 -8 -8 -9 -9 -9 -8 -8 -7 -7 -7 -6 -6 -5 -5 -4
4 4 3 3 2 1 1 0 -0 -1 -2 -3 -3 -3 -3 -4 -5 -4 -5 -5 -6 -6 -7 -7 -8 -9 -9 -10 -10 -10 -10 -10 -9 -9 -8 -8 -7 -7 -7 -6 -6 -6 -5
3 3 2 1 1 0 -0 -0 -1 -3 -3 -3 -3 -4 -4 -5 -4 -5 -5 -6 -6 -7 -8 -9 -9 -10 -11 -11 -11 -11 -11 -11 -10 -9 -9 -9 -8 -8 -7 -7 -7 -7 -7
3 2 1 1 0 -0 -1 -2 -2 -3 -3 -3 -4 -5 -5 -5 -5 -6 -6 -7 -8 -9 -9 -10 -10 -11 -11 -11 -11 -12 -11 -11 -11 -10 -10 -10 -9 -8 -8 -8 -8 -8 -8
1 1 0 -0 -1 -1 -2 -3 -3 -4 -4 -4 -5 -5 -5 -5 -6 -6 -7 -8 -9 -9 -10 -11 -12 -12 -12 -12 -11 -11 -11 -11 -10 -10 -10 -10 -10 -9 -9 -9 -8 -8 -8
1 -0 -1 -1 -2 -2 -3 -4 -3 -4 -5 -5 -4 -5 -5 -6 -6 -7 -8 -9 -9 -10 -11 -11 -12 -12 -12 -12 -12 -11 -11 -11 -11 -11 -10 -10 -10 -10 -10 -9 -9 -9 -9
0 -1 -1 -2 -3 -4 -4 -4 -4 -4 -4 -5 -5 -5 -6 -6 -7 -8 -9 -9 -10 -10 -11 -12 -13 -13 -12 -12 -11 -11 -11 -10 -10 -10 -10 -10 -10 -9 -9 -9 -9 -10 -10
-1 -2 -2 -3 -4 -4 -5 -5 -5 -5 -5 -5 -5 -6 -7 -7 -8 -9 -9 -10 -11 -12 -12 -12 -12 -12 -12 -12 -12 -12 -11 -11 -11 -11 -11 -11 -11 -10 -10 -10 -10 -10 -9
-2 -2 -3 -4 -4 -5 -5 -5 -5 -5 -5 -6 -6 -7 -8 -9 -9 -9 -9 -10 -13 -13 -13 -13 -13 -13 -12 -12 -12 -12 -12 -11 -11 -11 -11 -11 -11 -10 -10 -10 -9 -9 -9
-3 -3 -4 -4 -4 -5 -5 -5 -5 -6 -6 -7 -7 -8 -9 -9 -10 -10 -10 -12 -13 -13 -13 -13 -14 -13 -13 -13 -13 -12 -12 -12 -11 -11 -11 -10 -10 -10 -10 -10 -10 -9 -9
-3 -4 -4 -5 -5 -5 -5 -6 -6 -6 -7 -7 -8 -8 -9 -9 -10 -10 -10 -11 -12 -13 -13 -13 -13 -13 -13 -13 -13 -12 -12 -12 -12 -11 -11 -11 -10 -10 -9 -9 -9 -8 -8
-4 -5 -5 -5 -5 -6 -6 -6 -7 -7 -7 -8 -8 -9 -9 -10 -10 -10 -11 -12 -12 -12 -13 -13 -13 -13 -13 -13 -13 -13 -13 -12 -12 -12 -11 -11 -10 -9 -9 -8 -8 -8 -8
-5 -5 -5 -6 -6 -6 -7 -8 -8 -8 -8 -8 -9 -9 -10 -10 -10 -11 -13 -12 -12 -12 -12 -13 -13 -13 -13 -13 -13 -13 -13 -13 -12 -12 -11 -11 -10 -10 -9 -9 -8 -8 -7
-6 -6 -6 -6 -7 -7 -7 -8 -8 -9 -9 -9 -9 -9 -10 -10 -10 -11 -12 -12 -12 -12 -12 -12 -13 -13 -14 -14 -13 -13 -13 -13 -13 -12 -12 -11 -11 -10 -10 -9 -9 -8 -8
-6 -6 -6 -6 -7 -7 -8 -8 -9 -9 -9 -9 -9 -10 -10 -10 -11 -11 -12 -12 -12 -12 -12 -12 -13 -13 -14 -14 -14 -14 -14 -13 -13 -13 -12 -12 -11 -11 -11 -10 -10 -9 -9
-7 -7 -6 -7 -7 -7 -8 -8 -9 -9 -10 -10 -10 -10 -10 -10 -11 -11 -12 -12 -12 -12 -12 -13 -13 -13 -13 -13 -14 -14 -14 -13 -13 -13 -13 -12 -12 -11 -11 -11 -11 -11 -10
-6 -7 -7 -7 -7 -7 -8 -8 -9 -9 -10 -10 -10 -10 -10 -11 -11 -11 -12 -12 -13 -13 -13 -13 -13 -13 -13 -13 -13 -14 -14 -14 -13 -13 -13 -13 -12 -12 -12 -12 -12 -12 -11
-6 -6 -7 -8 -8 -8 -9 -9 -9 -9 -10 -10 -10 -10 -10 -11 -11 -11 -12 -12 -12 -13 -13 -13 -13 -13 -13 -13 -13 -13 -13 -13 -13 -13 -13 -13 -13 -13 -13 -12 -12 -12 -12
-6 -6 -6 -8 -8 -9 -9 -9 -9 -10 -10 -10 -10 -10 -10 -10 -11 -11 -11 -12 -12 -12 -13 -13 -13 -13 -13 -13 -13 -13 -13 -13 -13 -13 -13 -13 -13 -13 -13 -13 -13 -13 -13
-7 -6 -7 -7 -8 -9 -9 -10 -10 -10 -10 -10 -10 -10 -10 -10 -11 -11 -11 -11 -12 -12 -12 -13 -13 -13 -13 -13 -13 -13 -13 -13 -13 -13 -13 -13 -13 -13 -13 -13 -13 -14 -13
-7 -7 -7 -7 -7 -7 -8 -9 -10 -10 -10 -10 -10 -10 -10 -10 -10 -11 -11 -11 -11 -12 -12 -12 -13 -13 -13 -13 -13 -13 -13 -13 -13 -13 -13 -13 -13 -13 -13 -13 -13 -13 -13
-7 -7 -7 -6 -7 -8 -8 -8 -9 -9 -9 -10 -10 -10 -10 -10 -10 -11 -11 -11 -11 -11 -11 -12 -12 -13 -13 -13 -13 -13 -14 -14 -14 -13 -14 -13 -13 -13 -13 -13 -13 -13 -13
-7 -7 -7 -7 -7 -7 -8 -8 -9 -9 -9 -9 -10 -10 -10 -10 -10 -10 -11 -11 -10 -11 -11 -12 -12 -12 -13 -13 -13 -13 -14 -14 -14 -14 -14 -14 -14 -14 -14 -14 -14 -14 -13
-7 -7 -7 -7 -7 -7 -7 -8 -8 -8 -9 -10 -10 -10 -10 -10 -10 -10 -10 -11 -10 -10 -11 -11 -12 -12 -12 -13 -13 -13 -14 -14 -14 -14 -14 -14 -14 -14 -14 -14 -14 -14 -14

GFSGL_850_temp_024.txt.gz
Temp
6 5 5 4 3 3 3 2 1 0 0 -0 -1 -1 -2 -2 -4 -4 -4 -4 -4 -4 -5 -5 -5 -6 -6 -6 -7 -7 -8 -8 -8 -7 -7 -6 -6 -6 -6 -5 -5 -4 -4
5 5 4 3 3 2 1 1 0 -0 -0 -1 -1 -2 -3 -3 -4 -4 -4 -4 -4 -5 -5 -6 -6 -6 -7 -8 -8 -9 -9 -9 -10 -10 -9 -8 -7 -7 -7 -6 -6 -5 -5
4 4 3 3 2 1 0 0 -0 -0 -1 -2 -2 -3 -3 -3 -4 -4 -4 -4 -5 -5 -6 -6 -7 -8 -8 -9 -9 -10 -10 -10 -11 -10 -10 -9 -9 -8 -8 -7 -7 -6 -6
4 3 2 2 1 0 -0 -1 -1 -1 -2 -3 -3 -3 -4 -4 -4 -4 -4 -5 -5 -6 -7 -7 -8 -9 -10 -10 -11 -11 -11 -11 -11 -11 -11 -10 -9 -8 -8 -8 -7 -7 -6
3 2 1 1 0 -0 -1 -1 -2 -2 -3 -4 -4 -4 -5 -5 -5 -5 -5 -6 -6 -7 -7 -8 -9 -10 -11 -11 -11 -11 -12 -12 -11 -11 -11 -10 -10 -9 -9 -8 -8 -8 -7
2 1 1 0 -0 -1 -2 -2 -3 -3 -4 -5 -4 -5 -5 -5 -5 -6 -6 -6 -7 -7 -8 -9 -10 -10 -11 -12 -12 -12 -12 -12 -11 -11 -11 -10 -10 -10 -9 -9 -9 -9 -8
1 1 0 -1 -1 -2 -3 -3 -4 -4 -4 -5 -5 -5 -5 -5 -6 -6 -6 -7 -7 -8 -9 -10 -11 -11 -12 -12 -11 -11 -11 -11 -11 -11 -10 -10 -10 -10 -10 -10 -10 -9 -9
0 -0 -1 -2 -2 -2 -3 -4 -4 -5 -5 -5 -5 -5 -5 -6 -6 -7 -7 -8 -8 -8 -10 -11 -12 -12 -12 -12 -12 -12 -11 -11 -11 -11 -11 -11 -10 -10 -10 -10 -10 -10 -9
-0 -1 -2 -2 -2 -3 -4 -4 -5 -5 -5 -5 -5 -5 -6 -6 -7 -8 -8 -8 -8 -9 -10 -11 -12 -12 -12 -12 -12 -12 -12 -11 -11 -11 -11 -11 -11 -10 -10 -10 -10 -10 -10
-2 -2 -2 -3 -3 -4 -4 -5 -5 -5 -5 -5 -5 -6 -7 -7 -8 -8 -9 -9 -9 -10 -11 -12 -12 -12 -13 -12 -12 -12 -12 -12 -11 -11 -11 -11 -11 -11 -10 -10 -10 -10 -9
-2 -2 -3 -4 -4 -4 -5 -5 -5 -5 -5 -6 -6 -7 -7 -8 -9 -9 -9 -10 -10 -11 -12 -12 -12 -13 -13 -13 -13 -13 -12 -12 -12 -12 -11 -11 -11 -10 -10 -10 -10 -10 -10
-2 -2 -3 -4 -5 -5 -5 -6 -6 -6 -6 -6 -7 -7 -8 -9 -9 -10 -10 -10 -11 -11 -12 -12 -12 -14 -13 -13 -13 -13 -13 -12 -12 -12 -11 -11 -11 -10 -10 -10 -10 -10 -9
-2 -3 -4 -5 -5 -5 -6 -6 -6 -7 -7 -7 -8 -8 -9 -10 -10 -10 -10 -10 -10 -11 -11 -12 -13 -12 -13 -13 -13 -13 -13 -13 -12 -12 -11 -11 -11 -10 -10 -9 -9 -9 -9
-3 -4 -5 -5 -5 -6 -6 -6 -7 -7 -8 -8 -8 -9 -9 -10 -10 -10 -10 -10 -11 -11 -11 -11 -12 -12 -12 -13 -13 -13 -13 -13 -13 -12 -12 -11 -10 -10 -9 -9 -8 -8 -8
-4 -5 -6 -6 -6 -6 -7 -7 -7 -8 -8 -9 -9 -9 -10 -10 -10 -10 -11 -11 -11 -11 -11 -11 -11 -11 -11 -12 -12 -13 -13 -13 -13 -12 -12 -11 -11 -10 -10 -9 -9 -8 -8
-5 -6 -6 -6 -6 -6 -7 -7 -8 -8 -9 -10 -9 -10 -10 -10 -10 -11 -11 -11 -11 -11 -11 -11 -11 -11 -12 -12 -12 -12 -13 -13 -13 -13 -12 -12 -11 -11 -10 -10 -9 -9 -9
-7 -6 -7 -7 -6 -7 -7 -7 -8 -8 -9 -10 -10 -10 -10 -10 -10 -11 -11 -11 -11 -11 -11 -12 -12 -12 -12 -12 -13 -13 -13 -13 -13 -13 -13 -12 -12 -11 -11 -11 -10 -10 -10
-6 -6 -6 -6 -7 -7 -8 -7 -8 -8 -9 -10 -10 -10 -10 -10 -11 -11 -11 -11 -12 -12 -11 -12 -12 -12 -12 -12 -13 -13 -13 -13 -13 -13 -13 -13 -13 -12 -12 -12 -12 -11 -11
-6 -6 -6 -6 -7 -7 -8 -8 -8 -9 -9 -10 -10 -10 -10 -10 -11 -11 -11 -11 -12 -12 -12 -12 -12 -12 -12 -13 -13 -13 -13 -13 -13 -13 -13 -13 -13 -13 -12 -12 -12 -12 -12
-6 -6 -6 -7 -7 -7 -8 -8 -9 -9 -9 -10 -10 -10 -11 -10 -10 -11 -11 -11 -11 -11 -12 -12 -12 -12 -12 -13 -13 -13 -13 -13 -13 -13 -13 -13 -13 -13 -13 -13 -13 -13 -13
-7 -7 -7 -7 -7 -7 -7 -9 -9 -9 -10 -10 -10 -10 -10 -10 -10 -11 -11 -11 -11 -11 -11 -11 -12 -12 -12 -12 -13 -13 -13 -13 -13 -13 -13 -13 -13 -13 -13 -14 -13 -13 -13
-8 -7 -7 -7 -7 -7 -8 -8 -9 -9 -10 -10 -10 -10 -10 -10 -10 -10 -10 -11 -11 -11 -11 -11 -11 -12 -12 -12 -13 -13 -13 -13 -13 -13 -13 -13 -13 -13 -13 -13 -14 -13 -13
-8 -8 -7 -7 -7 -7 -7 -7 -8 -8 -9 -10 -10 -10 -10 -10 -10 -10 -10 -10 -10 -11 -11 -11 -11 -11 -12 -12 -13 -13 -13 -13 -13 -13 -13 -13 -13 -13 -13 -13 -13 -13 -13
-8 -8 -7 -7 -7 -7 -7 -7 -8 -8 -9 -9 -9 -10 -10 -10 -10 -10 -10 -10 -10 -11 -10 -10 -11 -11 -12 -12 -13 -13 -13 -13 -14 -14 -14 -14 -14 -13 -13 -14 -14 -14 -14
-8 -8 -8 -7 -7 -7 -7 -7 -8 -8 -8 -8 -8 -9 -9 -10 -10 -10 -10 -10 -10 -10 -10 -10 -11 -11 -12 -12 -12 -13 -13 -14 -14 -14 -14 -14 -14 -14 -14 -14 -14 -14 -14
-8 -8 -8 -8 -7 -7 -7 -7 -7 -7 -7 -7 -7 -8 -8 -9 -10 -10 -10 -10 -10 -10 -10 -10 -11 -11 -11 -12 -12 -13 -13 -14 -14 -14 -14 -14 -14 -14 -14 -14 -14 -14 -14

GFSGL_850_temp_027.txt.gz
Temp
5 5 5 4 3 3 3 2 1 0 -0 -0 -1 -1 -1 -2 -3 -3 -3 -4 -4 -4 -4 -5 -5 -6 -7 -7 -8 -8 -8 -8 -8 -8 -8 -8 -8 -8 -8 -7 -6 -6 -5
4 5 4 4 3 2 1 0 -0 -1 -1 -1 -2 -2 -2 -3 -3 -4 -4 -4 -4 -4 -5 -5 -6 -7 -8 -8 -9 -9 -9 -9 -9 -9 -9 -9 -8 -8 -8 -8 -7 -6 -6
4 4 3 3 2 1 -0 -1 -1 -1 -1 -2 -3 -3 -3 -3 -4 -4 -5 -4 -4 -5 -5 -6 -7 -8 -9 -9 -9 -9 -10 -10 -10 -10 -10 -9 -9 -9 -8 -8 -7 -7 -6
4 3 3 2 1 0 -1 -1 -1 -1 -2 -3 -4 -4 -4 -4 -5 -5 -5 -5 -5 -6 -6 -6 -7 -8 -10 -10 -10 -10 -11 -11 -11 -11 -10 -10 -9 -9 -9 -8 -8 -7 -7
3 2 2 1 0 -0 -1 -1 -1 -2 -3 -4 -4 -5 -5 -5 -5 -5 -5 -5 -6 -6 -7 -7 -8 -8 -9 -11 -12 -11 -11 -11 -11 -11 -10 -10 -10 -9 -9 -9 -9 -9 -8
2 1 1 0 -0 -1 -1 -2 -3 -3 -4 -4 -5 -5 -5 -5 -5 -5 -6 -6 -6 -7 -7 -7 -9 -10 -12 -12 -11 -11 -11 -11 -11 -11 -10 -10 -9 -10 -9 -9 -9 -9 -8
1 1 0 -1 -1 -2 -2 -3 -3 -4 -4 -5 -5 -5 -5 -5 -5 -6 -6 -6 -7 -7 -8 -9 -11 -12 -12 -12 -12 -12 -11 -11 -11 -11 -11 -11 -10 -10 -10 -10 -9 -9 -9
1 -0 -1 -1 -2 -2 -3 -3 -4 -4 -5 -5 -5 -5 -5 -6 -6 -6 -7 -7 -7 -8 -9 -10 -12 -13 -13 -13 -12 -12 -12 -12 -11 -11 -11 -11 -11 -10 -10 -10 -10 -10 -9
-0 -1 -1 -2 -2 -3 -3 -4 -4 -5 -5 -5 -5 -5 -6 -6 -7 -7 -7 -8 -8 -8 -9 -12 -13 -13 -13 -13 -13 -12 -12 -12 -12 -12 -11 -11 -11 -11 -11 -11 -11 -10 -9
-1 -1 -2 -3 -3 -4 -4 -4 -4 -5 -5 -5 -5 -6 -6 -7 -7 -8 -8 -8 -8 -9 -11 -12 -11 -12 -13 -13 -13 -13 -13 -12 -13 -12 -12 -11 -11 -11 -11 -11 -11 -10 -9
-1 -2 -2 -2 -3 -4 -5 -5 -5 -5 -5 -5 -6 -6 -7 -7 -8 -8 -9 -9 -10 -11 -11 -11 -11 -11 -14 -12 -13 -14 -13 -13 -13 -13 -12 -11 -11 -11 -10 -10 -10 -11 -10
-2 -2 -2 -3 -3 -4 -5 -5 -5 -6 -6 -6 -7 -7 -8 -8 -8 -9 -9 -10 -10 -10 -11 -11 -11 -11 -12 -12 -13 -13 -13 -13 -13 -13 -13 -12 -11 -11 -10 -10 -10 -10 -10
-2 -2 -2 -3 -4 -5 -5 -5 -6 -6 -7 -7 -8 -8 -8 -8 -9 -9 -9 -10 -10 -10 -11 -11 -11 -11 -11 -12 -12 -13 -13 -12 -13 -12 -12 -11 -11 -10 -10 -9 -9 -9 -9
-2 -2 -4 -5 -5 -6 -6 -6 -6 -6 -7 -8 -8 -8 -9 -9 -9 -10 -10 -10 -10 -10 -11 -11 -11 -11 -11 -12 -12 -12 -12 -13 -13 -13 -12 -11 -11 -10 -10 -9 -9 -8 -8
-2 -4 -5 -6 -6 -6 -6 -6 -7 -7 -8 -8 -8 -9 -9 -9 -10 -10 -10 -10 -11 -11 -11 -11 -11 -11 -11 -11 -12 -12 -12 -12 -12 -12 -12 -12 -11 -11 -10 -10 -9 -9 -9
-3 -5 -6 -6 -6 -6 -6 -7 -7 -7 -8 -8 -8 -9 -9 -10 -10 -10 -10 -10 -11 -11 -11 -11 -11 -11 -11 -12 -12 -12 -12 -12 -13 -13 -13 -12 -12 -12 -11 -12 -11 -10 -10
-5 -6 -6 -6 -6 -6 -6 -7 -7 -8 -8 -8 -9 -9 -10 -10 -10 -10 -10 -11 -11 -11 -11 -11 -11 -11 -12 -12 -12 -12 -12 -13 -13 -13 -13 -13 -13 -12 -12 -13 -12 -12 -11
-6 -6 -6 -6 -6 -6 -7 -7 -7 -8 -8 -8 -9 -10 -10 -10 -10 -11 -11 -11 -11 -11 -11 -11 -11 -11 -12 -12 -12 -12 -12 -13 -13 -13 -13 -13 -13 -13 -13 -13 -13 -12 -12
-7 -7 -7 -6 -6 -7 -7 -7 -7 -8 -8 -8 -9 -10 -10 -10 -10 -10 -11 -11 -11 -11 -11 -11 -11 -11 -11 -12 -12 -12 -13 -13 -13 -13 -13 -13 -13 -13 -13 -13 -13 -13 -13
-7 -7 -8 -8 -7 -7 -7 -7 -7 -8 -8 -9 -9 -10 -10 -10 -10 -10 -10 -11 -11 -11 -11 -11 -11 -11 -11 -12 -12 -12 -12 -13 -13 -13 -13 -13 -13 -13 -13 -13 -13 -13 -13
-7 -8 -8 -7 -7 -7 -8 -7 -7 -8 -9 -9 -9 -9 -10 -10 -10 -10 -10 -10 -10 -10 -11 -11 -11 -11 -11 -12 -12 -12 -13 -13 -13 -13 -13 -13 -13 -13 -14 -14 -14 -14 -13
-7 -7 -8 -8 -8 -8 -8 -7 -7 -8 -8 -8 -8 -9 -10 -10 -10 -10 -10 -10 -10 -10 -10 -10 -10 -11 -11 -11 -12 -12 -13 -13 -13 -13 -14 -13 -13 -13 -13 -13 -14 -14 -13
-7 -7 -7 -8 -8 -8 -7 -7 -7 -7 -7 -8 -8 -9 -9 -10 -10 -10 -10 -10 -10 -10 -10 -10 -10 -10 -11 -11 -12 -12 -12 -13 -13 -13 -14 -14 -14 -14 -13 -13 -13 -13 -13
-7 -7 -8 -8 -8 -8 -8 -7 -7 -7 -7 -8 -8 -8 -8 -9 -9 -9 -10 -10 -10 -10 -10 -10 -10 -10 -11 -11 -11 -12 -12 -13 -13 -13 -14 -14 -14 -14 -14 -14 -14 -14 -14
-8 -8 -8 -8 -8 -8 -8 -8 -7 -7 -7 -7 -8 -8 -8 -8 -8 -8 -9 -9 -10 -10 -10 -10 -10 -10 -10 -11 -11 -12 -12 -13 -13 -13 -14 -14 -14 -14 -14 -14 -14 -14 -14
-8 -9 -8 -8 -8 -8 -9 -8 -8 -8 -8 -8 -7 -7 -7 -7 -7 -8 -8 -9 -10 -10 -10 -10 -10 -10 -11 -11 -11 -12 -12 -13 -13 -14 -14 -14 -14 -14 -14 -14 -14 -14 -14

GFSGL_850_temp_030.txt.gz
Temp
5 5 5 4 4 3 2 1 1 0 -0 -1 -1 -1 -1 -1 -1 -2 -2 -2 -3 -3 -4 -4 -4 -4 -4 -4 -5 -5 -5 -5 -6 -6 -6 -6 -6 -6 -6 -7 -7 -6 -5
5 5 4 4 3 2 1 1 -0 -1 -1 -1 -2 -2 -2 -2 -2 -3 -3 -3 -4 -4 -4 -4 -4 -5 -5 -5 -5 -6 -6 -6 -7 -7 -7 -7 -7 -7 -7 -7 -7 -6 -6
4 4 3 3 2 1 1 -0 -1 -1 -2 -2 -2 -2 -3 -3 -3 -4 -4 -5 -5 -5 -5 -5 -5 -6 -6 -6 -7 -7 -7 -8 -8 -8 -8 -8 -8 -8 -8 -8 -8 -7 -6
4 4 3 2 1 1 -0 -1 -1 -2 -2 -2 -3 -4 -4 -4 -4 -4 -5 -5 -5 -5 -6 -6 -7 -8 -8 -9 -9 -8 -9 -9 -9 -9 -9 -9 -9 -8 -8 -8 -7 -7 -7
4 3 2 1 0 -0 -1 -2 -2 -3 -3 -3 -3 -4 -4 -5 -5 -5 -5 -5 -6 -6 -7 -7 -8 -9 -9 -10 -11 -10 -10 -10 -10 -10 -9 -9 -8 -8 -8 -8 -8 -7 -7
3 2 2 1 -0 -1 -2 -2 -3 -3 -3 -3 -4 -5 -5 -5 -5 -5 -5 -6 -6 -7 -7 -8 -8 -9 -10 -11 -11 -12 -12 -11 -11 -10 -10 -9 -9 -9 -8 -9 -8 -8 -8
2 1 1 -0 -1 -1 -2 -2 -3 -3 -3 -4 -4 -5 -5 -6 -5 -6 -6 -6 -8 -8 -8 -9 -9 -9 -10 -10 -11 -11 -11 -11 -11 -11 -10 -10 -9 -9 -9 -9 -8 -8 -8
2 1 -0 -1 -1 -2 -2 -3 -3 -3 -3 -4 -4 -5 -5 -6 -5 -6 -6 -7 -8 -9 -9 -10 -9 -10 -10 -12 -12 -12 -11 -10 -10 -11 -11 -10 -10 -10 -10 -10 -9 -9 -9
1 -0 -1 -1 -2 -2 -3 -3 -4 -4 -4 -4 -4 -5 -6 -7 -6 -6 -7 -8 -9 -9 -10 -10 -11 -11 -12 -13 -13 -12 -11 -11 -11 -11 -12 -11 -11 -10 -10 -10 -10 -9 -9
-0 -1 -1 -2 -3 -3 -3 -4 -4 -4 -4 -5 -5 -6 -6 -6 -6 -7 -7 -8 -10 -10 -10 -10 -11 -12 -10 -13 -13 -13 -12 -12 -12 -12 -12 -11 -10 -10 -10 -10 -10 -9 -9
-0 -1 -2 -3 -3 -3 -4 -4 -4 -4 -5 -6 -5 -6 -7 -7 -8 -7 -8 -8 -10 -10 -10 -10 -11 -11 -10 -11 -12 -13 -13 -13 -13 -12 -12 -11 -10 -10 -10 -9 -9 -9 -9
-1 -2 -3 -3 -4 -4 -4 -4 -4 -5 -5 -6 -7 -6 -7 -8 -8 -8 -8 -8 -9 -10 -11 -11 -11 -10 -10 -11 -11 -12 -12 -13 -13 -12 -12 -11 -11 -11 -10 -10 -9 -9 -9
-1 -2 -3 -4 -5 -5 -4 -4 -5 -5 -5 -6 -6 -7 -7 -7 -8 -9 -9 -9 -9 -9 -10 -10 -10 -10 -10 -11 -12 -11 -12 -14 -13 -13 -12 -12 -12 -11 -10 -9 -9 -8 -8
-2 -3 -4 -4 -4 -5 -5 -6 -6 -6 -6 -6 -6 -7 -7 -8 -8 -9 -10 -10 -11 -11 -12 -11 -10 -10 -11 -12 -13 -13 -13 -13 -14 -13 -13 -13 -12 -12 -11 -10 -9 -8 -8
-2 -3 -5 -5 -5 -5 -5 -6 -6 -6 -6 -7 -7 -7 -8 -9 -9 -9 -9 -10 -11 -11 -10 -11 -12 -12 -12 -12 -13 -13 -13 -13 -14 -14 -14 -13 -13 -12 -12 -11 -10 -10 -9
-3 -4 -5 -6 -5 -6 -6 -6 -6 -6 -7 -7 -7 -8 -8 -8 -9 -9 -9 -10 -10 -10 -10 -12 -12 -12 -13 -13 -13 -13 -13 -14 -13 -13 -14 -14 -13 -13 -12 -12 -11 -11 -10
-3 -4 -5 -6 -6 -6 -6 -7 -7 -6 -7 -7 -8 -8 -8 -8 -9 -10 -10 -10 -10 -10 -12 -11 -12 -12 -12 -13 -13 -13 -13 -13 -12 -13 -13 -14 -14 -14 -13 -12 -12 -11 -11
-3 -4 -6 -6 -7 -7 -6 -6 -7 -7 -7 -7 -8 -8 -8 -9 -9 -10 -10 -10 -11 -11 -11 -11 -12 -12 -12 -12 -13 -13 -13 -12 -13 -12 -13 -13 -15 -15 -13 -13 -13 -13 -12
-3 -5 -6 -7 -7 -7 -7 -7 -7 -7 -7 -8 -8 -8 -9 -9 -9 -10 -10 -10 -11 -11 -10 -11 -11 -12 -12 -13 -13 -13 -12 -12 -12 -12 -13 -14 -15 -15 -14 -14 -13 -13 -13
-5 -6 -7 -7 -7 -7 -7 -7 -7 -8 -8 -8 -8 -8 -8 -9 -9 -10 -10 -10 -10 -11 -11 -11 -11 -12 -12 -13 -13 -13 -13 -14 -14 -13 -13 -13 -15 -15 -15 -15 -14 -14 -13
-6 -6 -6 -7 -7 -7 -8 -7 -8 -8 -7 -8 -8 -8 -9 -9 -9 -9 -10 -9 -10 -10 -11 -11 -11 -12 -12 -13 -13 -13 -13 -13 -14 -13 -13 -13 -13 -15 -15 -15 -15 -15 -14
-6 -6 -6 -7 -7 -7 -8 -8 -7 -8 -8 -8 -8 -8 -9 -8 -9 -10 -10 -10 -10 -10 -10 -11 -11 -11 -12 -12 -12 -13 -13 -12 -13 -13 -13 -13 -13 -15 -15 -15 -15 -15 -15
-5 -6 -7 -7 -7 -7 -8 -8 -8 -8 -8 -8 -8 -8 -8 -9 -8 -9 -9 -9 -9 -10 -10 -10 -10 -10 -10 -10 -10 -11 -11 -13 -13 -13 -13 -13 -14 -15 -14 -15 -15 -15 -14
-6 -7 -7 -8 -8 -7 -7 -7 -7 -8 -8 -8 -8 -8 -7 -7 -8 -8 -8 -8 -9 -9 -9 -10 -10 -10 -10 -10 -10 -10 -11 -11 -12 -12 -13 -13 -13 -14 -14 -14 -15 -15 -15
-7 -7 -8 -8 -8 -8 -7 -8 -8 -8 -8 -8 -8 -8 -8 -7 -7 -7 -7 -7 -8 -8 -9 -9 -9 -10 -10 -10 -10 -10 -11 -11 -12 -12 -13 -13 -13 -14 -13 -14 -14 -16 -15
-8 -9 -9 -8 -8 -8 -8 -8 -8 -8 -8 -8 -8 -8 -8 -8 -8 -8 -8 -8 -8 -8 -8 -9 -9 -10 -10 -10 -10 -11 -11 -11 -12 -12 -13 -13 -14 -14 -14 -14 -14 -15 -16

GFSGL_850_temp_033.txt.gz
Temp
7 6 5 5 5 4 4 3 2 2 1 1 0 0 -0 -0 0 -1 -1 -2 -2 -2 -2 -3 -3 -4 -4 -4 -3 -3 -4 -4 -4 -4 -4 -5 -6 -6 -6 -6 -6 -6 -6
6 5 4 5 5 4 4 3 2 1 1 0 -0 -0 -0 -1 -2 -2 -2 -2 -3 -3 -4 -4 -4 -4 -4 -4 -4 -4 -5 -5 -5 -5 -6 -7 -7 -7 -7 -7 -7 -6 -7
5 5 5 5 4 4 3 2 1 1 0 -0 -0 -1 -1 -2 -2 -3 -3 -4 -4 -4 -4 -4 -4 -4 -5 -5 -6 -6 -6 -6 -6 -8 -8 -8 -8 -8 -7 -7 -7 -7 -7
6 5 5 5 4 3 3 2 1 0 -1 -1 -1 -1 -2 -3 -3 -3 -4 -4 -4 -4 -4 -4 -5 -6 -6 -7 -8 -8 -8 -8 -8 -9 -9 -8 -8 -8 -8 -8 -8 -7 -7
4 5 5 4 3 2 2 1 0 -1 -1 -1 -1 -2 -3 -3 -3 -4 -4 -4 -4 -4 -5 -5 -6 -6 -7 -9 -10 -10 -10 -10 -10 -10 -9 -9 -9 -8 -8 -8 -8 -8 -7
4 4 4 3 2 2 1 0 -0 -1 -1 -1 -1 -2 -3 -3 -4 -4 -5 -5 -6 -5 -6 -6 -6 -7 -7 -9 -9 -10 -11 -11 -10 -10 -10 -9 -9 -9 -9 -9 -9 -8 -8
4 4 3 2 2 1 0 -0 -0 -1 -1 -2 -2 -3 -4 -4 -4 -5 -5 -6 -6 -6 -6 -7 -7 -7 -8 -9 -10 -10 -11 -10 -10 -10 -10 -10 -10 -10 -10 -9 -9 -9 -8
4 3 3 1 1 0 0 -0 -1 -1 -2 -2 -2 -3 -4 -4 -5 -5 -6 -6 -7 -7 -7 -7 -8 -8 -9 -10 -10 -11 -11 -10 -9 -10 -10 -10 -11 -11 -11 -10 -10 -9 -9
3 3 2 1 1 0 -0 -1 -1 -2 -2 -2 -2 -3 -4 -5 -5 -5 -6 -7 -7 -8 -8 -8 -8 -9 -10 -10 -10 -12 -12 -11 -10 -10 -11 -11 -11 -10 -10 -10 -9 -9 -9
2 1 1 0 -0 -1 -1 -1 -2 -2 -2 -3 -3 -3 -4 -5 -6 -6 -7 -7 -8 -8 -8 -8 -9 -9 -10 -10 -10 -11 -13 -11 -12 -12 -12 -11 -10 -10 -10 -9 -9 -9 -9
1 0 -0 -1 -1 -1 -2 -2 -3 -3 -3 -4 -4 -5 -5 -6 -6 -7 -7 -7 -8 -9 -9 -9 -9 -10 -9 -10 -10 -11 -12 -12 -12 -12 -12 -11 -10 -10 -10 -10 -9 -9 -9
1 -1 -1 -1 -1 -2 -3 -3 -3 -3 -3 -4 -5 -5 -6 -6 -7 -7 -7 -8 -8 -8 -10 -10 -10 -9 -9 -10 -10 -11 -11 -11 -12 -12 -12 -11 -11 -11 -11 -10 -9 -9 -8
-1 -2 -2 -2 -2 -3 -3 -3 -3 -3 -4 -5 -5 -5 -6 -6 -7 -7 -8 -8 -9 -8 -10 -10 -9 -9 -9 -10 -12 -12 -12 -12 -13 -12 -12 -12 -11 -11 -11 -10 -9 -9 -8
-2 -2 -2 -3 -3 -3 -3 -3 -3 -5 -5 -5 -6 -6 -6 -6 -7 -7 -8 -8 -9 -10 -10 -10 -10 -10 -10 -11 -11 -11 -12 -12 -13 -13 -12 -12 -12 -12 -11 -10 -10 -9 -8
-3 -3 -3 -4 -4 -4 -4 -3 -4 -5 -6 -6 -6 -6 -6 -7 -7 -8 -8 -8 -9 -10 -10 -10 -11 -10 -10 -10 -11 -11 -11 -12 -12 -13 -13 -13 -12 -12 -12 -11 -10 -10 -9
-2 -2 -3 -4 -5 -4 -4 -5 -5 -5 -6 -6 -6 -7 -7 -7 -7 -8 -8 -9 -9 -9 -9 -11 -10 -10 -11 -11 -11 -11 -11 -12 -12 -13 -13 -13 -13 -13 -12 -12 -11 -11 -10
-2 -3 -3 -5 -4 -5 -5 -5 -6 -6 -6 -6 -6 -7 -7 -7 -8 -8 -9 -9 -10 -10 -10 -11 -10 -10 -11 -11 -10 -11 -11 -12 -13 -13 -13 -13 -14 -13 -13 -12 -11 -11 -11
-3 -3 -5 -4 -5 -6 -6 -6 -6 -6 -6 -6 -6 -7 -7 -7 -8 -9 -9 -10 -10 -11 -11 -10 -10 -10 -10 -10 -10 -11 -12 -13 -13 -13 -14 -13 -14 -14 -13 -13 -12 -12 -12
-4 -5 -5 -5 -5 -6 -6 -6 -6 -6 -6 -6 -6 -7 -7 -7 -8 -9 -9 -10 -10 -10 -10 -9 -9 -10 -10 -11 -11 -12 -13 -13 -13 -14 -14 -14 -14 -14 -13 -14 -13 -13 -12
-3 -4 -4 -5 -6 -6 -6 -6 -6 -7 -7 -7 -7 -7 -7 -7 -8 -8 -9 -9 -10 -9 -10 -10 -9 -9 -10 -11 -11 -12 -12 -12 -13 -13 -13 -14 -14 -14 -13 -13 -14 -14 -13
-4 -4 -4 -5 -5 -6 -6 -6 -7 -7 -7 -7 -7 -7 -7 -7 -8 -8 -8 -8 -9 -9 -9 -10 -10 -10 -10 -11 -12 -12 -12 -13 -13 -13 -14 -14 -14 -14 -14 -14 -13 -14 -14
-5 -5 -5 -5 -6 -6 -6 -6 -7 -7 -7 -7 -7 -7 -7 -7 -8 -9 -8 -8 -9 -9 -9 -9 -10 -10 -10 -11 -11 -12 -12 -13 -13 -14 -14 -13 -14 -14 -14 -14 -14 -14 -14
-6 -6 -6 -6 -6 -7 -7 -7 -7 -7 -7 -7 -7 -7 -7 -7 -7 -8 -8 -8 -8 -8 -9 -9 -9 -10 -10 -11 -11 -11 -11 -12 -13 -13 -12 -12 -13 -14 -15 -14 -14 -14 -14
-6 -7 -7 -7 -7 -8 -7 -7 -7 -7 -7 -7 -7 -7 -7 -7 -7 -7 -8 -8 -8 -8 -8 -9 -9 -9 -9 -10 -10 -10 -10 -10 -11 -11 -11 -12 -13 -14 -15 -15 -15 -14 -14
-7 -7 -7 -7 -7 -8 -7 -7 -7 -7 -7 -7 -8 -8 -8 -7 -7 -7 -8 -8 -8 -8 -8 -8 -8 -8 -9 -9 -10 -10 -10 -10 -10 -11 -11 -12 -12 -13 -13 -13 -14 -14 -15
-8 -8 -7 -7 -8 -8 -8 -8 -8 -8 -8 -8 -8 -8 -8 -8 -8 -8 -8 -8 -8 -8 -8 -8 -8 -9 -9 -9 -10 -10 -11 -10 -11 -11 -12 -12 -13 -13 -15 -15 -15 -14 -15

GFSGL_850_temp_036.txt.gz
Temp
9 7 7 6 5 5 4 4 4 3 2 1 1 1 0 0 0 -0 -1 -1 -2 -2 -2 -3 -3 -3 -4 -4 -4 -4 -4 -5 -5 -5 -5 -5 -6 -7 -6 -7 -7 -7 -7
8 7 6 6 5 4 4 4 3 2 1 1 0 -0 -0 -0 -1 -1 -2 -2 -3 -3 -3 -4 -4 -4 -4 -4 -5 -5 -5 -5 -6 -7 -7 -7 -8 -7 -8 -8 -8 -7 -7
8 6 6 5 4 4 4 4 3 2 1 0 -0 -0 -0 -1 -1 -2 -3 -3 -3 -4 -4 -4 -4 -5 -5 -5 -6 -6 -7 -8 -8 -8 -8 -8 -8 -8 -8 -8 -8 -8 -8
7 6 5 5 4 4 4 3 2 1 1 -0 -1 -1 -1 -1 -2 -3 -3 -4 -4 -4 -4 -4 -5 -5 -6 -6 -6 -7 -8 -9 -9 -10 -9 -9 -9 -9 -9 -9 -9 -8 -8
6 6 5 4 4 4 3 2 2 1 0 -0 -1 -1 -1 -2 -3 -3 -4 -4 -4 -4 -5 -5 -5 -6 -6 -7 -7 -8 -9 -10 -10 -10 -10 -10 -9 -9 -9 -9 -9 -9 -8
6 4 3 4 4 3 2 2 1 0 -0 -1 -1 -1 -1 -2 -3 -3 -3 -4 -5 -5 -6 -6 -6 -7 -7 -7 -8 -9 -9 -10 -10 -10 -10 -10 -10 -10 -10 -10 -10 -10 -10
5 4 4 3 2 2 1 1 0 -0 -0 -1 -1 -2 -2 -3 -3 -4 -4 -5 -5 -6 -6 -6 -7 -7 -7 -8 -8 -9 -9 -10 -11 -10 -10 -10 -10 -11 -10 -10 -10 -10 -10
4 3 2 2 2 1 1 -0 -0 -0 -1 -1 -2 -2 -2 -3 -3 -4 -4 -5 -5 -6 -7 -7 -7 -8 -8 -8 -9 -9 -9 -10 -11 -10 -10 -11 -11 -11 -10 -10 -10 -10 -9
2 1 2 2 1 1 0 -0 -0 -1 -1 -2 -2 -2 -3 -4 -4 -4 -5 -6 -6 -6 -7 -8 -8 -8 -9 -9 -9 -9 -9 -9 -11 -11 -10 -11 -11 -10 -10 -10 -9 -9 -9
1 1 0 0 1 0 -1 -1 -1 -1 -2 -2 -2 -3 -3 -4 -4 -5 -6 -6 -6 -7 -8 -8 -8 -9 -9 -9 -9 -9 -9 -10 -10 -10 -11 -11 -11 -10 -10 -10 -10 -10 -9
-1 -0 -0 -0 -1 -1 -1 -1 -2 -2 -2 -3 -3 -3 -4 -4 -5 -6 -6 -6 -7 -7 -7 -8 -9 -9 -9 -9 -9 -9 -10 -11 -11 -11 -12 -11 -11 -11 -11 -10 -10 -10 -9
-1 -0 -0 -0 -1 -2 -2 -2 -2 -3 -3 -3 -3 -4 -4 -5 -5 -6 -6 -6 -7 -8 -8 -8 -9 -9 -9 -9 -9 -10 -11 -11 -11 -12 -12 -12 -12 -11 -11 -11 -10 -10 -9
-1 0 -0 -2 -3 -3 -3 -3 -3 -3 -3 -3 -4 -5 -5 -5 -6 -6 -6 -7 -7 -8 -8 -8 -9 -9 -9 -10 -10 -11 -11 -11 -12 -12 -12 -12 -12 -12 -11 -11 -10 -10 -9
1 -0 -3 -3 -3 -3 -3 -3 -3 -3 -3 -4 -4 -5 -5 -6 -6 -6 -6 -7 -7 -8 -8 -9 -9 -10 -10 -10 -10 -11 -11 -11 -12 -12 -12 -12 -12 -12 -12 -12 -11 -10 -9
-3 -2 -2 -2 -2 -3 -3 -4 -4 -4 -4 -5 -5 -5 -6 -6 -6 -6 -7 -7 -8 -8 -9 -9 -9 -9 -10 -10 -10 -10 -11 -11 -11 -12 -12 -13 -13 -13 -12 -12 -11 -11 -11
-2 -2 -2 -2 -3 -3 -4 -4 -4 -5 -5 -5 -6 -6 -6 -6 -6 -7 -7 -8 -8 -9 -9 -9 -9 -10 -10 -10 -10 -10 -11 -11 -11 -12 -12 -13 -13 -13 -13 -12 -12 -12 -11
-2 -2 -2 -3 -3 -4 -5 -5 -6 -5 -5 -6 -6 -6 -6 -6 -7 -7 -8 -8 -8 -9 -10 -9 -10 -10 -10 -10 -10 -10 -11 -11 -11 -12 -13 -13 -13 -13 -13 -13 -12 -12 -12
-3 -3 -3 -3 -4 -4 -5 -5 -6 -6 -6 -6 -6 -6 -6 -6 -6 -7 -8 -8 -9 -10 -10 -10 -11 -10 -10 -10 -10 -10 -11 -11 -12 -12 -12 -13 -13 -13 -13 -13 -13 -13 -12
-3 -4 -4 -4 -4 -5 -5 -5 -5 -6 -6 -6 -6 -6 -6 -6 -7 -7 -8 -8 -9 -9 -10 -10 -10 -9 -9 -10 -10 -10 -11 -12 -12 -12 -13 -13 -13 -13 -13 -13 -13 -13 -13
-4 -4 -4 -4 -4 -4 -5 -5 -5 -6 -6 -6 -6 -6 -7 -7 -7 -7 -7 -8 -8 -9 -9 -9 -9 -9 -9 -9 -10 -10 -11 -12 -12 -12 -12 -13 -13 -13 -13 -13 -13 -13 -13
-5 -5 -5 -5 -5 -5 -5 -6 -6 -6 -7 -7 -6 -7 -7 -7 -7 -7 -7 -7 -8 -8 -8 -9 -9 -9 -10 -9 -10 -10 -11 -12 -12 -12 -12 -12 -12 -12 -13 -13 -13 -13 -14
-6 -6 -6 -6 -6 -6 -6 -6 -6 -6 -7 -7 -7 -7 -7 -7 -7 -7 -7 -8 -8 -8 -8 -8 -9 -9 -9 -10 -10 -10 -11 -12 -12 -12 -11 -11 -11 -12 -13 -14 -13 -14 -14
-8 -7 -7 -6 -6 -6 -6 -7 -7 -7 -7 -7 -7 -7 -7 -7 -7 -7 -7 -7 -7 -8 -8 -8 -8 -9 -9 -9 -10 -10 -11 -11 -11 -11 -11 -11 -11 -12 -13 -13 -13 -14 -14
-9 -8 -8 -7 -7 -7 -7 -7 -7 -7 -8 -7 -7 -7 -7 -7 -7 -7 -7 -7 -7 -7 -8 -8 -8 -8 -8 -9 -9 -9 -10 -11 -11 -11 -11 -11 -11 -12 -12 -12 -13 -13 -14
-10 -9 -8 -8 -8 -8 -7 -7 -8 -8 -8 -8 -8 -8 -8 -8 -8 -8 -8 -8 -8 -8 -8 -8 -8 -8 -8 -8 -8 -9 -9 -10 -10 -10 -10 -11 -11 -12 -12 -13 -13 -13 -13
-11 -10 -8 -8 -8 -8 -8 -8 -9 -10 -10 -10 -9 -9 -9 -8 -8 -8 -8 -8 -8 -8 -8 -8 -8 -8 -8 -8 -8 -9 -9 -10 -10 -10 -11 -11 -11 -12 -12 -12 -13 -13 -14

GFSGL_850_temp_039.txt.gz
Temp
11 9 9 8 7 7 6 5 4 2 3 3 3 2 1 0 -0 -0 -0 -1 -2 -3 -3 -3 -3 -3 -4 -4 -5 -5 -5 -5 -5 -6 -6 -6 -6 -7 -7 -7 -8 -8 -8
10 9 8 7 7 6 5 3 2 3 3 3 2 1 0 -0 -0 -1 -1 -2 -2 -3 -3 -3 -4 -4 -4 -5 -5 -5 -5 -6 -6 -7 -7 -7 -8 -9 -9 -8 -8 -8 -8
10 9 8 7 6 4 4 2 3 3 3 2 1 1 -0 -1 -1 -1 -2 -3 -3 -3 -4 -4 -4 -5 -5 -5 -5 -6 -6 -6 -7 -8 -8 -9 -9 -9 -9 -9 -9 -9 -9
9 8 7 6 5 4 2 2 2 3 2 2 1 0 -1 -1 -1 -1 -2 -3 -3 -4 -4 -4 -5 -5 -5 -6 -6 -6 -7 -7 -8 -9 -9 -10 -10 -9 -10 -10 -10 -9 -9
9 7 6 5 5 3 3 1 2 3 2 1 0 -0 -1 -1 -1 -1 -2 -3 -3 -4 -4 -5 -5 -6 -6 -6 -7 -7 -8 -8 -9 -9 -10 -10 -10 -10 -10 -10 -10 -10 -10
8 7 6 5 4 1 2 2 1 1 1 0 -0 -1 -1 -1 -2 -2 -2 -3 -4 -4 -5 -5 -6 -6 -7 -7 -7 -8 -8 -9 -9 -10 -11 -11 -11 -11 -11 -10 -11 -10 -10
7 6 5 3 2 2 0 1 1 1 0 -0 -1 -1 -2 -2 -2 -2 -3 -3 -4 -4 -5 -6 -7 -7 -7 -8 -8 -8 -8 -9 -9 -10 -11 -11 -11 -11 -11 -11 -10 -10 -10
5 4 3 2 1 0 0 0 -1 -0 -1 -1 -1 -1 -1 -2 -2 -3 -4 -4 -4 -5 -6 -6 -7 -7 -8 -8 -8 -8 -9 -8 -9 -10 -11 -11 -11 -11 -11 -11 -10 -10 -9
3 2 0 -0 -1 -1 -1 -1 -1 -1 -1 -1 -1 -2 -2 -2 -3 -3 -4 -5 -5 -6 -6 -7 -7 -8 -8 -8 -9 -9 -8 -8 -9 -10 -10 -11 -11 -11 -11 -10 -10 -11 -10
1 -1 -2 -2 -1 -1 -0 -0 -1 -1 -2 -2 -2 -2 -3 -3 -3 -4 -4 -5 -5 -6 -7 -7 -7 -8 -8 -9 -9 -9 -9 -9 -9 -10 -10 -11 -11 -11 -11 -11 -11 -11 -10
-1 -1 -1 -1 -1 1 -1 -2 -1 -2 -2 -2 -2 -3 -3 -3 -4 -4 -5 -5 -6 -6 -7 -7 -8 -8 -8 -9 -9 -9 -9 -10 -10 -11 -11 -11 -11 -12 -11 -11 -11 -11 -11
0 1 0 -0 -0 -2 -2 -2 -2 -3 -3 -3 -3 -3 -3 -4 -4 -5 -5 -6 -6 -7 -7 -7 -8 -8 -9 -9 -9 -9 -10 -11 -11 -11 -12 -11 -12 -12 -12 -12 -11 -11 -10
-1 -1 -1 -0 -0 -1 -2 -2 -3 -3 -3 -3 -3 -4 -4 -4 -5 -5 -6 -6 -7 -7 -7 -8 -8 -8 -9 -9 -9 -10 -10 -11 -11 -11 -12 -12 -12 -12 -12 -12 -11 -11 -10
-1 -1 -1 -1 -2 -2 -2 -2 -3 -4 -4 -4 -4 -4 -5 -5 -5 -6 -6 -6 -6 -7 -7 -8 -8 -8 -9 -9 -10 -10 -11 -11 -11 -11 -11 -12 -12 -12 -12 -12 -12 -11 -11
-1 -1 -2 -2 -2 -2 -2 -3 -4 -4 -4 -5 -5 -5 -5 -6 -6 -6 -6 -6 -7 -7 -8 -8 -8 -9 -9 -9 -10 -10 -10 -11 -11 -11 -11 -12 -12 -12 -12 -12 -12 -12 -12
-2 -2 -2 -2 -2 -3 -3 -3 -4 -4 -4 -4 -5 -6 -6 -6 -6 -6 -6 -7 -7 -7 -8 -9 -9 -9 -9 -9 -10 -10 -10 -11 -11 -11 -11 -11 -12 -13 -13 -12 -13 -12 -12
-2 -2 -3 -3 -3 -3 -4 -4 -5 -4 -4 -5 -5 -5 -6 -6 -7 -6 -6 -7 -7 -8 -8 -8 -9 -9 -9 -9 -10 -10 -10 -11 -11 -11 -11 -11 -12 -12 -13 -13 -13 -13 -12
-3 -3 -4 -4 -4 -4 -4 -4 -4 -5 -4 -4 -5 -5 -6 -6 -6 -7 -7 -6 -7 -8 -8 -8 -9 -10 -10 -10 -10 -10 -10 -10 -10 -11 -11 -11 -12 -13 -13 -13 -13 -13 -13
-5 -5 -5 -5 -5 -5 -5 -5 -5 -4 -5 -5 -5 -5 -6 -6 -6 -6 -7 -7 -7 -7 -8 -8 -9 -9 -10 -10 -10 -10 -10 -10 -10 -10 -10 -11 -11 -13 -12 -13 -13 -13 -13
-6 -6 -6 -6 -6 -5 -5 -6 -5 -6 -6 -6 -6 -6 -6 -7 -7 -7 -7 -7 -7 -7 -7 -8 -8 -9 -9 -9 -9 -9 -10 -10 -10 -10 -10 -11 -12 -12 -12 -13 -13 -14 -14
-8 -8 -8 -8 -8 -7 -7 -6 -6 -6 -6 -7 -7 -7 -7 -7 -7 -7 -7 -7 -7 -7 -7 -8 -8 -8 -9 -9 -10 -10 -10 -10 -10 -10 -10 -11 -11 -11 -12 -13 -13 -14 -14
-9 -9 -9 -9 -9 -9 -8 -8 -7 -7 -7 -7 -7 -7 -7 -7 -7 -7 -7 -7 -7 -7 -7 -8 -8 -8 -8 -9 -9 -10 -10 -10 -10 -10 -10 -11 -11 -11 -12 -12 -13 -13 -13
-10 -10 -10 -10 -9 -9 -8 -8 -8 -7 -7 -7 -8 -8 -7 -7 -7 -7 -8 -7 -7 -7 -7 -7 -8 -8 -8 -8 -9 -9 -9 -9 -10 -10 -10 -10 -10 -11 -11 -12 -12 -13 -13
-12 -12 -12 -11 -10 -9 -9 -8 -8 -7 -7 -8 -8 -8 -8 -8 -8 -8 -8 -8 -8 -7 -7 -7 -7 -8 -8 -8 -8 -8 -9 -9 -10 -10 -10 -10 -10 -11 -11 -12 -12 -13 -13
-13 -13 -13 -13 -12 -11 -11 -11 -10 -10 -10 -9 -9 -9 -9 -9 -9 -9 -8 -8 -8 -8 -8 -8 -8 -8 -8 -8 -8 -8 -8 -8 -9 -10 -10 -10 -11 -11 -11 -12 -12 -13 -13
-14 -14 -14 -14 -14 -14 -14 -13 -13 -12 -12 -12 -12 -11 -11 -11 -11 -11 -10 -9 -9 -9 -8 -8 -8 -8 -8 -8 -8 -8 -8 -8 -9 -9 -10 -10 -11 -11 -11 -12 -12 -12 -13

GFSGL_850_temp_042.txt.gz
Temp
11 11 11 10 9 8 7 7 6 4 4 3 3 2 2 2 2 1 0 -0 -1 -1 -2 -3 -3 -3 -4 -4 -4 -5 -5 -5 -5 -6 -6 -6 -6 -7 -7 -7 -8 -8 -8
12 11 11 10 9 8 7 6 5 4 4 3 2 2 2 1 1 0 -1 -1 -1 -2 -3 -3 -4 -4 -4 -4 -5 -5 -5 -6 -6 -7 -7 -7 -7 -8 -8 -9 -9 -9 -9
11 11 10 9 8 7 7 6 3 3 2 2 2 2 1 1 0 -1 -1 -1 -2 -2 -3 -3 -4 -4 -4 -5 -5 -6 -6 -6 -7 -7 -8 -8 -8 -8 -9 -9 -9 -9 -9
11 10 9 8 7 7 6 4 3 2 2 2 1 1 1 0 -1 -1 -1 -2 -2 -2 -3 -4 -4 -4 -5 -5 -6 -6 -7 -7 -8 -8 -8 -8 -9 -9 -10 -10 -10 -10 -9
10 9 8 7 5 4 4 3 2 1 1 1 0 0 0 -0 -1 -1 -1 -2 -2 -3 -3 -4 -4 -5 -5 -6 -6 -7 -7 -8 -8 -9 -9 -9 -9 -10 -11 -11 -11 -11 -9
8 7 6 5 5 4 3 1 -0 -1 -1 -1 1 -0 -0 -1 -1 -2 -2 -2 -3 -4 -4 -4 -4 -5 -5 -6 -7 -8 -8 -8 -9 -9 -9 -10 -10 -11 -11 -11 -11 -11 -11
7 6 5 4 4 2 -0 -1 -2 -1 -1 -1 -0 -1 -1 -1 -1 -2 -2 -3 -3 -4 -4 -5 -5 -5 -6 -7 -7 -8 -8 -9 -9 -9 -9 -10 -10 -11 -11 -11 -11 -11 -10
6 5 4 2 1 -1 -2 -1 -0 -1 -1 0 -1 -1 -1 -2 -2 -2 -3 -3 -4 -4 -5 -5 -6 -6 -6 -7 -8 -8 -8 -9 -9 -9 -10 -10 -11 -11 -12 -11 -11 -11 -11
4 3 1 0 -1 -0 0 0 -0 -1 -1 -1 -1 -1 -2 -2 -2 -3 -3 -4 -4 -5 -5 -6 -7 -7 -7 -8 -8 -8 -8 -8 -9 -9 -10 -11 -11 -11 -11 -11 -11 -11 -11
1 0 -1 -0 0 0 -1 -1 -1 -1 -1 -2 -2 -2 -2 -3 -3 -3 -4 -4 -5 -5 -6 -6 -7 -7 -7 -8 -8 -8 -8 -9 -9 -9 -10 -10 -11 -11 -11 -12 -12 -12 -12
-0 0 0 -0 -1 -1 -1 -1 -1 -2 -2 -2 -2 -3 -3 -3 -3 -4 -4 -5 -5 -6 -6 -6 -7 -7 -8 -8 -8 -8 -9 -9 -10 -10 -10 -11 -11 -11 -11 -12 -12 -12 -12
0 0 -1 -1 -1 -1 -1 -1 -1 -2 -2 -3 -3 -3 -3 -4 -4 -4 -5 -5 -5 -6 -6 -6 -7 -8 -8 -8 -8 -9 -9 -10 -10 -11 -11 -11 -11 -12 -11 -12 -12 -12 -12
-1 -1 -1 -1 -0 -1 -1 -1 -2 -2 -2 -2 -3 -4 -4 -4 -5 -5 -5 -6 -6 -6 -6 -6 -7 -8 -8 -8 -9 -9 -10 -10 -10 -11 -11 -11 -12 -12 -12 -12 -12 -12 -11
-1 -0 -1 -1 -1 -1 -1 -2 -2 -2 -3 -3 -3 -4 -4 -4 -5 -5 -6 -6 -6 -6 -6 -6 -7 -8 -8 -8 -9 -9 -10 -10 -10 -11 -11 -11 -12 -12 -11 -12 -12 -12 -12
-1 -1 -1 -2 -2 -2 -2 -3 -3 -3 -3 -3 -4 -4 -4 -4 -4 -6 -6 -6 -6 -6 -6 -7 -7 -8 -8 -8 -9 -9 -10 -10 -11 -11 -11 -11 -12 -11 -11 -12 -12 -12 -12
-2 -2 -2 -3 -3 -3 -4 -4 -4 -4 -4 -4 -4 -5 -5 -5 -5 -6 -6 -6 -6 -6 -7 -7 -7 -8 -8 -8 -9 -9 -10 -10 -10 -11 -11 -11 -11 -11 -12 -12 -13 -13 -12
-3 -3 -4 -4 -4 -5 -5 -5 -5 -4 -4 -4 -5 -5 -5 -6 -6 -6 -6 -6 -7 -7 -7 -7 -7 -8 -8 -9 -9 -9 -9 -10 -10 -10 -11 -11 -11 -11 -12 -12 -13 -13 -12
-5 -5 -5 -5 -6 -6 -6 -6 -6 -6 -6 -5 -5 -5 -5 -6 -6 -6 -6 -7 -7 -7 -7 -7 -7 -8 -8 -9 -10 -10 -10 -10 -10 -10 -11 -11 -11 -11 -11 -12 -13 -13 -13
-6 -6 -6 -6 -7 -7 -8 -8 -8 -7 -6 -6 -6 -6 -6 -6 -6 -6 -6 -7 -7 -7 -7 -7 -7 -7 -8 -9 -9 -10 -10 -10 -10 -10 -11 -11 -10 -11 -12 -12 -13 -13 -13
-7 -7 -8 -9 -9 -9 -9 -9 -9 -8 -8 -7 -7 -6 -6 -7 -7 -6 -6 -7 -7 -7 -7 -7 -7 -7 -8 -9 -9 -9 -10 -10 -10 -10 -10 -10 -11 -10 -11 -12 -12 -13 -13
-8 -9 -9 -10 -10 -11 -10 -10 -10 -10 -9 -8 -7 -7 -7 -8 -8 -7 -7 -7 -7 -7 -7 -7 -7 -7 -8 -8 -9 -9 -9 -10 -10 -10 -10 -10 -10 -10 -11 -12 -12 -12 -13
-10 -11 -11 -12 -12 -12 -11 -11 -11 -10 -9 -8 -7 -7 -8 -8 -7 -7 -7 -7 -7 -7 -8 -7 -7 -7 -8 -8 -8 -9 -9 -10 -10 -10 -10 -10 -10 -10 -11 -11 -12 -12 -12
-11 -12 -12 -12 -13 -12 -12 -12 -11 -11 -10 -9 -9 -8 -8 -8 -8 -8 -8 -8 -8 -8 -8 -7 -7 -7 -7 -8 -8 -8 -9 -9 -9 -10 -10 -10 -10 -10 -11 -11 -12 -12 -12
-13 -12 -13 -13 -13 -13 -13 -14 -13 -12 -12 -12 -11 -11 -11 -10 -10 -9 -9 -8 -8 -8 -8 -8 -8 -8 -7 -7 -8 -8 -8 -8 -9 -9 -10 -10 -10 -11 -11 -11 -12 -12 -12
-13 -13 -14 -14 -14 -15 -15 -15 -15 -14 -14 -14 -14 -13 -13 -12 -12 -11 -11 -10 -9 -9 -9 -8 -8 -8 -8 -8 -8 -8 -8 -8 -8 -8 -9 -10 -10 -11 -11 -11 -12 -12 -13
-14 -15 -15 -15 -15 -16 -16 -16 -16 -16 -16 -16 -15 -15 -15 -14 -13 -13 -12 -11 -11 -10 -10 -9 -9 -8 -8 -8 -8 -8 -8 -8 -8 -8 -9 -9 -10 -11 -11 -11 -12 -12 -13

GFSGL_850_temp_045.txt.gz
Temp
12 12 12 12 10 10 9 9 8 7 6 5 4 3 3 2 1 1 1 0 -0 -1 -1 -1 -2 -3 -3 -4 -4 -4 -5 -5 -5 -5 -6 -6 -7 -7 -7 -7 -8 -8 -8
13 13 13 10 10 10 9 8 7 6 6 4 3 3 2 1 1 1 1 -0 -1 -1 -2 -2 -2 -3 -4 -4 -4 -5 -5 -6 -6 -6 -6 -7 -7 -7 -8 -8 -8 -8 -9
13 13 10 10 9 9 8 6 5 4 3 2 2 2 1 1 1 0 -0 -1 -1 -1 -2 -2 -3 -3 -4 -4 -5 -5 -6 -6 -7 -7 -7 -7 -7 -8 -8 -8 -8 -8 -9
12 11 10 9 7 7 6 5 4 3 2 1 1 -1 -1 -0 0 0 -1 -1 -1 -2 -2 -3 -3 -4 -4 -4 -5 -6 -7 -7 -7 -8 -8 -8 -8 -8 -9 -10 -8 -9 -9
10 10 9 7 6 5 4 3 3 2 1 0 -1 -1 -1 -1 -0 -1 -1 -1 -2 -2 -3 -3 -4 -5 -4 -5 -5 -6 -7 -7 -8 -8 -9 -9 -8 -9 -9 -10 -10 -10 -10
10 9 7 6 5 4 3 3 1 0 -1 -0 -0 -1 -1 -1 -1 -1 -1 -2 -2 -2 -3 -3 -4 -4 -5 -6 -6 -6 -7 -8 -8 -9 -9 -9 -9 -10 -10 -11 -11 -11 -11
8 6 5 4 3 2 2 0 -1 0 -0 -0 -1 -1 -1 -1 -1 -2 -2 -2 -2 -3 -3 -4 -4 -5 -5 -6 -7 -7 -8 -8 -9 -9 -9 -9 -9 -10 -11 -11 -11 -11 -11
6 5 4 3 2 0 -0 0 0 -1 -1 -2 -1 -1 -1 -1 -2 -2 -2 -3 -3 -3 -4 -4 -5 -5 -6 -7 -7 -8 -8 -8 -9 -9 -9 -9 -10 -10 -11 -12 -12 -12 -11
4 2 1 0 -0 1 1 0 -1 -1 -1 -1 -1 -1 -2 -2 -2 -2 -3 -3 -3 -4 -4 -5 -5 -6 -6 -7 -7 -8 -8 -8 -9 -9 -9 -10 -10 -11 -11 -11 -12 -12 -12
1 -0 -0 -0 0 0 -0 -0 -1 -1 -1 -1 -1 -1 -2 -2 -2 -3 -3 -3 -4 -4 -5 -5 -6 -6 -7 -7 -7 -8 -8 -9 -9 -9 -10 -10 -11 -11 -11 -12 -12 -12 -12
1 1 0 -0 -0 -0 -1 -1 -1 -1 -1 -2 -2 -1 -1 -2 -2 -3 -4 -4 -4 -5 -5 -5 -6 -6 -7 -7 -7 -8 -8 -9 -9 -10 -10 -10 -11 -11 -11 -11 -12 -12 -12
0 -0 -0 -1 -1 -1 -1 -1 -1 -2 -2 -2 -2 -1 -2 -2 -3 -3 -4 -5 -5 -6 -6 -6 -6 -6 -7 -7 -8 -8 -9 -9 -10 -10 -10 -10 -11 -11 -11 -12 -12 -12 -12
-1 -1 -1 -1 -1 -1 -1 -2 -2 -2 -2 -2 -2 -3 -2 -3 -3 -4 -4 -5 -6 -6 -6 -6 -6 -6 -7 -7 -8 -8 -9 -9 -10 -10 -10 -10 -11 -11 -11 -12 -11 -12 -11
-1 -1 -1 -1 -2 -2 -2 -3 -3 -3 -3 -4 -4 -4 -3 -4 -4 -4 -5 -5 -6 -6 -6 -6 -6 -6 -7 -7 -8 -8 -9 -9 -10 -10 -10 -10 -11 -11 -11 -12 -11 -12 -11
-2 -2 -2 -2 -2 -2 -2 -3 -3 -4 -4 -5 -5 -5 -5 -4 -4 -5 -5 -5 -6 -6 -7 -6 -6 -7 -7 -7 -8 -8 -9 -9 -10 -10 -10 -10 -11 -11 -11 -11 -11 -12 -12
-2 -2 -2 -3 -3 -4 -4 -3 -4 -4 -4 -5 -5 -5 -5 -5 -5 -5 -5 -6 -6 -6 -7 -7 -6 -7 -7 -7 -7 -8 -9 -9 -10 -10 -10 -11 -11 -11 -11 -11 -12 -12 -12
-3 -3 -4 -4 -4 -5 -6 -6 -6 -4 -6 -6 -7 -7 -6 -6 -6 -6 -6 -6 -7 -7 -7 -7 -7 -7 -7 -7 -8 -8 -9 -9 -10 -10 -10 -10 -11 -11 -11 -11 -11 -12 -12
-4 -5 -5 -5 -6 -7 -7 -8 -8 -9 -9 -7 -7 -8 -7 -7 -7 -6 -6 -6 -6 -7 -7 -7 -7 -7 -7 -7 -7 -8 -9 -10 -10 -10 -10 -11 -11 -11 -11 -11 -11 -12 -12
-5 -6 -6 -7 -7 -8 -9 -9 -10 -10 -11 -11 -9 -8 -8 -7 -7 -7 -7 -7 -7 -7 -7 -7 -7 -7 -7 -7 -7 -8 -9 -10 -10 -10 -10 -11 -11 -11 -11 -11 -11 -12 -12
-6 -7 -8 -8 -9 -10 -11 -11 -12 -12 -12 -11 -10 -9 -8 -8 -7 -7 -7 -7 -7 -7 -7 -7 -7 -7 -7 -7 -8 -8 -9 -10 -10 -10 -10 -10 -11 -11 -11 -11 -11 -11 -12
-8 -8 -9 -10 -11 -12 -12 -12 -13 -13 -12 -12 -11 -10 -10 -9 -8 -8 -8 -8 -8 -8 -7 -7 -7 -8 -8 -7 -7 -8 -9 -9 -10 -10 -10 -10 -11 -11 -11 -11 -11 -11 -12
-10 -10 -11 -12 -12 -12 -12 -13 -13 -13 -13 -13 -12 -12 -12 -11 -10 -10 -10 -9 -8 -8 -8 -8 -8 -8 -7 -7 -7 -8 -8 -9 -9 -10 -10 -10 -10 -11 -11 -11 -11 -11 -12
-11 -11 -12 -12 -13 -13 -13 -13 -14 -14 -14 -14 -14 -13 -13 -13 -13 -13 -12 -10 -9 -9 -9 -8 -8 -8 -8 -8 -8 -8 -8 -8 -9 -9 -10 -10 -10 -11 -11 -11 -11 -11 -11
-12 -12 -13 -13 -14 -14 -14 -14 -14 -15 -15 -15 -15 -15 -15 -14 -14 -14 -13 -12 -11 -10 -10 -9 -9 -9 -8 -8 -8 -8 -8 -8 -8 -8 -9 -10 -10 -10 -11 -11 -11 -11 -12
-13 -13 -14 -14 -14 -15 -15 -15 -15 -16 -16 -16 -16 -16 -16 -16 -15 -15 -14 -13 -13 -12 -11 -10 -10 -9 -9 -8 -8 -8 -8 -8 -8 -8 -8 -9 -9 -10 -10 -11 -11 -11 -12
-14 -14 -15 -15 -15 -16 -16 -16 -17 -17 -17 -17 -17 -17 -17 -17 -17 -16 -15 -14 -13 -12 -12 -11 -11 -10 -9 -9 -8 -8 -8 -8 -8 -8 -8 -9 -9 -9 -10 -11 -11 -12 -12

GFSGL_850_temp_048.txt.gz
Temp
13 12 12 12 12 13 12 12 10 10 8 6 5 4 3 2 2 1 1 -0 -0 -0 -1 -1 -2 -2 -3 -3 -4 -4 -4 -5 -5 -5 -6 -6 -7 -7 -7 -7 -7 -7 -7
13 13 13 13 12 12 12 10 8 8 7 5 4 3 2 1 -1 -0 -0 -0 -0 -1 -1 -2 -2 -2 -3 -3 -4 -4 -5 -5 -6 -6 -6 -7 -7 -7 -8 -7 -7 -8 -8
14 14 13 12 12 11 9 8 7 6 4 3 2 1 1 -1 -1 -1 -0 -0 -1 -1 -2 -2 -2 -3 -3 -4 -4 -4 -5 -5 -6 -7 -7 -7 -8 -7 -7 -7 -7 -8 -8
14 13 12 10 9 8 8 7 5 4 2 2 1 -0 -1 -0 -1 -1 -1 -1 -1 -1 -2 -2 -2 -3 -3 -4 -5 -5 -5 -6 -7 -7 -7 -8 -8 -8 -8 -8 -8 -9 -9
12 11 9 7 7 6 5 5 3 3 1 0 -0 -0 -1 -1 -1 -1 -1 -1 -1 -2 -2 -2 -3 -3 -4 -4 -5 -5 -6 -7 -7 -8 -8 -8 -8 -8 -9 -9 -10 -9 -9
9 8 7 7 6 5 4 3 1 0 -1 -1 0 -0 -1 -1 -1 -1 -1 -1 -2 -2 -2 -3 -3 -4 -4 -5 -5 -6 -6 -7 -8 -8 -8 -8 -8 -8 -9 -10 -10 -11 -12
7 7 6 5 4 3 1 0 -1 -1 -0 0 -0 -1 -1 -1 -1 -1 -1 -2 -2 -2 -3 -3 -3 -4 -5 -5 -6 -6 -7 -7 -8 -8 -9 -8 -9 -9 -10 -10 -11 -11 -12
6 5 4 3 1 0 -1 -0 0 0 -0 -1 -1 -1 -1 -1 -1 -1 -2 -2 -2 -3 -3 -3 -4 -4 -5 -5 -6 -6 -7 -8 -8 -9 -9 -9 -9 -10 -10 -11 -11 -11 -11
4 3 1 0 0 -0 0 0 0 -1 -1 -1 -1 -1 -1 -1 -1 -2 -2 -3 -3 -3 -3 -4 -4 -5 -5 -6 -6 -7 -7 -8 -9 -9 -9 -9 -9 -10 -11 -11 -11 -11 -11
1 1 0 0 -0 0 -0 -0 -1 -1 -1 -1 -1 -1 -1 -1 -2 -2 -3 -3 -3 -3 -4 -4 -5 -5 -6 -6 -6 -7 -7 -7 -9 -9 -9 -9 -10 -11 -11 -11 -11 -12 -12
1 0 1 0 -1 -1 -1 -1 -1 -1 -1 -1 -1 -2 -2 -2 -2 -3 -3 -4 -4 -4 -4 -5 -5 -5 -6 -6 -6 -7 -7 -8 -8 -9 -9 -10 -10 -11 -11 -11 -11 -11 -12
-0 -1 -1 -1 -1 -1 -1 -1 -2 -2 -2 -2 -3 -2 -2 -3 -3 -3 -3 -4 -4 -5 -5 -5 -6 -6 -6 -6 -6 -7 -7 -8 -8 -9 -9 -10 -10 -11 -11 -11 -11 -11 -11
-1 -1 -1 -1 -1 -2 -2 -2 -2 -2 -3 -3 -4 -4 -3 -4 -4 -4 -4 -4 -5 -5 -5 -5 -6 -6 -7 -7 -7 -7 -7 -8 -8 -9 -9 -10 -10 -11 -11 -11 -11 -11 -11
-1 -1 -1 -1 -1 -2 -2 -2 -3 -3 -4 -4 -5 -5 -5 -5 -5 -5 -5 -5 -5 -5 -6 -6 -6 -7 -7 -6 -7 -7 -7 -8 -8 -9 -9 -10 -10 -11 -11 -11 -11 -11 -10
-1 -2 -2 -2 -2 -2 -2 -3 -3 -4 -5 -6 -6 -7 -8 -7 -6 -7 -7 -7 -6 -6 -6 -7 -7 -6 -7 -7 -7 -7 -8 -8 -8 -9 -9 -10 -10 -11 -11 -11 -11 -11 -11
-2 -2 -2 -3 -3 -4 -4 -4 -4 -5 -6 -6 -7 -8 -8 -9 -8 -8 -7 -7 -7 -6 -6 -7 -6 -7 -7 -7 -7 -7 -7 -7 -8 -9 -9 -10 -10 -11 -11 -11 -11 -11 -11
-3 -3 -4 -4 -4 -5 -5 -6 -6 -5 -6 -7 -8 -9 -9 -9 -9 -9 -8 -7 -7 -6 -7 -6 -7 -6 -7 -7 -7 -7 -8 -7 -8 -9 -9 -10 -10 -11 -11 -11 -11 -11 -11
-4 -4 -5 -6 -6 -7 -7 -8 -9 -9 -9 -8 -9 -10 -10 -9 -9 -9 -8 -8 -7 -7 -7 -7 -7 -7 -8 -7 -7 -7 -7 -8 -8 -9 -10 -10 -10 -11 -11 -11 -11 -11 -11
-5 -6 -6 -7 -8 -8 -9 -9 -10 -11 -12 -12 -11 -11 -11 -10 -9 -9 -8 -8 -8 -8 -8 -8 -8 -8 -7 -7 -7 -8 -7 -8 -8 -9 -10 -10 -10 -11 -11 -11 -11 -11 -11
-7 -7 -8 -8 -9 -10 -10 -11 -11 -12 -12 -13 -13 -13 -12 -12 -11 -11 -10 -10 -10 -10 -9 -9 -8 -8 -8 -7 -8 -8 -8 -8 -8 -9 -10 -10 -10 -11 -11 -11 -11 -11 -11
-8 -8 -9 -10 -10 -11 -11 -12 -13 -13 -13 -13 -14 -14 -14 -14 -14 -12 -12 -12 -12 -11 -10 -9 -9 -8 -8 -8 -8 -8 -8 -8 -8 -9 -10 -10 -10 -10 -10 -11 -11 -11 -11
-9 -10 -10 -11 -11 -12 -12 -13 -14 -14 -14 -14 -14 -14 -14 -14 -14 -14 -13 -13 -13 -13 -12 -10 -10 -9 -9 -8 -8 -8 -8 -8 -8 -9 -9 -10 -10 -10 -11 -11 -11 -11 -11
-10 -11 -11 -12 -12 -13 -13 -14 -14 -14 -15 -15 -15 -15 -15 -15 -15 -15 -15 -14 -14 -13 -12 -12 -10 -9 -9 -9 -8 -8 -9 -8 -8 -8 -9 -10 -10 -10 -10 -11 -11 -11 -11
-11 -12 -12 -13 -13 -13 -14 -14 -15 -15 -15 -15 -16 -16 -16 -16 -16 -16 -16 -15 -15 -14 -13 -13 -12 -11 -10 -9 -9 -8 -9 -9 -8 -8 -9 -9 -10 -10 -10 -11 -11 -11 -11
-12 -13 -13 -13 -14 -14 -15 -15 -15 -16 -16 -16 -17 -17 -17 -17 -17 -17 -17 -16 -15 -15 -14 -13 -13 -12 -11 -10 -9 -9 -8 -9 -8 -8 -8 -9 -9 -10 -10 -10 -11 -11 -11
-14 -14 -14 -15 -15 -15 -15 -16 -16 -16 -17 -17 -17 -18 -18 -18 -18 -17 -17 -17 -16 -15 -15 -14 -13 -13 -12 -11 -10 -9 -8 -8 -8 -8 -8 -8 -9 -9 -9 -10 -10 -11 -11

GFSGL_850_temp_051.txt.gz
Temp
15 15 13 12 12 11 11 10 9 9 7 7 5 5 3 3 2 1 0 0 0 0 -0 -1 -1 -2 -2 -2 -3 -3 -4 -4 -4 -4 -5 -6 -6 -6 -7 -7 -7 -7 -7
15 14 13 13 13 12 11 11 10 8 7 7 5 3 3 3 2 1 1 -0 -0 -0 -1 -1 -1 -2 -2 -3 -3 -3 -4 -5 -5 -5 -5 -7 -7 -7 -7 -7 -7 -7 -7
14 13 13 13 12 11 11 9 8 8 7 5 3 3 1 1 1 1 -0 -1 -1 -1 -1 -1 -2 -2 -2 -3 -3 -4 -4 -5 -5 -6 -6 -7 -8 -8 -8 -9 -9 -8 -8
14 13 12 10 9 8 8 8 7 6 5 3 2 2 1 1 1 -0 -1 -1 -1 -1 -1 -2 -2 -2 -2 -3 -3 -4 -4 -5 -6 -6 -7 -7 -8 -8 -9 -9 -9 -9 -9
11 10 9 8 8 7 7 6 5 4 3 2 1 0 1 -0 -0 -1 -1 -1 -1 -1 -1 -2 -2 -2 -3 -3 -3 -4 -5 -5 -6 -7 -7 -7 -8 -8 -9 -10 -10 -10 -9
9 8 8 7 6 5 4 3 2 2 1 1 1 0 -1 -1 -1 -1 -1 -1 -1 -1 -2 -2 -2 -2 -3 -3 -4 -4 -5 -6 -6 -7 -7 -8 -8 -9 -10 -10 -10 -10 -10
7 6 6 5 4 3 3 2 1 -0 -0 0 -0 -1 -1 -1 -1 -1 -1 -1 -2 -2 -2 -2 -2 -3 -3 -3 -4 -5 -5 -6 -6 -7 -8 -8 -9 -10 -10 -10 -10 -11 -10
5 4 3 3 2 1 -1 -1 -0 0 -0 -0 -0 -1 -1 -1 -1 -1 -2 -2 -2 -2 -2 -2 -3 -3 -3 -4 -4 -5 -5 -6 -6 -7 -8 -8 -9 -9 -9 -11 -11 -12 -11
4 2 1 1 1 0 -0 -0 0 -1 -0 -1 -1 -1 -1 -1 -1 -2 -2 -2 -2 -2 -3 -3 -3 -4 -4 -4 -5 -5 -5 -6 -6 -7 -8 -8 -9 -9 -9 -11 -11 -11 -11
2 1 0 0 1 1 0 -1 -1 -1 -1 -1 -1 -1 -2 -2 -2 -2 -2 -3 -3 -3 -3 -3 -4 -4 -4 -5 -5 -5 -5 -6 -7 -7 -8 -8 -9 -9 -10 -10 -11 -11 -11
0 0 1 1 0 -1 -1 -1 -1 -1 -1 -1 -2 -2 -2 -2 -3 -3 -3 -4 -4 -4 -4 -4 -4 -4 -5 -5 -6 -6 -6 -6 -7 -7 -8 -9 -9 -10 -10 -11 -11 -12 -12
0 0 0 -0 -1 -1 -1 -1 -1 -2 -2 -2 -2 -2 -3 -3 -3 -3 -4 -5 -5 -6 -5 -5 -5 -5 -5 -6 -6 -6 -6 -6 -7 -7 -8 -8 -9 -9 -10 -11 -11 -11 -12
-0 -0 -1 -1 -1 -1 -2 -2 -2 -3 -3 -3 -4 -4 -5 -6 -6 -6 -6 -6 -6 -6 -6 -6 -5 -6 -6 -6 -6 -7 -7 -7 -7 -7 -8 -8 -9 -9 -10 -10 -10 -11 -10
-1 -1 -1 -1 -2 -2 -2 -3 -3 -4 -4 -5 -6 -6 -7 -7 -9 -9 -9 -10 -9 -8 -7 -6 -6 -6 -6 -6 -7 -7 -7 -7 -7 -7 -8 -8 -9 -9 -10 -10 -11 -11 -12
-1 -1 -2 -2 -2 -2 -3 -4 -4 -5 -6 -7 -9 -11 -10 -10 -11 -10 -10 -10 -9 -9 -8 -7 -7 -7 -7 -7 -7 -7 -7 -7 -7 -8 -8 -8 -9 -9 -10 -10 -11 -11 -12
-2 -2 -2 -3 -3 -4 -4 -5 -5 -6 -7 -8 -9 -10 -11 -11 -10 -9 -9 -9 -9 -8 -8 -8 -7 -7 -7 -7 -7 -7 -7 -7 -8 -8 -8 -8 -9 -9 -10 -10 -11 -11 -12
-3 -3 -4 -4 -5 -5 -6 -6 -7 -8 -8 -8 -9 -10 -11 -11 -11 -10 -10 -9 -8 -8 -8 -7 -7 -7 -7 -7 -7 -7 -7 -7 -8 -8 -8 -8 -9 -9 -10 -10 -11 -11 -12
-4 -4 -5 -6 -6 -7 -7 -8 -8 -9 -10 -10 -10 -11 -11 -11 -11 -11 -11 -10 -9 -9 -9 -8 -8 -8 -8 -8 -8 -8 -8 -8 -8 -8 -8 -8 -9 -9 -10 -10 -11 -11 -12
-5 -6 -6 -7 -8 -8 -9 -9 -9 -10 -10 -11 -11 -11 -11 -11 -11 -12 -12 -12 -12 -11 -11 -10 -10 -10 -9 -9 -9 -8 -8 -8 -8 -8 -8 -8 -9 -10 -10 -10 -11 -11 -11
-6 -7 -7 -8 -9 -9 -9 -10 -10 -11 -11 -12 -12 -12 -12 -12 -12 -13 -13 -13 -13 -13 -12 -12 -12 -11 -10 -9 -8 -8 -8 -8 -8 -8 -8 -9 -9 -10 -10 -10 -11 -11 -11
-7 -8 -9 -9 -10 -10 -11 -11 -12 -12 -12 -13 -13 -14 -14 -14 -14 -15 -14 -14 -14 -14 -13 -13 -12 -12 -11 -10 -9 -9 -9 -9 -9 -9 -8 -9 -9 -10 -10 -10 -11 -11 -11
-9 -9 -10 -10 -11 -11 -12 -12 -13 -13 -13 -14 -14 -14 -14 -15 -15 -15 -15 -15 -15 -15 -15 -14 -13 -13 -12 -11 -10 -10 -9 -9 -9 -9 -9 -9 -10 -10 -10 -10 -11 -11 -11
-10 -10 -11 -11 -12 -12 -13 -13 -14 -14 -14 -15 -15 -15 -15 -15 -15 -16 -16 -15 -15 -15 -15 -15 -14 -13 -13 -12 -11 -10 -10 -9 -10 -10 -9 -9 -9 -10 -10 -10 -10 -11 -11
-11 -11 -12 -12 -13 -13 -14 -14 -15 -15 -15 -16 -16 -16 -16 -16 -16 -16 -16 -16 -16 -16 -16 -15 -14 -14 -13 -13 -12 -11 -10 -9 -9 -9 -9 -9 -9 -10 -10 -10 -10 -11 -11
-12 -12 -13 -13 -14 -14 -15 -15 -16 -16 -16 -17 -17 -17 -17 -17 -17 -17 -17 -17 -17 -16 -16 -15 -15 -14 -13 -13 -13 -12 -11 -10 -9 -9 -9 -9 -9 -9 -10 -10 -10 -11 -11
-13 -14 -14 -15 -15 -16 -16 -16 -17 -17 -17 -17 -18 -18 -18 -18 -18 -18 -18 -18 -18 -17 -16 -16 -15 -15 -14 -13 -12 -12 -11 -10 -9 -9 -9 -9 -9 -9 -10 -10 -10 -10 -11

GFSGL_850_temp_054.txt.gz
Temp
12 11 11 10 11 11 11 10 11 10 9 8 8 8 6 4 3 2 2 1 1 0 0 -0 -0 -0 -0 -0 -1 -1 -1 -1 -1 -1 -1 -1 -3 -4 -5 -5 -6 -6 -6
12 11 10 11 12 11 10 10 10 10 8 8 8 7 5 3 3 3 1 0 -0 0 0 -0 -0 -0 -1 -1 -1 -1 -1 -1 -2 -2 -2 -2 -3 -4 -5 -6 -6 -6 -7
11 11 13 12 12 11 10 9 9 8 8 8 7 5 4 3 2 0 1 -0 -0 -0 -0 -0 -0 -1 -1 -1 -1 -1 -1 -1 -2 -2 -2 -3 -3 -4 -5 -5 -6 -6 -7
13 13 12 11 9 9 8 8 8 7 7 7 5 3 2 2 1 0 0 -1 -1 -1 -1 -1 -1 -1 -1 -1 -1 -1 -2 -2 -2 -3 -3 -3 -3 -4 -5 -5 -6 -6 -6
11 10 10 9 8 8 7 7 6 6 5 3 3 1 0 1 1 0 -0 -1 -1 -1 -1 -1 -1 -1 -1 -2 -2 -1 -2 -3 -3 -4 -4 -4 -4 -5 -5 -5 -6 -6 -6
9 8 8 8 7 7 6 6 4 4 3 1 1 1 1 1 0 -0 -1 -2 -2 -1 -1 -1 -1 -1 -2 -2 -2 -2 -3 -3 -4 -5 -4 -5 -5 -5 -5 -6 -7 -7 -7
8 7 6 6 5 4 4 3 2 2 1 1 1 1 0 -0 -1 -1 -1 -2 -2 -2 -1 -1 -1 -1 -2 -2 -3 -3 -3 -3 -4 -5 -5 -5 -6 -5 -6 -6 -7 -7 -7
7 6 5 4 3 1 3 2 2 1 1 0 -0 -1 -1 -1 -1 -1 -1 -1 -2 -2 -2 -2 -2 -2 -2 -2 -3 -3 -4 -4 -5 -5 -5 -6 -6 -6 -7 -8 -8 -9 -8
4 3 2 2 2 2 2 1 1 0 -1 -1 -2 -2 -2 -2 -2 -1 -2 -2 -3 -3 -3 -3 -3 -3 -3 -3 -4 -4 -4 -4 -5 -5 -6 -6 -7 -7 -8 -9 -9 -9 -8
1 0 0 0 1 1 0 -1 -1 -1 -1 -1 -2 -2 -2 -2 -3 -2 -2 -3 -3 -4 -4 -4 -4 -4 -4 -4 -4 -4 -5 -5 -5 -6 -7 -6 -7 -7 -8 -8 -9 -9 -8
0 1 1 1 0 -0 -1 -0 -1 -2 -1 -1 -1 -2 -2 -3 -3 -3 -4 -4 -6 -6 -6 -6 -6 -5 -5 -5 -5 -5 -5 -5 -6 -6 -6 -7 -7 -8 -8 -9 -10 -9 -9
1 1 0 0 -0 -0 -1 -1 -1 -1 -2 -2 -3 -4 -5 -6 -7 -7 -7 -7 -7 -8 -8 -7 -7 -7 -6 -6 -5 -5 -5 -5 -6 -6 -6 -7 -7 -8 -8 -8 -9 -9 -9
0 0 -0 -0 -1 -1 -1 -1 -3 -3 -4 -5 -6 -7 -7 -8 -8 -8 -9 -9 -8 -9 -9 -8 -8 -7 -7 -6 -6 -6 -6 -6 -6 -7 -7 -8 -8 -8 -8 -9 -9 -9 -10
-0 -1 -1 -1 -1 -1 -2 -3 -5 -4 -5 -6 -8 -8 -9 -9 -9 -11 -11 -11 -11 -10 -9 -9 -8 -8 -7 -6 -7 -6 -6 -6 -6 -7 -7 -8 -8 -8 -9 -9 -10 -10 -10
-1 -1 -1 -1 -2 -3 -4 -4 -5 -5 -5 -6 -8 -8 -10 -11 -11 -10 -11 -11 -10 -10 -9 -9 -8 -8 -7 -7 -7 -7 -7 -6 -7 -7 -7 -7 -8 -8 -9 -9 -10 -10 -10
-1 -2 -2 -2 -3 -4 -6 -8 -6 -6 -7 -7 -8 -9 -9 -10 -10 -10 -10 -10 -10 -10 -9 -9 -8 -7 -7 -7 -7 -7 -7 -7 -8 -7 -8 -8 -8 -9 -9 -9 -10 -10 -10
-2 -2 -3 -4 -5 -6 -6 -7 -9 -10 -8 -8 -9 -9 -9 -10 -10 -10 -10 -10 -11 -11 -12 -12 -11 -9 -8 -7 -7 -7 -7 -8 -8 -8 -8 -8 -8 -8 -9 -9 -9 -10 -10
-3 -3 -4 -5 -6 -7 -7 -8 -9 -10 -11 -11 -11 -10 -10 -10 -10 -11 -10 -11 -13 -13 -13 -13 -13 -12 -11 -9 -8 -8 -7 -8 -8 -8 -8 -8 -8 -9 -9 -9 -9 -10 -10
-4 -5 -6 -6 -7 -8 -8 -9 -10 -11 -12 -12 -13 -13 -12 -11 -11 -12 -13 -15 -15 -15 -15 -15 -15 -14 -12 -11 -10 -9 -8 -8 -8 -8 -8 -8 -8 -9 -9 -9 -10 -10 -10
-5 -6 -7 -7 -8 -9 -9 -10 -11 -12 -13 -14 -14 -15 -12 -12 -14 -16 -16 -16 -16 -16 -16 -16 -16 -15 -14 -12 -12 -10 -9 -8 -8 -8 -8 -9 -9 -9 -9 -9 -10 -10 -11
-7 -7 -8 -8 -9 -9 -10 -11 -11 -12 -13 -14 -15 -15 -13 -13 -17 -17 -17 -17 -18 -18 -18 -17 -17 -15 -15 -14 -13 -11 -10 -10 -9 -9 -9 -9 -9 -9 -9 -10 -10 -10 -10
-8 -8 -9 -10 -10 -10 -11 -11 -12 -12 -13 -14 -15 -15 -14 -16 -18 -18 -18 -18 -19 -19 -19 -18 -18 -16 -15 -15 -14 -12 -12 -11 -11 -10 -10 -10 -9 -9 -9 -10 -10 -10 -11
-9 -10 -10 -11 -11 -11 -12 -12 -13 -13 -14 -14 -15 -16 -16 -18 -18 -19 -20 -20 -20 -19 -19 -18 -17 -15 -15 -15 -14 -13 -13 -12 -12 -11 -10 -10 -10 -10 -9 -10 -10 -11 -11
-10 -11 -12 -12 -12 -13 -13 -13 -14 -14 -15 -15 -16 -17 -18 -18 -19 -20 -20 -20 -19 -18 -18 -17 -16 -15 -15 -14 -14 -13 -13 -13 -12 -11 -10 -10 -10 -10 -10 -10 -11 -11 -11
-12 -12 -13 -13 -14 -14 -14 -15 -15 -15 -16 -16 -17 -17 -18 -18 -20 -21 -21 -20 -19 -18 -17 -17 -16 -16 -15 -15 -14 -13 -13 -13 -12 -11 -10 -10 -10 -10 -10 -10 -11 -11 -11
-13 -14 -14 -15 -15 -15 -16 -16 -16 -16 -17 -17 -17 -18 -18 -19 -20 -21 -20 -20 -20 -19 -18 -18 -17 -17 -16 -15 -14 -13 -13 -13 -12 -11 -10 -10 -10 -10 -10 -10 -10 -11 -11

GFSGL_850_temp_057.txt.gz
Temp
14 14 12 12 12 11 11 10 10 10 9 9 9 8 7 7 6 5 3 3 2 2 2 1 1 1 1 1 1 1 1 1 1 1 1 1 0 -0 -1 -2 -3 -4 -4
15 14 12 11 11 11 10 10 10 9 9 9 8 8 7 6 5 4 3 2 1 1 1 1 0 1 1 1 1 0 0 0 0 0 0 0 -0 -1 -1 -2 -3 -4 -4
14 13 11 11 10 11 10 10 9 9 9 8 8 7 6 4 3 2 1 2 1 1 0 0 0 0 0 0 0 1 1 1 0 0 -0 -0 -1 -1 -1 -2 -3 -4 -4
12 12 11 10 10 9 9 8 8 8 7 7 7 6 4 3 2 1 1 1 0 -0 -0 -0 -0 -0 0 0 0 0 0 0 0 -0 -1 -1 -2 -2 -2 -3 -3 -4 -4
11 9 10 9 9 8 8 8 8 7 7 6 5 4 2 2 2 2 1 1 -0 -1 -0 -0 0 0 0 -0 -0 -0 -0 -0 -0 -1 -1 -2 -2 -3 -3 -4 -4 -4 -4
9 9 9 8 8 7 7 6 6 6 5 4 3 2 2 2 1 1 -0 -0 -1 -1 -0 -0 0 0 0 0 -0 -1 -1 -2 -2 -2 -2 -2 -3 -3 -4 -4 -5 -5 -5
8 7 6 5 6 5 4 3 4 4 3 2 2 2 1 0 0 -0 -1 -1 -1 -2 -1 -1 -1 -0 -0 -0 -1 -1 -1 -2 -2 -3 -3 -3 -3 -4 -4 -5 -5 -5 -5
5 5 5 4 3 2 3 2 3 2 2 1 1 0 -0 -0 -1 -1 -1 -1 -2 -2 -2 -2 -1 -1 -1 -1 -2 -2 -2 -2 -3 -3 -3 -3 -4 -4 -5 -5 -6 -6 -7
4 4 3 2 3 2 1 1 1 1 0 0 -0 -0 -1 -1 -1 -2 -2 -2 -2 -3 -3 -3 -3 -3 -3 -3 -3 -3 -3 -3 -3 -3 -4 -4 -5 -5 -5 -6 -7 -7 -7
3 2 2 2 1 1 1 1 0 0 -0 -0 -1 -1 -2 -2 -3 -3 -2 -2 -2 -3 -4 -4 -4 -4 -4 -5 -5 -5 -5 -4 -4 -4 -5 -4 -5 -5 -6 -6 -8 -8 -8
2 1 1 1 1 0 -0 -0 -0 -0 -1 -2 -2 -2 -3 -4 -4 -3 -2 -3 -4 -4 -4 -5 -5 -7 -7 -7 -7 -6 -6 -5 -5 -5 -5 -5 -5 -6 -7 -7 -7 -7 -8
1 1 0 -0 -0 -0 -1 -1 -1 -2 -2 -3 -3 -3 -4 -5 -6 -6 -6 -6 -6 -7 -6 -6 -7 -7 -7 -7 -7 -7 -7 -6 -6 -6 -6 -5 -5 -6 -7 -7 -8 -8 -8
0 -0 -1 -1 -1 -1 -1 -2 -2 -3 -3 -4 -4 -5 -6 -7 -7 -8 -7 -6 -7 -8 -8 -7 -7 -7 -7 -7 -7 -7 -7 -7 -7 -6 -6 -6 -6 -6 -6 -7 -8 -8 -8
-0 -1 -2 -1 -2 -2 -2 -3 -4 -4 -4 -5 -6 -7 -7 -8 -9 -8 -7 -8 -9 -8 -8 -8 -8 -8 -8 -7 -7 -7 -7 -7 -7 -7 -6 -6 -6 -7 -7 -7 -8 -8 -9
-1 -2 -2 -1 -2 -3 -4 -3 -3 -3 -4 -4 -6 -6 -7 -8 -9 -9 -9 -9 -9 -9 -9 -10 -10 -9 -9 -8 -7 -7 -6 -6 -7 -7 -6 -7 -7 -7 -7 -7 -8 -8 -9
-2 -2 -1 -2 -2 -4 -5 -5 -4 -5 -5 -5 -6 -7 -8 -8 -9 -9 -9 -10 -10 -10 -10 -11 -11 -11 -11 -10 -9 -8 -7 -6 -7 -6 -7 -7 -7 -7 -7 -8 -8 -8 -9
-3 -2 -2 -3 -5 -5 -5 -6 -7 -7 -7 -7 -7 -8 -8 -9 -9 -10 -10 -10 -11 -12 -12 -12 -12 -12 -12 -12 -11 -11 -9 -8 -7 -7 -7 -7 -7 -7 -8 -8 -8 -8 -9
-2 -2 -4 -6 -6 -5 -7 -7 -8 -9 -10 -10 -11 -11 -10 -9 -10 -10 -10 -10 -12 -13 -13 -13 -13 -13 -14 -14 -13 -13 -11 -10 -8 -7 -8 -8 -8 -8 -8 -8 -8 -8 -9
-4 -5 -5 -5 -5 -6 -6 -7 -8 -10 -11 -11 -11 -12 -13 -11 -11 -12 -14 -14 -14 -14 -14 -14 -14 -15 -15 -15 -14 -14 -13 -11 -9 -8 -8 -8 -7 -8 -8 -8 -8 -8 -9
-5 -5 -6 -6 -7 -8 -8 -9 -11 -11 -12 -12 -12 -13 -14 -11 -11 -14 -14 -15 -15 -15 -16 -16 -16 -16 -16 -16 -16 -15 -13 -12 -10 -9 -8 -8 -8 -8 -8 -8 -8 -8 -9
-9 -6 -7 -8 -10 -10 -10 -11 -12 -13 -13 -13 -14 -14 -14 -13 -15 -15 -16 -16 -16 -17 -17 -17 -18 -18 -18 -17 -17 -16 -15 -13 -12 -11 -10 -9 -8 -8 -8 -8 -8 -9 -9
-7 -7 -8 -9 -10 -10 -10 -11 -13 -14 -14 -14 -15 -15 -16 -16 -16 -16 -17 -17 -18 -18 -18 -18 -19 -19 -19 -19 -18 -17 -16 -14 -14 -13 -12 -10 -10 -9 -9 -9 -9 -9 -9
-8 -8 -9 -10 -10 -11 -12 -14 -15 -15 -16 -16 -16 -16 -17 -17 -17 -18 -18 -19 -19 -19 -20 -20 -20 -20 -20 -19 -19 -18 -17 -15 -14 -14 -13 -12 -10 -10 -9 -9 -9 -9 -10
-9 -10 -11 -12 -13 -12 -15 -16 -16 -16 -17 -17 -17 -17 -18 -18 -18 -19 -19 -19 -20 -20 -21 -21 -20 -20 -20 -20 -18 -18 -16 -15 -14 -14 -13 -13 -11 -10 -10 -9 -9 -9 -10
-10 -11 -13 -14 -16 -16 -17 -17 -17 -18 -18 -18 -18 -18 -19 -19 -19 -20 -20 -21 -21 -21 -21 -19 -19 -20 -20 -18 -17 -16 -16 -15 -14 -14 -13 -13 -11 -10 -10 -9 -9 -10 -10
-12 -13 -14 -16 -17 -17 -18 -18 -18 -19 -19 -19 -19 -20 -20 -20 -20 -21 -21 -22 -22 -20 -19 -20 -19 -19 -18 -17 -17 -16 -15 -15 -14 -13 -13 -13 -11 -11 -10 -10 -10 -10 -10

GFSGL_850_temp_060.txt.gz
Temp
15 15 14 13 13 13 13 13 12 11 11 10 9 9 8 8 7 7 6 6 5 3 2 2 2 1 1 1 1 1 1 1 1 1 1 1 1 1 1 0 -0 -1 -2
16 15 14 13 13 14 13 10 10 10 9 9 8 8 8 7 6 6 5 4 3 2 2 2 2 1 1 1 1 1 1 1 1 1 1 0 0 0 0 -0 -1 -1 -2
15 15 13 15 13 11 10 11 10 9 9 8 8 7 7 6 5 5 3 2 2 2 2 1 1 0 0 0 0 1 0 0 0 0 0 0 0 0 -0 -1 -1 -2 -2
14 15 14 13 11 10 10 9 9 8 8 8 7 7 5 5 4 3 2 2 2 1 1 0 0 0 0 0 0 0 0 0 0 0 -0 -1 -0 -1 -1 -2 -2 -3 -3
14 14 11 11 9 9 8 8 8 7 7 7 6 6 4 3 2 2 2 1 1 0 -0 -1 -0 -0 -0 0 0 0 0 0 -0 -0 -1 -1 -1 -1 -2 -2 -3 -4 -4
12 11 10 9 8 8 8 6 6 6 5 5 5 4 3 2 1 1 1 0 -0 -1 -1 -1 -1 -0 -0 -0 -0 -0 -0 -0 -1 -1 -1 -2 -2 -2 -2 -2 -3 -4 -5
10 9 8 7 6 6 5 4 5 5 4 4 3 2 1 1 1 0 -0 -0 -0 -1 -1 -1 -2 -2 -2 -2 -2 -2 -2 -2 -2 -2 -2 -2 -2 -3 -2 -3 -4 -4 -5
7 6 5 5 4 3 3 3 3 3 2 2 1 1 1 -0 -0 -1 -1 -1 -1 -1 -1 -2 -2 -2 -2 -3 -3 -3 -3 -3 -3 -4 -4 -4 -3 -4 -3 -4 -4 -5 -5
5 5 4 4 4 3 2 2 2 1 1 1 0 -0 -0 -0 -1 -1 -1 -1 -1 -1 -1 -1 -2 -2 -3 -3 -4 -5 -4 -4 -5 -5 -5 -5 -4 -4 -4 -5 -5 -5 -5
4 4 4 3 2 2 2 1 1 1 0 0 -0 -1 -1 -2 -2 -1 -0 -1 -1 -1 -1 -2 -2 -3 -4 -5 -6 -7 -7 -7 -7 -7 -6 -5 -5 -5 -4 -5 -5 -6 -6
4 3 2 2 2 1 1 1 0 0 -0 -0 -0 -1 -1 -2 -1 -1 -1 -1 -2 -2 -3 -3 -4 -5 -5 -6 -7 -7 -7 -8 -8 -8 -7 -6 -6 -5 -5 -4 -5 -6 -6
3 3 2 1 1 1 1 -0 -0 -1 -1 -0 -0 -1 -2 -3 -4 -2 -1 -2 -4 -5 -5 -5 -6 -6 -6 -7 -7 -7 -7 -8 -8 -8 -8 -7 -7 -6 -5 -5 -5 -6 -6
2 1 1 1 0 -0 -0 -1 -1 -1 -2 -1 -2 -3 -5 -5 -6 -4 -3 -5 -5 -6 -6 -7 -7 -7 -7 -8 -9 -8 -8 -7 -7 -7 -7 -8 -7 -7 -6 -6 -6 -6 -7
1 1 0 -0 -0 -1 -1 -2 -2 -2 -2 -2 -3 -4 -4 -4 -5 -4 -5 -6 -6 -7 -7 -7 -8 -8 -10 -10 -9 -9 -9 -8 -7 -6 -6 -7 -7 -6 -6 -6 -7 -7 -7
0 -0 -1 -1 -1 -2 -2 -2 -1 -2 -2 -3 -3 -4 -4 -5 -5 -6 -7 -7 -8 -8 -8 -9 -10 -11 -11 -11 -10 -11 -10 -9 -8 -7 -7 -7 -7 -6 -6 -7 -7 -7 -7
-1 -1 -1 -1 -2 -3 -2 -3 -3 -3 -3 -4 -5 -5 -6 -6 -7 -7 -8 -8 -9 -9 -9 -11 -12 -12 -12 -12 -13 -13 -12 -11 -10 -9 -8 -7 -7 -7 -7 -7 -7 -7 -7
-2 -2 -2 -2 -2 -3 -4 -4 -5 -5 -6 -5 -5 -6 -6 -7 -7 -8 -9 -9 -10 -12 -13 -13 -13 -13 -13 -14 -14 -14 -14 -14 -12 -10 -9 -8 -8 -7 -7 -7 -7 -7 -8
-2 -3 -4 -4 -4 -4 -5 -6 -6 -7 -8 -8 -9 -9 -10 -10 -9 -10 -10 -11 -12 -13 -13 -14 -14 -14 -15 -15 -15 -15 -15 -15 -14 -12 -10 -9 -8 -8 -8 -8 -8 -8 -8
-4 -5 -5 -4 -4 -4 -5 -5 -6 -7 -9 -10 -10 -11 -11 -12 -11 -11 -13 -14 -14 -14 -15 -15 -15 -16 -16 -16 -17 -16 -16 -16 -15 -14 -12 -11 -9 -8 -8 -7 -8 -7 -8
-4 -4 -4 -4 -4 -5 -6 -7 -8 -9 -10 -11 -11 -12 -12 -11 -11 -12 -14 -15 -15 -15 -16 -16 -17 -17 -17 -18 -17 -17 -17 -17 -16 -14 -13 -12 -10 -10 -8 -8 -8 -8 -7
-5 -5 -5 -5 -6 -7 -8 -8 -9 -10 -10 -11 -12 -13 -13 -13 -13 -14 -15 -16 -16 -16 -17 -18 -18 -18 -18 -18 -18 -18 -18 -18 -16 -16 -15 -13 -12 -10 -9 -9 -8 -8 -8
-7 -6 -6 -7 -8 -8 -8 -9 -10 -11 -12 -13 -14 -14 -15 -15 -16 -16 -16 -17 -17 -18 -18 -18 -19 -19 -19 -19 -19 -19 -19 -19 -18 -17 -15 -14 -13 -12 -10 -10 -9 -8 -8
-8 -7 -8 -8 -9 -9 -10 -11 -12 -13 -14 -14 -15 -15 -16 -16 -16 -17 -18 -18 -18 -19 -19 -19 -19 -19 -19 -19 -19 -20 -20 -19 -18 -17 -16 -15 -14 -13 -12 -10 -10 -9 -9
-8 -9 -9 -10 -10 -11 -12 -14 -14 -15 -15 -16 -16 -17 -17 -17 -18 -18 -18 -19 -19 -19 -19 -19 -19 -19 -19 -19 -19 -19 -19 -18 -18 -18 -18 -15 -14 -13 -12 -11 -10 -9 -9
-10 -10 -10 -12 -13 -14 -15 -15 -16 -16 -17 -17 -17 -18 -18 -18 -19 -19 -19 -20 -20 -20 -19 -19 -18 -19 -18 -18 -18 -18 -18 -18 -17 -17 -16 -15 -14 -13 -13 -12 -10 -10 -9
-12 -13 -13 -14 -15 -16 -17 -17 -17 -17 -18 -18 -18 -19 -19 -20 -20 -20 -21 -20 -21 -20 -19 -19 -19 -19 -18 -18 -18 -18 -18 -17 -16 -15 -15 -14 -13 -13 -13 -12 -11 -10 -9

GFSGL_850_temp_063.txt.gz
Temp
14 14 14 14 14 14 14 11 12 12 12 13 11 10 9 8 9 8 7 6 6 6 5 4 3 2 2 2 1 1 1 1 1 1 1 1 1 1 1 0 1 0 0
15 14 14 14 13 13 11 10 13 11 11 10 9 9 8 9 9 8 6 6 6 4 3 3 2 1 1 1 0 0 1 1 1 1 1 1 1 0 0 0 -0 -0 -1
13 14 14 14 12 13 13 10 10 9 10 9 9 8 9 8 7 7 5 5 4 3 2 2 2 1 1 0 1 1 1 0 0 -0 0 0 -0 0 -0 -1 -1 -2 -3
11 16 15 14 14 12 11 10 10 9 8 8 8 8 8 7 6 5 4 3 3 2 2 1 1 -0 -0 0 0 -0 -0 -0 -0 -0 -0 -0 -0 -0 -1 -1 -1 -1 -2
16 16 14 13 11 11 10 9 9 9 8 8 8 7 6 5 4 4 3 2 2 1 1 -0 -1 -1 -1 -1 -1 -1 -1 -1 -1 -1 -1 -1 -1 -1 -2 -2 -2 -2 -2
15 14 13 11 10 10 9 9 8 8 7 7 6 5 5 4 4 3 2 1 1 0 -1 -1 -1 -1 -1 -1 -1 -1 -1 -2 -2 -2 -3 -3 -3 -4 -3 -3 -3 -3 -4
12 11 10 10 10 9 9 8 7 6 6 5 5 4 3 3 1 1 1 0 -0 -0 -1 -1 -1 -1 -1 -2 -2 -2 -2 -2 -3 -3 -4 -4 -5 -5 -5 -4 -4 -4 -4
9 9 9 9 8 7 6 5 5 5 5 4 3 1 1 0 0 0 -0 -0 -0 -1 -1 -1 -2 -2 -2 -2 -2 -2 -3 -3 -3 -4 -5 -6 -6 -6 -6 -5 -5 -5 -5
8 8 7 7 7 6 5 4 4 4 3 2 1 -0 0 0 -1 -1 -1 -1 -1 -1 -1 -1 -2 -2 -2 -3 -3 -3 -4 -4 -5 -6 -7 -7 -7 -7 -7 -6 -6 -5 -5
8 7 6 5 5 3 2 2 2 2 1 0 -0 -0 -1 -1 -0 -0 -1 -1 -1 -1 -2 -2 -2 -3 -4 -4 -5 -6 -6 -7 -7 -7 -6 -7 -6 -6 -6 -7 -6 -5 -5
7 6 4 4 3 2 2 2 1 1 0 -0 -0 -1 -1 -1 -1 -1 -1 -1 -1 -1 -1 -1 -2 -4 -5 -5 -6 -7 -8 -9 -9 -8 -7 -6 -6 -6 -8 -7 -7 -6 -6
5 4 4 3 2 2 2 1 1 0 0 0 -0 -1 -2 -2 -1 -1 -1 -2 -2 -2 -3 -4 -4 -5 -6 -7 -7 -7 -8 -9 -9 -8 -8 -7 -6 -7 -8 -8 -7 -6 -6
4 4 3 2 2 1 1 1 0 0 0 0 -1 -2 -2 -2 -3 -3 -2 -3 -4 -4 -5 -5 -6 -7 -7 -7 -8 -8 -9 -9 -10 -9 -8 -7 -7 -7 -7 -7 -8 -7 -6
3 2 1 1 1 1 0 -0 0 -0 -1 -1 -2 -2 -3 -3 -3 -3 -4 -4 -5 -5 -6 -6 -7 -8 -8 -9 -9 -9 -9 -10 -11 -11 -9 -8 -8 -8 -7 -6 -7 -6 -6
2 1 1 1 -0 -0 -1 -1 -1 -1 -2 -2 -2 -3 -3 -4 -4 -5 -5 -5 -6 -7 -7 -7 -8 -9 -10 -10 -10 -11 -11 -11 -11 -11 -10 -9 -8 -7 -7 -7 -6 -7 -7
1 0 -0 -0 -1 -1 -1 -2 -3 -3 -4 -3 -3 -3 -4 -5 -6 -6 -7 -7 -8 -8 -8 -9 -11 -12 -12 -12 -12 -12 -13 -13 -13 -12 -12 -11 -9 -9 -8 -7 -7 -7 -7
0 -1 -1 -2 -2 -3 -3 -3 -3 -4 -5 -5 -5 -5 -5 -6 -6 -7 -8 -8 -8 -9 -10 -12 -13 -13 -13 -14 -14 -15 -14 -14 -14 -14 -13 -12 -11 -10 -8 -8 -8 -7 -7
-1 -2 -2 -3 -4 -4 -4 -4 -4 -5 -5 -5 -6 -7 -7 -7 -7 -9 -9 -10 -10 -10 -11 -12 -13 -14 -14 -14 -15 -16 -16 -15 -15 -15 -14 -13 -13 -12 -11 -9 -8 -8 -8
-2 -3 -4 -4 -4 -4 -5 -5 -5 -6 -6 -7 -8 -10 -10 -10 -11 -11 -11 -11 -12 -13 -14 -14 -15 -15 -15 -16 -16 -17 -17 -17 -17 -16 -15 -14 -14 -13 -11 -11 -9 -8 -8
-4 -5 -5 -5 -4 -5 -6 -7 -6 -6 -8 -9 -10 -11 -11 -12 -12 -12 -12 -13 -14 -15 -15 -16 -16 -15 -16 -16 -17 -17 -17 -17 -17 -16 -16 -16 -14 -14 -13 -12 -11 -10 -8
-7 -7 -5 -7 -7 -7 -8 -8 -7 -8 -9 -10 -11 -12 -12 -13 -13 -14 -14 -15 -16 -16 -16 -16 -16 -17 -17 -17 -18 -18 -18 -18 -18 -17 -17 -16 -15 -14 -14 -13 -12 -10 -9
-7 -7 -7 -8 -9 -9 -10 -9 -9 -9 -11 -12 -12 -13 -13 -14 -15 -15 -16 -16 -17 -17 -17 -17 -18 -17 -18 -18 -19 -19 -19 -19 -18 -18 -17 -17 -16 -14 -14 -13 -12 -10 -9
-8 -9 -9 -10 -10 -11 -10 -10 -11 -12 -12 -13 -14 -14 -15 -15 -16 -17 -17 -17 -18 -18 -18 -18 -18 -18 -18 -18 -18 -19 -20 -19 -19 -19 -18 -17 -16 -15 -14 -13 -13 -11 -10
-10 -11 -11 -12 -12 -13 -12 -13 -13 -14 -14 -15 -15 -16 -16 -17 -17 -18 -18 -18 -19 -19 -19 -18 -19 -19 -19 -18 -19 -19 -19 -19 -19 -19 -19 -17 -16 -15 -14 -14 -13 -12 -11
-12 -12 -13 -14 -14 -14 -15 -15 -16 -16 -16 -17 -17 -17 -18 -18 -18 -19 -19 -20 -20 -19 -19 -19 -19 -19 -19 -19 -19 -19 -19 -18 -18 -18 -18 -17 -16 -15 -14 -13 -13 -12 -11
-14 -14 -15 -15 -16 -16 -16 -17 -17 -17 -18 -18 -18 -19 -19 -19 -20 -20 -20 -20 -20 -20 -19 -19 -19 -19 -19 -19 -19 -18 -19 -19 -18 -17 -17 -17 -16 -14 -14 -13 -13 -12 -11

GFSGL_850_temp_066.txt.gz
Temp
13 13 13 13 12 12 12 11 10 10 11 11 11 11 11 10 10 9 8 8 7 7 6 5 5 5 4 3 2 2 1 1 1 1 1 1 1 1 1 0 0 0 0
10 10 11 11 11 12 12 12 10 11 10 10 10 10 10 10 9 8 8 8 7 6 5 5 4 3 3 2 2 1 1 1 1 1 1 0 0 0 0 0 -0 -0 -0
12 12 11 11 11 12 11 11 11 12 11 10 9 10 9 9 8 8 7 7 6 5 4 4 3 2 2 1 0 -0 0 0 0 -0 -0 -0 -0 -0 -1 -1 -1 -1 -1
15 14 12 12 11 12 12 11 11 11 10 10 9 9 8 8 8 7 6 6 5 4 3 2 1 1 0 -1 -1 -1 -0 -0 -0 -1 -1 -1 -1 -1 -1 -2 -2 -2 -2
14 15 14 13 11 11 11 10 10 10 9 9 8 8 8 8 7 6 6 4 4 2 2 1 0 -0 -1 -1 -1 -1 -1 -1 -1 -1 -2 -2 -2 -2 -3 -4 -4 -4 -3
15 14 14 12 10 10 10 10 10 9 8 8 8 7 7 6 5 4 4 3 2 1 1 1 0 -0 -1 -1 -1 -1 -2 -2 -2 -2 -3 -3 -3 -4 -4 -6 -6 -6 -6
13 13 11 10 10 10 9 8 8 8 8 7 6 6 5 5 4 3 2 2 1 1 1 1 0 -0 -0 -1 -1 -1 -2 -2 -3 -3 -4 -4 -5 -5 -6 -6 -8 -8 -7
11 10 10 9 9 8 8 8 7 7 6 6 5 4 5 3 2 1 1 0 1 0 0 -0 -0 -1 -1 -1 -1 -1 -2 -2 -3 -3 -4 -5 -6 -6 -7 -7 -8 -8 -7
11 10 9 8 8 8 7 7 6 5 5 4 4 4 2 2 1 0 0 0 -0 -1 -1 -1 -1 -1 -2 -2 -2 -2 -3 -3 -4 -5 -5 -6 -6 -6 -7 -8 -8 -8 -8
10 10 9 8 8 7 6 6 5 4 4 3 2 1 1 1 -0 -1 -1 -1 -1 -1 -1 -2 -2 -2 -3 -3 -3 -4 -4 -4 -5 -5 -6 -6 -7 -6 -6 -8 -8 -8 -8
9 8 8 7 6 6 5 5 4 3 2 1 1 -0 -0 -1 -1 -1 -1 -1 -1 -1 -2 -2 -3 -4 -4 -4 -5 -5 -6 -6 -6 -6 -6 -7 -7 -8 -6 -7 -8 -8 -8
7 7 6 5 4 3 3 3 2 2 1 0 -0 -1 -1 -1 -1 -1 -1 -2 -2 -2 -3 -4 -4 -5 -5 -5 -6 -6 -6 -7 -7 -7 -7 -8 -8 -8 -7 -8 -8 -8 -8
6 5 5 4 3 2 2 2 1 1 1 0 -0 -1 -1 -1 -2 -3 -3 -3 -4 -4 -5 -5 -5 -6 -6 -7 -7 -7 -8 -8 -8 -8 -9 -9 -9 -8 -8 -7 -7 -7 -7
5 4 3 3 2 2 1 1 1 0 -0 -0 -1 -1 -2 -3 -3 -4 -4 -5 -5 -5 -6 -6 -6 -7 -7 -8 -8 -9 -9 -10 -10 -10 -10 -10 -10 -9 -8 -7 -7 -7 -7
4 3 2 2 1 1 0 -0 -0 -0 -1 -1 -2 -3 -3 -4 -4 -5 -5 -6 -6 -6 -7 -7 -8 -8 -8 -9 -9 -10 -10 -11 -11 -11 -11 -11 -10 -10 -9 -8 -7 -7 -7
3 2 1 1 0 0 -0 -1 -2 -2 -2 -3 -4 -4 -5 -5 -6 -6 -6 -7 -7 -7 -8 -8 -9 -9 -9 -10 -10 -11 -12 -13 -13 -13 -13 -12 -12 -11 -10 -9 -8 -8 -8
3 1 1 0 -0 -1 -1 -2 -2 -3 -4 -4 -5 -6 -6 -6 -6 -7 -7 -7 -8 -8 -9 -10 -10 -11 -11 -12 -12 -13 -14 -14 -14 -14 -14 -14 -13 -13 -12 -11 -10 -9 -8
1 0 -0 -1 -2 -3 -3 -3 -4 -5 -5 -5 -6 -7 -6 -7 -7 -8 -8 -9 -10 -10 -10 -11 -12 -12 -13 -13 -14 -15 -15 -14 -14 -15 -15 -15 -14 -14 -13 -12 -12 -11 -10
-0 -2 -3 -4 -5 -5 -5 -5 -6 -4 -7 -8 -9 -9 -9 -9 -9 -9 -10 -11 -12 -12 -12 -13 -13 -14 -14 -14 -15 -15 -15 -15 -16 -16 -16 -15 -15 -15 -14 -14 -13 -12 -11
-5 -5 -5 -6 -7 -6 -7 -7 -8 -8 -8 -9 -10 -11 -11 -11 -11 -12 -12 -13 -13 -14 -14 -15 -15 -15 -15 -16 -16 -16 -16 -16 -16 -17 -17 -16 -16 -16 -15 -14 -14 -13 -12
-5 -6 -7 -7 -6 -8 -8 -8 -9 -10 -10 -11 -11 -11 -12 -12 -13 -13 -14 -14 -15 -15 -15 -16 -16 -16 -17 -17 -17 -17 -17 -17 -17 -17 -17 -17 -17 -16 -16 -15 -14 -14 -13
-7 -7 -8 -8 -8 -9 -9 -10 -10 -11 -12 -12 -13 -13 -13 -14 -14 -15 -15 -16 -16 -17 -17 -17 -18 -18 -18 -18 -18 -18 -18 -18 -18 -18 -18 -18 -18 -17 -16 -16 -15 -14 -13
-8 -8 -9 -9 -10 -11 -11 -12 -12 -13 -13 -14 -14 -14 -14 -15 -16 -16 -17 -17 -17 -18 -18 -19 -19 -19 -18 -18 -18 -18 -19 -19 -19 -19 -19 -18 -18 -17 -17 -16 -15 -14 -14
-10 -10 -11 -11 -12 -13 -13 -14 -14 -15 -15 -15 -16 -16 -16 -17 -17 -17 -18 -18 -19 -19 -19 -20 -20 -19 -19 -18 -18 -19 -19 -19 -19 -19 -19 -19 -18 -17 -16 -16 -15 -15 -14
-11 -12 -13 -14 -14 -15 -15 -16 -16 -16 -17 -17 -17 -17 -18 -18 -18 -19 -19 -20 -20 -21 -21 -21 -20 -19 -19 -19 -19 -19 -19 -19 -19 -19 -19 -19 -18 -17 -16 -16 -15 -14 -14
-14 -14 -15 -15 -16 -16 -17 -17 -17 -18 -18 -18 -19 -19 -19 -20 -20 -21 -21 -21 -22 -22 -21 -20 -20 -20 -20 -19 -19 -19 -19 -19 -19 -19 -19 -18 -18 -17 -16 -15 -15 -14 -14

GFSGL_850_temp_069.txt.gz
Temp
12 11 11 10 11 11 11 11 11 10 10 10 10 10 9 10 11 10 10 9 9 8 8 8 6 6 5 5 4 4 3 2 1 1 1 1 1 1 0 0 0 0 0
13 12 12 12 12 12 11 11 11 11 11 10 8 8 8 9 9 9 9 9 8 8 8 6 6 5 5 4 3 3 2 1 1 0 0 1 0 0 -0 -0 0 -0 -0
13 12 12 13 14 14 12 11 11 11 11 12 11 9 9 9 9 9 9 9 8 7 7 6 5 4 3 3 3 2 1 1 0 -0 -0 0 -0 -0 -0 -0 -1 -1 -1
13 12 13 13 12 12 11 10 11 10 10 10 10 10 10 9 9 9 9 8 8 7 6 5 4 3 3 2 2 1 1 1 -0 -0 -0 -1 -1 -0 -1 -2 -2 -2 -2
12 12 12 12 12 11 11 11 11 10 10 9 10 9 9 9 9 9 8 7 7 5 4 4 3 2 2 2 1 0 0 -0 -0 -1 -1 -1 -1 -1 -2 -3 -3 -3 -3
13 12 12 12 11 11 11 11 12 12 11 9 9 9 9 8 8 8 7 6 5 4 4 2 2 1 1 1 -0 -0 -0 -0 -1 -1 -1 -2 -2 -2 -3 -5 -5 -5 -6
13 13 12 12 11 11 11 10 10 9 10 9 8 8 8 8 7 7 6 5 4 3 2 1 1 1 -0 -0 -0 -0 -1 -1 -2 -2 -2 -2 -3 -4 -5 -6 -6 -7 -8
14 13 12 11 11 11 11 10 10 9 9 9 8 8 7 7 6 5 4 3 2 1 1 1 0 -1 -1 -1 -1 -1 -2 -2 -2 -3 -3 -4 -4 -5 -6 -7 -7 -7 -7
15 14 13 11 10 10 10 10 9 9 8 8 7 6 6 5 4 3 2 2 1 1 -0 -0 -1 -1 -1 -1 -1 -2 -1 -2 -3 -3 -3 -4 -5 -5 -6 -7 -8 -9 -8
14 13 10 10 10 9 9 9 8 8 7 6 6 5 4 3 2 1 1 0 -0 -0 -1 -1 -1 -2 -2 -3 -2 -2 -3 -3 -4 -4 -4 -5 -6 -6 -7 -8 -7 -8 -8
12 10 10 10 9 9 8 8 7 6 5 4 4 2 1 1 -0 -1 -1 -1 -1 -2 -2 -2 -3 -3 -3 -3 -3 -4 -5 -6 -6 -6 -6 -6 -7 -7 -7 -8 -9 -8 -8
10 9 9 9 8 7 7 6 5 4 3 2 1 0 -1 -1 -2 -2 -2 -2 -3 -3 -3 -4 -4 -4 -4 -5 -6 -6 -6 -6 -7 -7 -7 -7 -7 -7 -7 -8 -8 -8 -9
9 8 8 7 6 6 5 4 3 2 2 1 -0 -1 -2 -2 -2 -3 -3 -3 -4 -4 -4 -4 -5 -5 -6 -7 -8 -7 -7 -8 -8 -7 -7 -8 -8 -8 -9 -8 -8 -8 -7
7 7 6 5 4 3 2 2 2 1 0 0 -1 -1 -2 -2 -3 -4 -4 -5 -5 -5 -6 -6 -6 -7 -8 -8 -8 -8 -8 -8 -8 -9 -9 -9 -9 -9 -9 -9 -9 -8 -7
5 5 4 3 3 2 1 1 0 0 0 0 -1 -1 -2 -3 -4 -4 -5 -5 -5 -6 -7 -7 -8 -8 -9 -9 -9 -9 -9 -9 -9 -10 -10 -10 -10 -10 -10 -10 -10 -9 -9
4 3 3 2 2 1 1 0 -1 -2 -2 -3 -3 -3 -4 -5 -5 -5 -6 -6 -7 -7 -8 -8 -9 -10 -10 -10 -10 -10 -10 -11 -11 -11 -12 -12 -12 -12 -11 -11 -12 -11 -10
4 3 2 2 1 1 -0 -1 -2 -4 -4 -4 -4 -5 -5 -5 -6 -7 -7 -7 -8 -9 -10 -10 -11 -11 -11 -12 -12 -12 -12 -13 -13 -13 -13 -14 -13 -13 -13 -13 -13 -12 -11
3 3 2 0 -0 -1 -2 -4 -5 -5 -5 -5 -5 -5 -6 -7 -7 -8 -9 -10 -10 -11 -11 -12 -12 -13 -13 -14 -14 -14 -14 -14 -14 -14 -15 -15 -15 -15 -14 -14 -14 -13 -12
1 -0 -2 -4 -5 -6 -6 -6 -6 -6 -7 -7 -8 -8 -8 -8 -10 -10 -11 -11 -12 -12 -13 -13 -14 -14 -14 -14 -14 -15 -15 -15 -15 -15 -16 -16 -16 -16 -16 -16 -15 -14 -14
-4 -5 -5 -4 -5 -5 -6 -6 -7 -7 -8 -8 -8 -9 -10 -10 -11 -12 -12 -12 -13 -14 -14 -15 -15 -15 -16 -16 -16 -16 -16 -16 -16 -16 -16 -17 -17 -17 -17 -16 -16 -15 -14
-4 -5 -5 -6 -7 -7 -7 -8 -8 -9 -9 -10 -11 -11 -12 -12 -12 -13 -13 -14 -14 -15 -15 -16 -16 -17 -17 -17 -17 -17 -17 -17 -17 -17 -17 -17 -18 -18 -17 -17 -16 -16 -15
-6 -6 -7 -7 -8 -9 -9 -10 -10 -11 -11 -12 -12 -13 -13 -13 -14 -14 -15 -16 -16 -16 -17 -17 -18 -18 -18 -18 -18 -18 -17 -17 -18 -18 -18 -18 -18 -18 -18 -17 -17 -16 -15
-8 -8 -9 -9 -10 -11 -11 -11 -12 -13 -13 -14 -14 -14 -15 -15 -16 -16 -17 -17 -18 -18 -18 -19 -19 -19 -19 -19 -19 -19 -18 -18 -19 -19 -19 -19 -19 -18 -18 -18 -17 -16 -16
-10 -10 -11 -11 -12 -12 -13 -13 -14 -15 -15 -16 -16 -16 -17 -17 -17 -18 -18 -19 -19 -19 -20 -20 -20 -21 -20 -20 -20 -19 -19 -19 -19 -19 -20 -20 -19 -19 -18 -18 -17 -16 -16
-11 -12 -12 -13 -13 -14 -15 -15 -16 -16 -17 -17 -17 -18 -18 -19 -19 -19 -20 -20 -21 -21 -22 -22 -22 -22 -21 -21 -20 -20 -20 -20 -20 -20 -20 -20 -20 -19 -18 -18 -17 -16 -16
-13 -14 -14 -15 -15 -16 -17 -17 -18 -18 -18 -19 -19 -20 -20 -20 -21 -21 -21 -22 -22 -22 -23 -23 -23 -22 -21 -21 -20 -20 -20 -20 -20 -20 -20 -20 -19 -19 -18 -18 -17 -16 -15

GFSGL_850_temp_072.txt.gz
Temp
13 12 12 11 11 11 11 11 11 11 11 11 11 10 10 10 10 11 10 9 9 9 9 9 8 7 7 6 5 5 5 4 4 3 3 3 3 2 1 1 1 0 0
14 14 14 14 14 14 13 13 13 12 11 11 11 10 10 9 8 10 10 9 9 9 9 9 8 8 7 6 5 5 4 3 3 3 2 1 0 0 0 1 1 1 1
14 14 14 14 14 15 13 12 11 11 11 11 11 11 10 10 9 9 9 8 9 9 8 8 8 7 6 6 5 4 3 3 2 1 1 0 0 1 1 1 1 1 1
14 14 14 14 14 14 13 12 11 11 11 11 12 11 10 10 11 10 9 8 8 8 8 7 7 6 6 5 4 3 2 2 1 0 -0 -0 0 1 0 0 1 1 1
14 13 14 15 14 13 13 12 11 10 10 10 11 10 9 9 9 9 9 8 8 8 7 6 6 5 5 3 2 2 1 1 0 0 -0 -0 0 0 0 -0 -1 -1 -1
15 15 14 13 13 13 13 12 12 12 11 10 11 10 9 9 9 9 9 8 8 7 7 5 5 4 3 2 2 1 -0 -0 -0 -1 -0 0 0 -1 -1 -2 -2 -2 -2
17 16 14 13 13 12 12 12 11 11 10 9 9 9 9 8 9 9 8 7 7 6 5 5 4 3 1 1 1 -0 -1 -1 -1 -1 -0 -1 -1 -2 -3 -2 -3 -4 -4
17 15 15 14 13 12 11 11 10 9 9 9 9 8 8 8 8 8 8 7 6 5 4 3 2 1 1 -0 -1 -1 -1 -1 -1 -1 -1 -2 -3 -3 -4 -4 -5 -6 -6
17 16 15 15 14 13 11 10 10 9 9 8 8 8 8 8 8 7 6 5 4 3 2 1 1 -0 -1 -1 -1 -2 -2 -2 -2 -2 -3 -3 -3 -4 -5 -6 -6 -7 -6
17 16 15 14 12 9 9 9 9 8 8 8 8 7 6 6 5 4 4 3 2 2 1 0 -1 -1 -2 -1 -2 -2 -2 -2 -3 -3 -4 -4 -5 -5 -6 -7 -7 -8 -8
15 13 11 10 10 9 9 9 8 8 8 7 6 5 4 4 3 2 1 1 1 0 -1 -1 -2 -2 -3 -3 -2 -3 -3 -3 -4 -4 -4 -5 -5 -6 -6 -7 -7 -8 -9
10 10 10 9 9 9 9 8 8 6 6 5 4 4 3 2 1 1 0 -0 -1 -2 -2 -3 -3 -3 -3 -3 -3 -4 -5 -5 -5 -6 -6 -6 -7 -7 -7 -7 -8 -8 -9
10 9 10 9 9 8 7 7 6 5 5 4 4 3 2 1 0 -1 -2 -2 -3 -3 -3 -3 -4 -4 -4 -5 -5 -6 -6 -7 -7 -7 -7 -8 -8 -8 -8 -9 -9 -9 -9
9 9 8 8 7 7 6 5 5 4 4 3 3 1 1 -0 -1 -2 -3 -3 -3 -4 -4 -4 -5 -5 -6 -6 -7 -8 -8 -8 -8 -9 -9 -9 -9 -9 -10 -10 -9 -9 -9
8 7 7 6 5 4 3 3 3 2 2 2 2 1 -0 -1 -2 -4 -4 -4 -4 -4 -5 -6 -6 -7 -8 -8 -9 -9 -9 -9 -10 -10 -10 -10 -10 -10 -10 -10 -10 -11 -11
7 6 6 4 3 3 2 2 1 1 1 0 -0 -1 -1 -4 -5 -5 -5 -5 -5 -6 -7 -7 -8 -8 -9 -10 -10 -10 -10 -11 -11 -11 -11 -11 -12 -12 -11 -11 -12 -12 -12
6 5 4 3 3 2 2 1 1 -1 -2 -3 -4 -4 -5 -5 -5 -6 -7 -7 -8 -8 -9 -10 -10 -10 -11 -11 -12 -12 -12 -13 -13 -13 -13 -13 -13 -13 -13 -13 -13 -14 -13
4 3 3 3 2 1 -0 -2 -3 -3 -4 -4 -5 -5 -6 -7 -8 -8 -8 -9 -9 -10 -11 -12 -12 -12 -13 -14 -14 -14 -15 -15 -15 -15 -14 -15 -15 -15 -15 -15 -15 -15 -14
1 0 -0 -2 -3 -4 -5 -5 -4 -5 -5 -6 -7 -8 -8 -9 -9 -10 -11 -11 -12 -12 -12 -13 -13 -14 -14 -15 -15 -16 -16 -16 -16 -16 -16 -16 -16 -16 -16 -16 -16 -16 -16
-3 -4 -4 -4 -5 -5 -5 -6 -6 -7 -8 -8 -9 -9 -10 -10 -11 -11 -12 -12 -13 -13 -14 -15 -15 -16 -16 -16 -17 -17 -17 -17 -17 -17 -17 -17 -17 -17 -17 -17 -17 -17 -16
-5 -5 -5 -5 -6 -6 -7 -8 -8 -9 -9 -10 -10 -11 -12 -12 -12 -13 -13 -14 -14 -15 -16 -16 -17 -17 -17 -18 -18 -19 -19 -19 -19 -18 -18 -18 -18 -18 -18 -18 -18 -18 -17
-6 -6 -7 -7 -8 -9 -9 -9 -10 -10 -11 -11 -12 -13 -13 -13 -14 -14 -15 -16 -16 -17 -17 -18 -18 -18 -19 -19 -20 -20 -20 -20 -19 -19 -19 -19 -19 -19 -19 -18 -18 -18 -18
-8 -8 -9 -9 -10 -10 -10 -11 -12 -12 -13 -13 -14 -14 -15 -15 -16 -16 -17 -17 -18 -18 -19 -19 -19 -20 -20 -21 -21 -21 -21 -21 -20 -20 -20 -20 -19 -19 -19 -19 -19 -18 -18
-9 -9 -10 -10 -11 -11 -12 -13 -14 -14 -15 -15 -16 -16 -17 -17 -18 -18 -19 -19 -19 -20 -20 -21 -21 -21 -22 -22 -22 -22 -22 -21 -21 -21 -21 -20 -20 -20 -20 -19 -19 -19 -18
-11 -11 -12 -12 -13 -14 -15 -15 -16 -16 -17 -17 -18 -18 -19 -19 -19 -20 -20 -21 -21 -22 -22 -22 -22 -22 -22 -22 -22 -22 -22 -21 -21 -21 -21 -21 -20 -20 -20 -20 -19 -19 -18
-13 -13 -14 -15 -15 -16 -16 -17 -17 -18 -18 -18 -19 -19 -20 -20 -21 -21 -22 -22 -22 -22 -22 -22 -22 -22 -22 -22 -22 -22 -22 -21 -21 -21 -21 -21 -21 -20 -20 -20 -19 -19 -18

GFSGL_850_temp_075.txt.gz
Temp
14 13 13 12 11 11 11 11 10 10 10 11 11 10 10 10 10 10 10 10 10 9 10 10 9 9 8 8 7 7 6 5 5 4 5 4 4 4 2 2 1 1 1
15 15 14 13 13 13 14 14 13 12 12 11 11 11 11 11 11 10 10 9 9 8 9 10 9 8 8 7 7 7 6 5 5 4 4 3 2 3 2 2 2 1 1
14 14 14 14 13 13 13 13 13 13 13 12 12 12 12 11 10 10 10 9 8 8 9 9 8 8 8 7 6 6 5 5 4 3 2 2 2 2 1 1 1 1 2
14 14 14 14 14 14 14 13 12 13 13 12 12 11 11 10 10 10 10 9 9 9 9 8 8 8 8 7 6 6 5 4 3 2 1 0 0 1 0 1 1 1 1
15 14 14 14 13 13 13 13 13 12 12 12 12 11 11 10 9 10 10 9 9 9 9 9 8 7 6 6 6 5 4 3 2 1 1 -0 0 -0 -0 -0 -0 -0 0
15 16 14 14 13 13 13 13 13 12 11 11 10 11 10 10 10 10 9 9 9 9 9 8 7 6 6 5 5 4 2 2 0 -0 -0 -0 -0 -0 -1 -1 -1 -1 -2
18 16 15 14 13 13 13 12 12 11 11 10 10 9 10 10 10 9 9 8 8 8 7 7 7 6 4 4 3 2 1 1 -1 -0 -1 -1 -1 -1 -2 -2 -2 -2 -2
18 17 16 15 13 12 12 12 11 11 10 10 10 9 10 9 9 9 9 8 8 7 6 5 5 4 3 3 1 1 -0 -1 -1 -1 -1 -2 -2 -2 -3 -3 -3 -3 -2
19 18 17 15 13 12 12 11 10 9 9 9 9 9 9 8 8 8 8 7 6 6 4 4 3 2 1 1 -0 -2 -2 -2 -2 -2 -2 -2 -3 -3 -3 -3 -3 -4 -5
19 17 16 15 14 13 12 9 9 9 9 8 8 8 8 8 8 8 7 6 5 4 3 2 1 0 -0 -1 -2 -2 -2 -2 -3 -3 -4 -4 -4 -4 -4 -4 -4 -5 -6
17 16 14 12 11 9 9 9 9 9 8 8 8 7 7 7 6 4 4 4 4 3 2 1 -1 -1 -2 -2 -2 -3 -3 -3 -4 -4 -5 -5 -5 -5 -5 -5 -6 -6 -7
13 12 11 9 9 9 9 9 8 8 8 7 7 6 5 4 3 1 1 1 1 1 -0 -1 -2 -3 -2 -2 -3 -3 -4 -4 -5 -5 -5 -5 -5 -5 -5 -6 -6 -7 -7
12 11 9 9 9 9 9 8 8 7 7 6 4 3 2 1 0 -0 -0 -1 -2 -2 -3 -3 -3 -3 -4 -4 -4 -5 -6 -6 -6 -6 -7 -7 -7 -7 -7 -7 -7 -7 -7
9 9 9 9 9 8 7 6 6 5 5 4 3 2 1 -0 -0 -1 -2 -2 -3 -3 -4 -4 -4 -5 -5 -6 -7 -7 -7 -8 -8 -8 -8 -8 -8 -8 -8 -9 -9 -9 -8
8 8 8 8 7 7 6 5 4 3 2 3 2 1 1 -1 -2 -3 -3 -4 -5 -6 -6 -6 -5 -6 -7 -7 -7 -8 -8 -9 -9 -10 -10 -10 -10 -10 -11 -10 -10 -11 -11
7 7 6 6 5 4 4 3 1 1 1 0 0 -0 -1 -2 -2 -4 -4 -5 -5 -6 -7 -8 -8 -8 -8 -9 -9 -10 -10 -11 -11 -12 -12 -12 -13 -13 -13 -12 -12 -13 -13
6 6 5 4 3 2 1 1 1 -1 -1 -2 -3 -3 -4 -5 -5 -5 -6 -6 -6 -8 -9 -8 -8 -9 -10 -11 -12 -12 -13 -13 -13 -13 -14 -14 -14 -15 -14 -14 -15 -16 -16
5 5 3 3 2 1 -1 -2 -3 -3 -4 -5 -5 -5 -5 -5 -6 -6 -7 -8 -8 -9 -9 -10 -11 -11 -12 -13 -13 -14 -14 -15 -15 -15 -16 -16 -16 -16 -16 -17 -18 -18 -18
3 1 -1 -2 -2 -3 -4 -4 -4 -4 -5 -5 -6 -7 -7 -8 -8 -8 -9 -10 -10 -11 -12 -12 -13 -13 -14 -14 -15 -15 -16 -16 -16 -17 -17 -17 -18 -18 -18 -19 -19 -19 -18
-3 -4 -3 -4 -5 -5 -5 -5 -6 -6 -7 -7 -8 -8 -9 -9 -10 -11 -11 -12 -12 -13 -13 -14 -15 -15 -16 -16 -17 -17 -17 -18 -18 -19 -20 -20 -20 -20 -20 -20 -21 -20 -20
-5 -5 -5 -5 -5 -6 -6 -7 -7 -8 -8 -9 -9 -10 -11 -11 -12 -12 -13 -13 -14 -15 -15 -16 -16 -17 -17 -18 -18 -19 -20 -20 -20 -20 -21 -21 -21 -20 -20 -21 -21 -21 -20
-6 -6 -7 -7 -7 -8 -8 -8 -9 -9 -10 -11 -12 -12 -13 -13 -13 -14 -15 -15 -16 -16 -17 -17 -18 -18 -19 -19 -20 -20 -21 -21 -21 -21 -22 -21 -21 -22 -22 -22 -22 -21 -21
-7 -8 -8 -8 -9 -9 -10 -10 -11 -12 -12 -13 -14 -14 -14 -15 -15 -16 -16 -17 -18 -18 -18 -19 -19 -20 -20 -21 -21 -21 -22 -22 -22 -22 -22 -22 -23 -23 -23 -22 -22 -22 -21
-9 -9 -10 -10 -11 -11 -12 -12 -13 -14 -14 -15 -15 -16 -16 -17 -17 -18 -18 -19 -19 -19 -20 -20 -20 -21 -21 -21 -21 -22 -22 -22 -22 -22 -23 -23 -22 -22 -22 -23 -22 -22 -21
-11 -11 -12 -12 -13 -13 -14 -15 -15 -16 -16 -17 -17 -17 -18 -18 -18 -19 -19 -19 -20 -20 -20 -21 -21 -21 -21 -21 -22 -22 -22 -22 -22 -22 -23 -22 -22 -21 -21 -21 -21 -21 -21
-12 -13 -14 -14 -15 -15 -16 -16 -17 -17 -17 -18 -18 -18 -19 -19 -19 -19 -20 -20 -20 -20 -20 -20 -21 -21 -21 -21 -22 -22 -22 -22 -22 -22 -22 -22 -21 -21 -21 -21 -21 -21 -20

GFSGL_850_temp_078.txt.gz
Temp
10 9 9 9 9 8 8 8 8 8 8 8 8 8 9 9 8 8 9 9 9 10 10 10 10 10 9 8 9 8 8 7 7 6 5 4 5 5 4 4 2 2 1
12 11 11 10 9 9 10 10 10 10 9 8 9 9 9 9 9 9 9 10 10 10 10 10 8 8 9 8 8 8 8 7 6 6 6 5 5 3 4 2 1 1 2
10 11 11 11 10 10 11 9 8 8 8 8 9 9 9 9 9 9 10 11 10 10 10 9 8 8 9 8 8 8 7 6 6 5 6 5 4 3 3 2 1 1 2
12 12 11 13 14 13 12 10 9 8 8 8 8 8 9 9 8 10 10 9 10 10 10 10 8 8 8 8 8 8 7 6 6 5 4 4 3 2 1 1 -0 0 2
12 12 14 13 12 11 11 12 12 10 9 9 9 9 9 9 10 11 11 10 10 10 10 10 9 8 8 8 8 7 7 5 5 4 3 2 1 0 -0 -1 -1 -1 0
14 14 12 12 13 13 12 11 10 10 10 9 9 10 11 11 12 12 11 10 11 9 9 9 9 8 8 7 7 6 6 5 4 3 2 1 -0 -2 -1 -1 -3 -3 -3
17 15 13 12 13 12 11 10 10 9 9 9 9 10 10 10 12 12 11 9 10 9 9 9 9 8 7 6 5 5 4 3 2 1 1 -1 -0 -2 -1 -2 -3 -4 -4
16 16 15 13 13 11 11 10 10 9 9 8 8 8 8 9 11 10 10 9 9 9 9 8 8 7 6 5 4 2 2 1 0 -0 -1 -1 -1 -1 -1 -2 -4 -4 -5
19 16 16 15 13 12 11 10 9 8 8 8 8 8 9 9 9 9 9 8 8 8 8 7 6 5 4 2 3 1 0 -0 -1 -2 -1 -1 -1 -2 -2 -3 -4 -6 -6
19 17 12 12 12 11 9 9 9 10 9 9 9 9 9 9 9 9 9 8 8 7 6 5 3 2 2 1 0 -1 -1 -1 -1 -1 -2 -2 -2 -2 -3 -3 -5 -5 -7
13 13 12 11 11 11 11 11 10 10 9 9 9 8 8 8 8 8 8 7 6 5 3 2 1 0 -0 -1 -2 -3 -2 -2 -2 -3 -3 -4 -4 -4 -4 -4 -5 -6 -8
11 12 13 13 13 12 9 9 9 9 9 9 8 8 7 6 6 5 3 2 2 3 2 0 -1 -2 -2 -4 -3 -3 -3 -4 -4 -4 -5 -5 -5 -5 -6 -6 -6 -7 -7
9 9 10 10 9 9 9 9 8 8 7 7 7 6 5 4 2 1 0 0 0 -0 -1 -1 -3 -4 -5 -4 -4 -4 -4 -4 -5 -5 -6 -7 -7 -7 -7 -7 -7 -7 -8
8 8 8 8 8 8 8 8 7 7 7 6 6 4 3 1 -0 -1 -1 -2 -2 -2 -3 -4 -6 -6 -5 -5 -5 -5 -6 -7 -7 -8 -8 -9 -9 -9 -9 -10 -9 -9 -10
8 8 8 8 8 8 7 6 5 4 4 5 4 2 1 -1 -1 -2 -2 -2 -3 -4 -5 -7 -8 -8 -8 -8 -8 -9 -9 -9 -10 -10 -10 -11 -12 -13 -13 -13 -14 -13 -13
7 7 6 6 6 5 4 4 2 1 1 1 1 0 -1 -1 -2 -3 -3 -4 -5 -5 -5 -7 -9 -9 -10 -10 -11 -12 -12 -12 -13 -13 -14 -14 -14 -15 -15 -15 -15 -15 -14
5 5 4 4 3 2 2 1 1 -2 -2 -2 -3 -3 -3 -4 -5 -5 -5 -5 -6 -7 -8 -9 -10 -11 -11 -12 -12 -13 -13 -14 -14 -15 -15 -16 -16 -16 -16 -16 -16 -15 -15
3 3 3 2 1 1 -1 -2 -3 -3 -4 -5 -6 -5 -5 -6 -6 -7 -7 -8 -9 -10 -11 -11 -12 -12 -13 -13 -14 -14 -15 -15 -16 -16 -16 -17 -17 -17 -17 -17 -16 -16 -16
1 -0 -1 -1 -2 -3 -4 -4 -4 -5 -6 -7 -8 -8 -8 -8 -8 -9 -11 -11 -11 -12 -12 -13 -13 -14 -14 -15 -15 -16 -17 -17 -17 -18 -18 -18 -18 -18 -18 -18 -17 -18 -18
-3 -4 -3 -4 -5 -6 -6 -7 -7 -7 -8 -9 -9 -10 -11 -11 -11 -12 -12 -13 -13 -13 -14 -14 -15 -15 -16 -17 -17 -18 -18 -18 -18 -18 -19 -19 -19 -19 -19 -19 -19 -18 -18
-5 -5 -6 -6 -6 -7 -7 -7 -8 -9 -9 -10 -10 -11 -12 -12 -13 -14 -14 -14 -15 -15 -15 -16 -17 -17 -18 -18 -19 -19 -19 -20 -20 -20 -20 -20 -20 -20 -20 -20 -20 -19 -19
-6 -6 -6 -7 -7 -7 -8 -8 -9 -10 -11 -11 -12 -12 -13 -13 -14 -15 -15 -14 -15 -16 -16 -17 -18 -19 -20 -20 -20 -21 -21 -21 -21 -22 -22 -22 -22 -21 -21 -21 -20 -20 -20
-8 -8 -8 -8 -9 -9 -10 -10 -11 -12 -13 -14 -15 -15 -15 -15 -17 -17 -17 -17 -17 -17 -17 -18 -19 -19 -20 -21 -21 -22 -23 -23 -23 -23 -24 -23 -23 -22 -22 -22 -21 -21 -20
-9 -9 -10 -10 -11 -11 -12 -13 -14 -14 -16 -16 -17 -18 -18 -18 -18 -18 -17 -17 -18 -18 -18 -18 -19 -19 -19 -19 -20 -22 -23 -23 -22 -23 -24 -24 -24 -23 -23 -22 -22 -21 -21
-10 -11 -11 -12 -12 -14 -14 -15 -16 -16 -17 -18 -19 -19 -19 -20 -20 -20 -19 -19 -18 -19 -19 -19 -19 -19 -20 -20 -20 -20 -21 -21 -21 -21 -22 -22 -23 -24 -24 -23 -23 -22 -21
-13 -13 -13 -14 -14 -15 -16 -16 -17 -17 -18 -18 -20 -20 -20 -20 -19 -19 -19 -19 -19 -19 -19 -19 -19 -20 -20 -20 -20 -20 -20 -21 -21 -21 -21 -21 -22 -23 -23 -23 -22 -22 -22

GFSGL_850_temp_081.txt.gz
Temp
12 10 10 9 9 9 9 10 10 9 9 8 8 9 10 10 10 10 10 9 9 10 9 9 9 9 9 8 9 9 9 8 7 8 7 6 7 6 4 6 4 4 3
13 12 11 10 10 9 9 10 10 10 9 9 9 10 10 10 9 9 9 9 9 9 9 9 10 10 9 10 10 9 9 9 8 7 7 6 6 5 5 5 4 3 2
13 12 11 11 10 10 10 10 10 10 9 9 9 9 9 9 9 9 9 9 9 9 9 9 9 10 9 10 9 7 7 8 8 7 7 6 6 5 6 4 3 3 2
13 12 11 11 10 10 10 10 10 9 9 9 9 9 9 9 9 9 9 9 9 9 9 9 9 8 10 10 9 7 8 7 7 7 6 6 5 5 4 3 2 1 1
13 13 12 11 11 10 10 10 10 10 10 10 9 9 9 9 9 9 9 9 9 9 9 8 10 10 9 10 10 9 8 8 7 6 6 6 5 5 4 3 1 1 0
13 12 12 12 11 10 10 10 10 10 9 9 9 9 9 9 9 9 9 9 9 9 9 9 10 9 9 9 9 8 8 8 7 6 5 4 5 4 3 1 1 -0 -1
13 13 12 12 11 11 10 10 10 10 9 9 9 9 9 9 9 9 10 9 8 8 9 9 9 9 9 9 9 8 7 7 5 5 4 3 3 2 1 -0 -0 -0 -1
14 13 13 12 12 11 11 10 10 10 10 9 9 9 9 9 9 9 9 8 8 8 8 9 9 8 9 9 8 6 6 4 3 2 1 2 0 -1 -1 -1 -1 -3 -3
15 14 14 13 12 12 11 11 10 10 10 9 9 9 9 9 9 9 9 8 8 8 7 8 8 8 8 8 7 5 3 2 1 1 0 -1 -3 -3 -1 -2 -2 -3 -3
16 14 14 14 13 12 12 11 10 10 10 9 9 9 9 9 9 9 8 8 8 8 8 7 7 6 5 4 3 2 1 0 -0 -1 -1 -3 -3 -2 -2 -2 -2 -4 -5
17 16 14 14 13 12 12 11 10 10 9 9 9 8 8 8 8 8 8 8 7 7 6 5 4 2 1 -0 -1 -1 -2 -1 -3 -6 -4 -3 -3 -3 -3 -3 -4 -5 -6
15 15 14 13 13 12 11 11 10 10 10 9 9 8 8 8 8 8 7 6 5 4 3 2 -0 -2 -2 -2 -2 -3 -3 -7 -6 -4 -4 -5 -5 -6 -7 -8 -8 -6 -7
11 12 12 12 11 10 10 9 9 9 9 9 9 8 7 6 6 6 5 3 1 1 0 -1 -2 -3 -4 -4 -6 -8 -7 -5 -5 -6 -6 -7 -8 -8 -8 -8 -8 -8 -8
8 8 9 9 9 9 8 8 8 8 8 7 8 7 5 5 4 2 1 0 -1 -2 -3 -4 -4 -4 -4 -7 -9 -7 -7 -8 -8 -8 -8 -9 -10 -10 -10 -10 -11 -12 -12
6 7 7 7 6 7 6 6 6 5 4 5 5 4 3 1 -0 -1 -1 -1 -2 -3 -3 -3 -4 -4 -6 -7 -8 -8 -8 -9 -9 -10 -10 -11 -11 -12 -12 -12 -12 -12 -13
5 4 3 4 3 3 3 3 0 2 1 0 1 1 -0 -2 -3 -3 -3 -3 -4 -4 -4 -5 -7 -8 -8 -9 -10 -10 -11 -11 -11 -12 -12 -13 -13 -13 -14 -14 -14 -14 -14
4 3 1 -0 0 1 1 0 -0 -3 -3 -4 -3 -3 -4 -6 -5 -6 -6 -6 -6 -7 -7 -8 -9 -9 -10 -10 -11 -11 -12 -12 -12 -14 -14 -14 -15 -15 -15 -15 -15 -15 -15
1 2 1 1 -1 -2 -2 -3 -3 -4 -5 -7 -6 -6 -6 -7 -7 -7 -7 -7 -8 -9 -9 -10 -10 -11 -12 -12 -12 -13 -13 -14 -14 -15 -16 -16 -16 -16 -16 -16 -16 -16 -16
-1 -2 -3 -3 -3 -4 -4 -6 -6 -7 -8 -8 -8 -8 -8 -8 -9 -9 -9 -10 -10 -11 -11 -12 -12 -13 -13 -14 -14 -15 -15 -16 -16 -16 -17 -17 -17 -17 -17 -17 -17 -17 -17
-4 -4 -4 -6 -6 -7 -7 -8 -8 -8 -9 -9 -9 -10 -10 -10 -10 -11 -11 -11 -12 -13 -13 -14 -14 -15 -15 -15 -16 -16 -16 -17 -17 -17 -18 -18 -18 -19 -19 -19 -19 -18 -18
-6 -6 -6 -6 -7 -7 -8 -8 -8 -9 -9 -10 -11 -11 -11 -11 -12 -13 -13 -13 -14 -14 -15 -16 -16 -17 -17 -17 -18 -18 -18 -19 -19 -19 -19 -20 -20 -20 -20 -20 -20 -19 -19
-6 -7 -7 -8 -8 -9 -10 -10 -10 -11 -11 -12 -12 -13 -13 -13 -14 -15 -15 -16 -16 -17 -18 -18 -18 -18 -19 -19 -20 -20 -20 -20 -20 -20 -21 -21 -21 -21 -21 -20 -20 -20 -20
-8 -8 -9 -9 -10 -10 -10 -11 -12 -13 -13 -14 -14 -15 -15 -16 -17 -17 -18 -18 -19 -19 -18 -18 -19 -18 -20 -18 -18 -21 -21 -21 -22 -22 -22 -23 -22 -22 -22 -21 -21 -21 -20
-10 -10 -10 -11 -12 -13 -13 -14 -15 -15 -16 -16 -16 -17 -18 -18 -18 -19 -19 -18 -19 -19 -19 -17 -18 -17 -17 -18 -18 -19 -21 -21 -20 -20 -21 -23 -23 -23 -23 -22 -22 -22 -21
-12 -14 -15 -16 -16 -16 -16 -17 -17 -17 -17 -17 -18 -18 -18 -19 -19 -20 -20 -19 -17 -17 -17 -18 -18 -18 -18 -18 -18 -19 -19 -19 -20 -20 -20 -20 -22 -24 -23 -23 -22 -22 -21
-16 -17 -17 -17 -17 -18 -18 -18 -18 -19 -19 -19 -19 -20 -20 -20 -20 -20 -18 -18 -18 -18 -18 -19 -19 -19 -19 -19 -20 -19 -20 -20 -20 -20 -20 -21 -21 -24 -23 -22 -22 -22 -22

GFSGL_850_temp_084.txt.gz
Temp
11 9 9 9 9 10 10 10 9 9 10 9 10 10 9 10 10 10 10 10 10 10 10 10 10 10 10 10 10 10 10 9 9 9 9 9 8 8 7 8 7 6 6
12 11 10 9 9 9 10 9 10 9 9 10 10 10 10 10 10 10 10 10 10 9 9 9 9 10 10 10 10 9 9 9 9 8 8 8 8 8 7 7 7 6 5
13 12 11 11 10 9 9 9 10 9 9 9 9 9 9 9 10 10 10 9 9 10 9 9 9 9 10 10 10 9 9 8 8 7 7 7 7 7 6 5 5 5 4
13 13 12 11 11 10 10 10 10 10 10 9 9 9 9 9 9 9 9 9 9 9 9 9 9 9 9 9 9 9 9 8 8 7 6 7 7 7 6 6 5 5 4
14 13 13 12 11 11 10 10 10 10 10 10 10 10 10 9 9 9 9 9 10 10 9 9 9 9 9 9 9 10 10 9 8 7 7 7 6 6 6 6 5 5 4
14 14 13 13 12 11 11 10 10 10 10 10 9 9 9 9 9 9 10 9 9 9 9 9 9 9 9 9 9 9 8 8 8 7 7 7 7 6 6 5 4 2 1
15 14 13 13 12 12 11 10 11 10 10 10 10 10 10 10 10 10 10 9 9 9 9 9 9 9 9 9 9 8 8 8 7 7 7 7 6 5 4 3 2 1 -1
16 15 14 13 13 12 11 11 10 10 10 10 10 10 9 9 9 9 9 9 9 9 9 9 9 9 9 8 8 7 7 7 7 6 5 4 3 2 1 1 0 -1 -2
17 16 15 13 13 12 12 11 11 10 10 10 10 9 9 9 9 9 9 9 9 9 9 8 8 8 8 8 7 7 6 5 4 3 2 1 1 0 -1 -1 -2 -4 -5
16 16 16 14 14 13 12 12 11 10 10 10 10 9 9 9 9 9 9 9 9 9 9 8 8 8 7 7 6 5 3 2 0 -1 -2 -2 -2 -3 -2 -4 -5 -3 -3
13 15 15 15 15 14 13 13 12 11 11 11 10 10 10 9 9 9 9 9 9 9 8 8 7 7 6 5 3 1 0 -0 -2 -2 -3 -4 -6 -7 -5 -4 -4 -5 -5
10 11 14 14 14 14 14 13 12 12 11 10 10 10 9 9 9 9 9 9 8 7 7 5 4 3 2 0 -1 -2 -2 -3 -3 -4 -7 -7 -8 -7 -7 -7 -7 -6 -6
8 9 10 11 12 13 12 12 12 11 11 10 10 10 9 8 8 8 7 8 8 5 3 2 -0 -2 -3 -3 -4 -4 -3 -4 -5 -7 -7 -7 -8 -8 -8 -9 -9 -9 -9
9 7 7 8 9 9 9 9 9 10 9 9 9 8 6 1 2 4 2 0 1 0 -0 -3 -4 -4 -4 -4 -4 -4 -5 -6 -7 -7 -8 -8 -9 -9 -9 -10 -10 -10 -11
7 7 5 4 4 5 6 6 5 4 4 6 6 2 3 3 -3 -3 -3 -3 -2 -4 -5 -4 -5 -5 -6 -7 -7 -8 -8 -8 -8 -9 -9 -10 -11 -11 -11 -12 -12 -12 -13
3 6 5 3 1 0 -0 -1 -1 -2 -1 -2 -1 -0 -3 -3 -3 -4 -4 -5 -5 -5 -5 -6 -6 -7 -8 -9 -9 -9 -10 -10 -11 -11 -11 -12 -12 -13 -13 -13 -13 -14 -14
1 1 1 2 1 -0 0 -1 -3 -6 -5 -5 -6 -5 -5 -5 -6 -6 -6 -7 -7 -6 -7 -8 -8 -9 -9 -10 -10 -11 -11 -12 -12 -13 -13 -13 -14 -14 -15 -15 -15 -15 -15
-1 -0 -1 -2 -2 -4 -5 -5 -6 -7 -8 -8 -8 -8 -8 -8 -8 -8 -8 -8 -8 -8 -9 -9 -10 -10 -11 -11 -12 -12 -13 -13 -14 -14 -14 -15 -16 -16 -16 -17 -17 -17 -17
-4 -4 -4 -5 -5 -6 -5 -7 -7 -8 -9 -9 -9 -9 -9 -9 -9 -9 -9 -9 -10 -10 -11 -11 -11 -12 -12 -13 -13 -14 -14 -15 -15 -16 -16 -17 -17 -18 -18 -18 -18 -18 -18
-6 -7 -7 -8 -8 -8 -8 -8 -9 -9 -10 -10 -10 -10 -10 -9 -9 -10 -10 -11 -11 -12 -12 -12 -13 -13 -14 -15 -15 -16 -16 -16 -17 -17 -18 -18 -19 -19 -19 -19 -20 -19 -19
-7 -7 -7 -7 -8 -8 -8 -9 -9 -9 -10 -10 -11 -11 -11 -10 -11 -12 -12 -12 -13 -13 -14 -15 -15 -15 -16 -16 -17 -17 -18 -18 -19 -19 -19 -20 -20 -20 -20 -20 -20 -20 -20
-7 -8 -8 -9 -9 -9 -10 -10 -10 -11 -11 -12 -12 -12 -12 -12 -13 -14 -14 -14 -14 -14 -15 -16 -16 -16 -16 -16 -17 -17 -19 -20 -20 -20 -19 -19 -20 -21 -21 -21 -21 -21 -21
-9 -10 -10 -10 -11 -11 -11 -12 -12 -12 -13 -13 -14 -14 -14 -15 -15 -16 -16 -17 -16 -15 -16 -16 -16 -17 -17 -18 -18 -19 -19 -19 -18 -18 -19 -19 -20 -21 -21 -22 -22 -22 -21
-11 -11 -11 -12 -13 -13 -14 -14 -15 -15 -16 -16 -16 -17 -17 -18 -17 -17 -17 -17 -17 -18 -17 -18 -18 -18 -17 -18 -18 -18 -18 -18 -19 -19 -19 -19 -20 -19 -20 -21 -22 -22 -22
-13 -13 -14 -14 -15 -15 -15 -16 -16 -16 -17 -17 -17 -18 -18 -18 -19 -19 -18 -17 -17 -18 -18 -18 -18 -18 -17 -18 -18 -18 -19 -19 -19 -19 -19 -19 -19 -20 -20 -22 -22 -22 -22
-15 -16 -16 -17 -17 -17 -18 -18 -18 -18 -18 -19 -19 -19 -19 -19 -20 -19 -18 -18 -18 -17 -18 -18 -18 -18 -19 -19 -19 -19 -19 -19 -19 -19 -19 -19 -19 -19 -21 -22 -22 -22 -22

GFSGL_850_temp_087.txt.gz
Temp
10 9 9 9 9 9 9 9 10 9 9 10 10 9 9 9 9 9 9 9 10 9 9 9 10 10 10 10 10 10 9 9 8 9 10 10 9 8 8 8 8 8 7
11 11 9 9 9 9 10 10 10 10 10 9 10 9 9 9 9 9 9 10 9 10 10 9 10 10 9 10 10 9 9 10 9 9 10 10 9 8 7 7 7 7 7
12 11 11 9 9 9 9 10 10 10 9 9 9 9 10 10 10 10 9 9 10 10 10 10 10 10 10 9 9 10 10 10 10 9 9 9 9 8 7 7 7 7 7
13 12 11 11 11 10 9 9 9 9 10 9 9 9 10 10 10 10 10 10 10 10 10 10 10 9 9 9 9 10 10 9 10 10 9 9 9 9 7 7 6 7 6
15 13 13 12 12 12 11 10 9 9 9 9 9 10 9 9 10 10 10 10 10 10 10 10 9 9 10 10 9 9 9 9 9 9 9 8 8 8 8 7 7 6 6
15 15 14 13 12 12 12 11 10 10 9 9 9 9 10 10 10 10 10 10 9 9 9 10 10 10 10 10 10 9 9 9 9 9 8 7 8 7 7 7 6 6 4
16 15 15 14 14 12 11 11 11 10 10 10 10 9 9 10 10 10 9 9 9 9 9 10 9 10 10 10 9 9 9 9 9 8 8 8 7 6 6 6 5 5 3
13 15 16 14 14 13 12 12 11 10 10 10 10 10 10 10 10 10 9 9 9 9 9 9 9 9 9 9 9 9 9 9 8 8 8 7 6 5 4 3 3 2 1
12 12 12 12 13 13 13 13 12 11 11 10 10 10 10 10 10 9 9 9 9 9 9 9 9 9 9 9 9 9 9 8 8 8 7 6 3 3 2 1 -0 -1 -2
12 12 11 12 12 12 13 13 13 12 11 11 11 10 10 10 9 9 9 9 9 9 9 9 9 9 8 8 8 8 8 7 6 3 1 0 0 -1 -1 -1 -3 -3 -4
9 10 11 12 13 12 12 12 13 12 11 11 10 10 10 10 10 10 10 9 9 9 9 9 9 9 8 8 8 7 6 3 -0 -1 -2 -2 -3 -3 -3 -3 -4 -7 -7
8 8 9 11 10 10 12 12 12 12 12 11 11 10 10 10 10 10 10 9 9 9 9 8 8 7 7 6 4 3 1 -0 -2 -3 -3 -4 -4 -5 -6 -6 -6 -7 -7
7 8 7 7 7 8 9 9 9 10 10 10 10 10 10 9 9 9 9 9 9 6 2 1 0 -1 -3 -3 -3 -4 -4 -4 -4 -4 -5 -4 -6 -7 -7 -7 -8 -8 -9
6 7 7 7 8 8 6 7 7 6 6 7 7 6 2 1 3 5 5 4 3 3 -1 -3 -5 -5 -4 -5 -5 -5 -5 -6 -6 -7 -8 -8 -8 -8 -8 -9 -9 -9 -9
2 4 5 4 4 4 6 5 2 3 1 -0 1 1 -1 -3 -3 -3 -1 -1 -1 -3 -5 -5 -5 -6 -7 -7 -8 -8 -8 -8 -8 -8 -8 -9 -9 -10 -10 -11 -11 -11 -12
2 2 1 1 1 0 -1 0 1 -2 -1 -2 -2 -1 -4 -5 -5 -6 -6 -6 -6 -6 -6 -6 -7 -8 -7 -8 -8 -9 -9 -9 -10 -9 -10 -10 -11 -11 -12 -12 -12 -13 -14
0 0 -0 -1 -1 -1 -2 -4 -4 -6 -6 -5 -7 -8 -6 -6 -6 -6 -5 -5 -6 -6 -7 -8 -8 -9 -10 -10 -10 -10 -11 -11 -12 -11 -12 -12 -12 -13 -13 -14 -15 -15 -16
-3 -2 -2 -3 -4 -4 -5 -6 -7 -8 -8 -8 -8 -7 -8 -7 -7 -7 -7 -7 -7 -7 -8 -9 -9 -10 -10 -11 -11 -12 -12 -13 -13 -13 -13 -14 -14 -15 -15 -15 -16 -16 -17
-6 -6 -5 -6 -6 -6 -6 -7 -8 -8 -9 -9 -9 -8 -8 -8 -8 -8 -8 -7 -8 -9 -10 -11 -11 -11 -12 -12 -13 -13 -13 -13 -14 -14 -15 -15 -15 -15 -16 -17 -17 -18 -18
-7 -7 -7 -7 -7 -7 -8 -8 -9 -9 -9 -9 -9 -10 -9 -8 -9 -9 -10 -10 -11 -12 -12 -12 -13 -13 -13 -13 -14 -14 -15 -15 -15 -15 -15 -16 -16 -17 -17 -18 -18 -19 -20
-8 -8 -8 -8 -8 -9 -9 -9 -10 -10 -10 -11 -11 -11 -10 -10 -11 -12 -12 -12 -12 -13 -13 -13 -14 -14 -14 -14 -15 -15 -15 -15 -15 -16 -16 -17 -17 -17 -18 -19 -20 -20 -20
-8 -9 -9 -9 -10 -10 -10 -10 -11 -11 -12 -12 -13 -13 -12 -12 -13 -13 -14 -14 -15 -15 -15 -15 -15 -15 -15 -15 -15 -15 -15 -15 -16 -17 -17 -18 -18 -18 -18 -19 -20 -21 -21
-9 -10 -10 -11 -11 -12 -12 -12 -13 -13 -13 -14 -14 -14 -14 -15 -15 -15 -15 -15 -16 -16 -15 -15 -15 -16 -16 -16 -16 -16 -17 -17 -17 -18 -18 -18 -19 -19 -19 -19 -20 -21 -21
-11 -11 -11 -12 -12 -13 -13 -14 -14 -15 -15 -15 -16 -16 -16 -16 -16 -16 -16 -16 -16 -16 -16 -16 -16 -16 -16 -16 -17 -18 -18 -18 -18 -18 -18 -18 -18 -19 -19 -19 -20 -21 -21
-13 -13 -13 -14 -15 -15 -15 -16 -16 -17 -17 -17 -17 -17 -17 -17 -16 -17 -17 -17 -16 -17 -17 -17 -17 -17 -17 -18 -18 -18 -18 -18 -18 -18 -18 -18 -18 -19 -19 -19 -20 -20 -21
-14 -15 -15 -16 -16 -16 -16 -17 -17 -17 -18 -17 -18 -18 -18 -17 -17 -18 -18 -18 -17 -17 -18 -18 -18 -18 -18 -18 -18 -18 -18 -18 -18 -18 -19 -19 -19 -19 -19 -20 -20 -21 -21

GFSGL_850_temp_090.txt.gz
Temp
14 12 9 9 8 8 9 9 10 10 9 9 9 9 9 9 9 9 9 9 9 9 9 9 10 10 9 9 9 9 9 9 9 10 10 10 10 10 10 10 9 9 8
15 14 10 9 9 8 8 9 10 10 10 10 10 9 9 9 9 9 9 9 9 9 9 9 10 9 9 9 9 9 9 9 9 9 10 10 10 10 10 9 9 9 9
14 14 13 9 9 8 8 9 9 10 10 9 9 9 9 9 9 9 9 9 9 9 10 10 10 10 10 10 10 9 9 10 9 9 9 10 9 10 10 9 10 10 9
14 14 14 13 11 9 9 8 9 9 10 10 10 9 9 9 9 10 10 9 10 9 9 10 10 10 10 10 10 10 9 10 9 9 9 9 9 10 9 9 9 9 10
13 14 14 14 13 12 11 9 9 9 9 10 9 9 9 9 9 9 9 9 9 9 9 9 9 10 10 10 10 10 10 9 9 9 7 7 7 8 9 9 9 8 8
12 13 13 13 13 13 12 12 11 10 9 9 8 9 9 9 9 9 9 9 9 9 10 10 10 9 10 10 9 9 9 8 8 8 7 7 8 8 8 9 8 7 7
12 11 11 11 11 11 11 11 12 11 11 10 10 10 9 9 9 9 9 9 8 9 9 10 10 10 10 9 9 9 8 8 8 8 8 8 8 8 9 8 8 7 6
10 10 10 10 10 10 10 11 11 11 11 11 11 11 11 11 10 10 9 9 8 9 9 9 9 9 9 9 9 9 9 8 8 8 8 8 8 8 8 7 6 5 4
10 10 10 10 10 10 10 10 10 10 11 11 10 10 10 11 10 10 10 9 9 9 9 9 9 9 9 9 8 8 8 8 9 9 8 8 8 7 6 6 4 3 1
9 8 9 9 10 11 11 11 10 10 11 10 10 10 10 10 10 10 10 9 9 9 9 9 9 9 10 10 9 9 8 8 8 8 7 6 6 5 4 2 1 1 -0
6 8 9 9 9 8 9 10 10 10 10 10 10 10 10 10 10 10 10 10 10 9 9 9 9 9 9 8 8 8 8 8 4 2 1 0 -1 -2 -2 -1 -2 -2 -3
6 7 8 8 8 8 8 9 9 9 9 9 10 10 10 9 10 10 10 9 9 10 9 9 8 7 7 7 7 6 4 2 -1 -3 -3 -4 -4 -4 -4 -4 -4 -4 -5
4 5 6 6 7 8 8 8 8 8 8 8 7 6 6 5 5 7 9 10 7 6 4 6 5 5 3 0 -1 -3 -3 -3 -4 -4 -5 -6 -6 -6 -7 -7 -7 -7 -7
2 3 4 4 4 5 5 5 6 6 7 5 5 4 2 2 -0 -2 -1 2 3 1 -4 -3 -2 -2 -3 -4 -4 -4 -4 -5 -5 -5 -7 -8 -8 -8 -8 -8 -8 -8 -8
2 1 2 2 2 2 3 3 2 1 1 2 1 -1 -1 0 -1 -1 -3 -3 -3 -3 -3 -4 -5 -6 -6 -6 -7 -6 -7 -7 -7 -8 -8 -8 -9 -9 -9 -9 -10 -10 -11
1 0 -1 -1 -1 -1 -1 -1 -3 -3 -3 -3 -3 -2 -5 -5 -5 -4 -6 -5 -5 -5 -5 -5 -6 -6 -6 -7 -7 -8 -8 -8 -9 -9 -9 -10 -10 -11 -11 -11 -12 -12 -13
-2 -2 -2 -3 -3 -4 -5 -4 -5 -7 -6 -7 -7 -7 -7 -7 -6 -6 -5 -5 -6 -5 -6 -7 -8 -8 -9 -9 -9 -9 -9 -10 -10 -10 -11 -11 -12 -12 -12 -13 -13 -14 -14
-4 -4 -4 -4 -4 -5 -6 -6 -6 -6 -7 -8 -8 -8 -8 -7 -7 -7 -6 -6 -7 -7 -8 -9 -9 -10 -10 -10 -10 -10 -11 -11 -12 -12 -13 -13 -13 -14 -14 -14 -15 -15 -15
-5 -6 -6 -6 -7 -7 -7 -7 -7 -8 -8 -9 -8 -8 -8 -8 -7 -8 -8 -7 -8 -9 -10 -10 -10 -11 -11 -12 -12 -13 -13 -13 -14 -14 -14 -15 -15 -15 -15 -15 -15 -15 -16
-7 -7 -7 -7 -8 -8 -8 -8 -9 -9 -9 -9 -9 -9 -9 -8 -8 -9 -9 -10 -10 -11 -11 -12 -12 -13 -13 -14 -14 -14 -14 -15 -15 -15 -15 -15 -15 -15 -15 -15 -16 -16 -17
-8 -8 -8 -8 -8 -8 -9 -9 -9 -10 -10 -10 -11 -11 -10 -9 -10 -11 -11 -12 -12 -13 -13 -13 -14 -14 -14 -14 -14 -14 -14 -15 -15 -15 -15 -16 -16 -16 -16 -16 -17 -18 -19
-9 -9 -9 -9 -9 -10 -10 -10 -10 -11 -11 -11 -12 -12 -12 -11 -12 -12 -13 -13 -14 -14 -14 -14 -14 -14 -14 -15 -15 -15 -15 -16 -16 -16 -16 -16 -16 -16 -17 -18 -18 -19 -20
-9 -10 -10 -10 -10 -11 -11 -12 -12 -12 -13 -13 -13 -13 -13 -13 -14 -14 -14 -14 -15 -15 -15 -15 -15 -15 -15 -15 -16 -16 -16 -16 -16 -16 -17 -17 -17 -18 -18 -18 -19 -20 -20
-10 -11 -11 -11 -12 -12 -12 -13 -13 -14 -14 -14 -15 -15 -15 -15 -15 -15 -15 -15 -16 -16 -16 -16 -16 -16 -16 -16 -16 -16 -16 -16 -17 -17 -17 -18 -18 -18 -19 -19 -19 -20 -19
-12 -12 -13 -13 -14 -14 -15 -15 -15 -15 -16 -16 -16 -16 -17 -17 -17 -17 -16 -16 -16 -16 -16 -16 -16 -16 -17 -17 -17 -17 -17 -18 -18 -18 -18 -19 -19 -19 -19 -19 -19 -19 -19
-14 -14 -14 -15 -15 -16 -16 -16 -16 -17 -17 -16 -16 -17 -17 -17 -17 -17 -17 -17 -17 -17 -17 -17 -17 -17 -17 -17 -18 -18 -18 -18 -19 -19 -19 -19 -19 -19 -19 -19 -19 -19 -20

GFSGL_850_temp_093.txt.gz
Temp
13 13 12 11 10 10 10 9 9 9 9 9 9 9 9 9 8 8 8 8 8 8 9 10 10 10 10 10 9 10 9 9 9 9 9 10 10 10 10 10 9 9 10
13 13 12 11 10 9 9 10 9 9 9 9 9 9 9 8 8 8 8 8 8 8 9 9 10 10 10 10 9 9 9 9 9 9 9 9 9 10 10 10 10 10 10
12 12 11 11 9 9 8 9 9 9 9 9 9 8 8 8 9 9 9 8 8 8 9 9 10 10 9 9 9 9 10 10 9 9 9 9 9 10 10 10 10 10 10
12 12 12 12 11 10 9 8 9 9 9 9 9 9 9 9 9 9 9 9 9 9 9 9 9 9 9 9 9 9 9 9 9 9 9 9 9 9 9 8 8 9 9
13 12 12 11 10 10 9 9 8 8 9 9 9 9 9 9 9 9 9 9 9 9 9 9 9 9 9 9 9 9 9 9 9 9 8 8 8 7 6 7 7 7 8
11 11 11 11 11 10 10 9 9 9 9 9 9 9 9 9 10 9 9 9 8 9 9 9 9 9 9 9 9 9 9 9 9 9 8 7 7 7 7 7 7 7 7
9 9 9 9 10 10 10 10 9 9 9 9 9 9 9 9 9 9 9 9 9 9 9 9 9 9 10 10 10 10 9 9 9 9 7 7 7 7 7 7 7 7 7
10 10 9 9 9 9 9 10 10 10 10 9 9 9 9 10 10 9 9 8 8 8 9 9 9 9 9 9 9 9 9 9 9 9 8 8 7 7 7 7 7 7 7
9 9 10 9 9 9 9 9 9 9 10 10 10 9 9 9 9 10 10 9 9 9 8 8 8 8 9 9 9 9 9 9 8 8 8 8 8 8 8 7 7 7 6
8 9 9 9 9 9 9 9 9 9 9 9 9 10 9 10 9 9 9 9 9 9 10 9 9 9 8 9 8 8 7 8 8 8 8 7 7 7 7 5 4 3 3
6 7 8 8 8 8 8 8 8 8 9 9 9 9 9 9 9 9 9 9 9 9 8 8 8 9 8 8 8 8 7 7 7 6 3 2 -0 -1 -1 -1 -1 -1 -1
4 5 6 6 7 8 8 7 7 8 8 7 8 8 8 8 8 8 9 9 9 8 7 6 7 8 8 9 6 5 4 5 4 -0 -3 -3 -3 -3 -4 -4 -4 -4 -5
2 3 4 4 5 6 6 6 6 6 6 6 6 5 5 5 5 5 5 5 4 5 5 5 3 -0 -1 2 2 2 2 -1 -4 -4 -4 -4 -4 -6 -6 -5 -6 -6 -6
2 2 3 4 4 4 4 4 4 4 4 3 3 2 1 0 0 -0 1 1 -0 -1 -1 -2 -1 -1 -1 -4 -4 -4 -4 -4 -4 -5 -7 -8 -8 -8 -7 -8 -7 -8 -8
1 -0 -0 1 2 2 2 2 2 2 0 -0 -1 -1 -2 -1 -3 -4 -3 -3 -3 -4 -3 -4 -5 -5 -6 -6 -6 -7 -6 -6 -7 -8 -8 -8 -8 -8 -8 -8 -9 -9 -9
-1 -2 -2 -2 -2 -2 -3 -3 -2 -2 -3 -4 -4 -4 -6 -6 -6 -5 -5 -5 -5 -5 -4 -6 -7 -7 -7 -8 -8 -9 -9 -9 -9 -9 -9 -9 -9 -10 -10 -10 -10 -10 -11
-2 -3 -4 -4 -4 -4 -5 -5 -5 -6 -4 -5 -7 -7 -7 -6 -6 -6 -5 -5 -6 -5 -5 -7 -8 -8 -9 -9 -9 -9 -9 -10 -10 -10 -10 -10 -10 -10 -11 -11 -11 -12 -12
-5 -5 -5 -6 -6 -6 -7 -7 -7 -7 -7 -7 -8 -8 -8 -7 -7 -7 -7 -7 -7 -7 -7 -8 -9 -10 -10 -10 -10 -10 -11 -11 -10 -10 -11 -12 -12 -12 -12 -12 -13 -13 -14
-6 -7 -7 -7 -7 -7 -7 -7 -8 -8 -8 -8 -8 -8 -8 -8 -8 -8 -8 -7 -8 -9 -10 -10 -10 -10 -11 -11 -12 -12 -12 -12 -13 -13 -13 -13 -13 -14 -14 -14 -15 -15 -15
-7 -7 -7 -7 -8 -8 -8 -8 -8 -8 -8 -9 -9 -9 -10 -9 -8 -9 -9 -10 -10 -11 -11 -11 -12 -13 -13 -13 -13 -13 -13 -13 -14 -14 -14 -14 -14 -15 -15 -15 -16 -16 -16
-8 -8 -8 -8 -8 -9 -9 -9 -9 -9 -9 -9 -10 -10 -11 -10 -10 -11 -11 -11 -12 -12 -13 -13 -13 -13 -14 -14 -14 -14 -14 -14 -15 -15 -15 -15 -15 -15 -16 -16 -16 -16 -16
-9 -9 -9 -9 -9 -9 -9 -10 -10 -10 -10 -10 -11 -12 -12 -11 -12 -12 -13 -13 -13 -13 -13 -14 -14 -14 -14 -15 -15 -15 -15 -15 -16 -16 -16 -16 -16 -16 -16 -16 -16 -17 -17
-10 -10 -10 -10 -10 -10 -10 -11 -11 -11 -11 -12 -13 -13 -13 -13 -14 -14 -14 -15 -15 -15 -15 -15 -15 -15 -15 -15 -16 -16 -16 -16 -16 -16 -16 -16 -16 -16 -17 -17 -17 -18 -18
-11 -11 -11 -11 -12 -12 -12 -12 -12 -13 -13 -13 -14 -14 -14 -14 -15 -15 -15 -16 -16 -16 -16 -16 -16 -16 -16 -16 -16 -16 -16 -16 -16 -17 -17 -17 -17 -17 -18 -18 -18 -18 -19
-12 -13 -13 -13 -13 -13 -14 -14 -14 -15 -15 -15 -15 -15 -15 -15 -15 -15 -16 -16 -16 -17 -17 -17 -17 -17 -17 -17 -17 -17 -17 -17 -17 -17 -17 -17 -18 -18 -18 -18 -19 -19 -19
-14 -14 -14 -14 -15 -15 -15 -15 -15 -16 -16 -16 -16 -16 -16 -17 -17 -17 -17 -17 -17 -17 -17 -17 -17 -17 -17 -17 -17 -17 -17 -17 -17 -18 -18 -18 -18 -18 -19 -19 -19 -20 -20

GFSGL_850_temp_096.txt.gz
Temp
15 14 13 11 10 10 9 9 9 9 9 9 8 9 9 9 9 8 8 8 8 8 8 8 8 8 9 10 10 10 10 9 9 10 10 9 9 9 9 9 9 9 9
14 14 13 12 11 10 9 9 9 9 9 9 9 8 9 8 8 8 8 8 8 8 8 8 8 9 9 9 10 10 10 10 9 9 10 9 9 10 10 9 9 10 10
12 13 12 12 11 10 10 9 9 9 9 8 8 8 8 8 8 9 8 8 8 8 8 8 8 9 9 9 10 9 9 9 9 9 9 9 10 10 9 10 10 10 10
12 11 11 11 11 10 10 10 9 9 9 8 8 8 8 8 8 8 8 8 8 8 8 8 8 8 9 9 9 9 9 9 9 9 9 9 9 9 9 9 9 10 10
10 10 11 11 11 10 9 9 9 9 9 9 9 9 8 8 8 8 8 7 8 8 8 8 8 8 9 9 9 9 9 9 9 8 8 8 8 8 9 10 9 9 9
10 10 10 10 10 10 10 10 9 9 9 9 9 9 9 9 9 9 8 8 8 8 8 8 9 9 9 9 9 9 9 9 9 8 7 6 7 8 9 9 8 7 6
9 9 9 8 9 9 9 9 9 10 10 10 10 9 9 10 9 9 9 8 8 8 8 9 9 9 9 9 9 9 9 9 8 8 7 7 6 7 7 7 6 7 7
8 8 8 8 9 9 9 9 9 9 9 9 9 9 9 9 9 9 9 9 8 9 9 9 9 9 9 9 8 8 8 9 9 8 7 6 6 6 6 6 6 6 6
8 8 8 8 8 9 9 9 9 9 8 8 9 9 10 9 9 9 9 9 8 9 9 9 9 8 9 8 8 8 8 8 8 7 7 6 7 7 6 6 6 6 6
7 8 8 8 7 7 7 7 8 8 9 9 9 9 9 9 9 9 9 9 8 8 8 8 8 7 8 8 8 7 6 6 6 6 6 6 5 5 5 6 6 5 4
4 6 7 7 8 8 8 7 7 7 7 8 8 8 8 8 8 8 8 8 8 7 7 6 6 6 6 6 6 6 5 5 5 5 3 2 0 -0 0 -0 -0 0 -0
2 3 5 6 6 6 6 6 6 6 5 6 6 6 5 5 5 5 6 6 6 5 5 5 5 5 6 5 4 4 4 4 3 2 -0 -1 -2 -3 -3 -3 -4 -4 -4
1 1 3 3 4 4 5 5 5 5 5 4 3 3 3 2 2 2 3 3 2 2 2 1 0 0 0 1 2 -0 -1 -1 -3 -3 -4 -5 -6 -7 -6 -6 -7 -7 -6
1 0 -0 2 2 2 3 3 4 4 3 2 1 0 -1 -1 -1 -2 -2 -1 -2 -2 -3 -3 -3 -3 -3 -4 -4 -4 -4 -5 -5 -6 -8 -9 -9 -8 -8 -8 -8 -8 -8
0 0 -1 -0 0 0 0 -0 -1 -1 -1 -1 -2 -3 -3 -3 -5 -5 -4 -4 -4 -4 -4 -5 -5 -5 -5 -6 -6 -6 -7 -7 -7 -8 -8 -8 -9 -8 -8 -8 -8 -9 -9
-2 -2 -2 -2 -2 -2 -2 -4 -5 -7 -6 -6 -6 -5 -6 -6 -6 -6 -5 -6 -6 -6 -4 -5 -6 -7 -7 -7 -7 -8 -8 -8 -8 -9 -9 -9 -9 -10 -11 -10 -10 -10 -10
-4 -4 -4 -4 -4 -5 -5 -4 -5 -6 -5 -6 -7 -7 -6 -6 -6 -6 -6 -6 -6 -6 -6 -7 -8 -8 -9 -9 -9 -9 -9 -9 -9 -9 -10 -10 -10 -11 -11 -11 -12 -12 -12
-5 -5 -6 -6 -6 -6 -6 -6 -7 -7 -7 -7 -8 -7 -7 -7 -7 -7 -7 -7 -7 -7 -8 -9 -9 -10 -10 -10 -10 -10 -10 -11 -11 -11 -11 -11 -12 -12 -12 -12 -13 -13 -14
-7 -7 -7 -7 -7 -7 -7 -7 -7 -7 -7 -8 -8 -8 -8 -8 -8 -8 -8 -7 -8 -9 -9 -10 -10 -11 -11 -11 -11 -11 -11 -11 -12 -12 -12 -12 -13 -13 -13 -13 -14 -14 -14
-8 -9 -8 -8 -8 -9 -9 -8 -9 -8 -8 -8 -8 -9 -10 -9 -8 -8 -8 -9 -9 -10 -11 -11 -12 -12 -13 -13 -13 -13 -13 -13 -13 -13 -13 -13 -13 -14 -14 -14 -15 -15 -15
-9 -9 -9 -9 -9 -9 -9 -9 -9 -9 -9 -9 -9 -10 -10 -9 -9 -10 -11 -11 -11 -12 -12 -13 -13 -13 -14 -14 -14 -14 -14 -14 -14 -14 -14 -15 -15 -15 -15 -16 -16 -16 -16
-10 -9 -10 -9 -10 -10 -10 -10 -10 -10 -11 -11 -11 -12 -12 -12 -12 -12 -12 -12 -13 -13 -14 -14 -14 -14 -14 -15 -15 -15 -15 -15 -15 -15 -16 -16 -16 -16 -16 -16 -17 -17 -17
-11 -11 -11 -11 -11 -11 -11 -11 -12 -12 -12 -13 -13 -13 -14 -14 -14 -14 -14 -15 -15 -15 -15 -15 -15 -15 -15 -15 -15 -16 -16 -16 -16 -16 -16 -16 -16 -17 -17 -17 -17 -17 -17
-12 -12 -12 -12 -12 -12 -13 -13 -13 -13 -14 -14 -14 -14 -15 -15 -15 -15 -15 -16 -16 -16 -16 -16 -16 -16 -16 -16 -16 -16 -16 -16 -16 -16 -17 -17 -17 -17 -17 -17 -17 -17 -18
-13 -13 -13 -13 -14 -14 -14 -14 -15 -15 -15 -15 -15 -16 -16 -16 -16 -16 -16 -17 -17 -17 -17 -17 -17 -17 -17 -17 -17 -17 -17 -17 -17 -17 -17 -17 -18 -18 -18 -18 -18 -18 -18
-14 -14 -14 -15 -15 -15 -15 -15 -16 -16 -16 -16 -16 -16 -17 -17 -17 -17 -17 -17 -17 -17 -17 -17 -17 -17 -18 -18 -18 -17 -18 -18 -18 -17 -18 -18 -18 -18 -18 -18 -18 -18 -19

GFSGL_850_temp_099.txt.gz
Temp
14 14 13 13 12 11 10 9 9 9 8 9 8 9 9 8 8 8 8 8 7 6 7 7 7 7 7 9 9 9 9 8 8 9 9 10 10 10 10 9 9 10 9
13 13 12 12 11 11 10 9 9 9 9 8 8 9 10 10 9 8 8 7 7 6 7 6 7 7 8 9 9 9 9 9 8 9 9 9 10 10 10 9 9 9 9
12 13 12 11 11 11 10 9 9 9 9 9 8 8 8 8 9 8 8 8 8 8 8 7 7 7 8 8 8 8 9 8 8 9 9 9 9 9 10 10 9 9 9
12 12 12 12 11 11 10 9 9 9 9 9 9 9 9 8 8 8 8 8 8 8 7 7 8 8 8 8 8 8 8 8 8 8 9 9 9 9 8 8 8 9 9
10 10 11 11 10 10 10 9 9 9 9 9 9 9 9 8 8 8 8 8 8 8 8 8 8 8 8 8 8 8 8 8 8 8 7 7 7 7 7 7 7 9 9
9 10 10 10 9 9 9 9 9 9 9 9 9 9 9 9 9 9 9 9 9 8 8 8 9 9 9 8 8 8 8 8 8 8 7 7 7 7 7 7 7 6 6
8 9 9 9 8 8 9 9 9 9 9 9 9 9 9 9 9 9 9 8 8 8 8 8 9 9 9 9 9 9 9 8 8 8 7 7 7 7 7 7 6 6 7
8 8 8 8 8 8 8 8 8 8 8 9 9 9 9 8 9 9 9 9 8 8 8 9 8 8 8 8 8 8 8 9 8 8 7 7 6 6 6 6 6 6 6
7 6 7 7 7 8 8 8 8 8 8 8 8 8 8 8 8 9 9 9 8 9 8 8 7 8 8 8 7 6 7 7 6 7 6 6 5 6 6 6 6 6 5
5 5 6 6 6 6 6 7 7 7 8 8 7 8 8 7 8 8 8 8 8 7 7 7 7 7 7 7 7 6 6 5 5 5 5 5 4 4 4 4 5 4 3
2 3 4 5 6 6 5 5 5 5 6 6 6 6 6 6 6 7 8 8 7 7 6 6 5 6 6 5 5 5 5 5 5 4 3 3 2 1 -0 -0 -0 0 -0
2 3 4 5 5 4 4 5 5 4 4 4 4 4 4 4 4 4 5 5 4 4 4 4 3 2 2 3 3 3 3 3 2 1 -1 -2 -3 -3 -4 -4 -4 -5 -5
0 1 2 3 3 4 4 4 4 3 3 3 2 2 2 1 1 2 2 2 2 1 0 -1 -1 -2 -1 -1 -2 -2 -2 -2 -2 -3 -4 -5 -6 -6 -7 -6 -6 -7 -7
-0 0 -0 1 2 2 3 3 3 3 2 2 0 -1 -2 -2 -3 -3 -3 -2 -3 -3 -4 -4 -4 -4 -4 -4 -4 -4 -5 -5 -5 -5 -6 -7 -7 -7 -7 -7 -7 -7 -7
-2 -2 -1 -1 -1 -1 0 0 0 -1 -1 -2 -4 -5 -4 -4 -5 -5 -4 -4 -4 -4 -4 -5 -5 -5 -5 -6 -6 -6 -7 -7 -7 -8 -8 -8 -8 -8 -8 -8 -8 -8 -8
-3 -3 -3 -3 -3 -3 -4 -5 -5 -6 -6 -6 -5 -4 -5 -6 -6 -5 -5 -5 -6 -6 -5 -5 -6 -6 -7 -7 -7 -8 -8 -8 -8 -9 -9 -9 -9 -9 -9 -9 -10 -10 -10
-4 -4 -4 -4 -4 -5 -5 -5 -5 -6 -5 -5 -6 -6 -6 -6 -6 -6 -6 -6 -6 -6 -5 -6 -7 -8 -8 -8 -8 -8 -8 -9 -9 -9 -9 -10 -10 -11 -11 -11 -11 -11 -11
-6 -5 -5 -5 -5 -6 -6 -6 -6 -6 -6 -7 -7 -7 -7 -7 -7 -7 -7 -7 -6 -6 -7 -7 -8 -8 -9 -9 -9 -10 -10 -10 -10 -11 -11 -11 -11 -12 -12 -12 -13 -13 -14
-7 -7 -7 -7 -7 -7 -7 -7 -7 -7 -7 -8 -8 -8 -8 -8 -8 -8 -8 -7 -7 -8 -9 -9 -10 -10 -11 -11 -11 -11 -11 -11 -11 -12 -12 -12 -13 -13 -13 -13 -14 -14 -14
-8 -8 -8 -8 -9 -8 -8 -8 -8 -8 -8 -8 -9 -9 -9 -9 -9 -8 -8 -9 -9 -10 -11 -11 -11 -12 -12 -12 -12 -13 -13 -13 -13 -13 -13 -13 -14 -14 -14 -14 -15 -15 -15
-9 -9 -9 -9 -9 -9 -9 -9 -9 -9 -9 -10 -10 -11 -11 -10 -10 -10 -11 -11 -12 -12 -13 -13 -13 -13 -13 -13 -14 -14 -13 -13 -14 -14 -14 -15 -15 -15 -15 -15 -16 -16 -16
-10 -10 -10 -10 -10 -10 -10 -11 -11 -11 -11 -11 -12 -12 -12 -12 -12 -12 -13 -13 -13 -13 -13 -14 -14 -14 -14 -14 -14 -14 -15 -15 -15 -15 -15 -16 -16 -16 -16 -16 -16 -16 -16
-11 -11 -11 -11 -11 -11 -12 -12 -12 -12 -13 -13 -13 -13 -14 -13 -14 -14 -14 -14 -15 -15 -15 -15 -15 -15 -15 -15 -15 -15 -16 -16 -16 -16 -16 -16 -17 -17 -17 -17 -17 -17 -17
-12 -12 -12 -12 -13 -13 -13 -13 -13 -14 -14 -14 -14 -15 -15 -15 -15 -15 -15 -16 -16 -16 -16 -16 -16 -16 -16 -16 -16 -16 -16 -17 -17 -17 -17 -17 -17 -17 -17 -18 -18 -18 -18
-13 -13 -13 -14 -14 -14 -14 -15 -15 -15 -15 -16 -16 -16 -16 -16 -16 -16 -17 -17 -17 -17 -17 -17 -17 -17 -17 -17 -17 -17 -17 -18 -17 -17 -17 -18 -18 -18 -18 -18 -18 -18 -18
-14 -15 -15 -15 -15 -15 -16 -16 -16 -16 -17 -17 -17 -17 -17 -17 -17 -17 -17 -17 -18 -18 -18 -18 -18 -18 -18 -18 -18 -17 -18 -18 -18 -18 -18 -18 -19 -19 -19 -19 -19 -19 -19

GFSGL_850_temp_102.txt.gz
Temp
10 12 13 13 11 10 9 12 11 11 9 9 8 9 9 9 9 9 9 9 9 8 8 7 7 7 7 8 7 7 8 9 9 9 9 9 9 10 10 10 10 10 10
10 11 11 11 10 10 9 10 11 10 9 9 8 8 9 9 9 9 9 9 8 8 8 7 7 7 7 6 7 7 7 8 8 8 9 9 9 9 8 8 10 10 10
10 11 11 11 10 9 9 8 10 10 10 9 9 9 10 10 10 10 9 9 9 8 7 7 6 7 7 7 7 8 8 7 8 8 9 9 8 9 9 8 8 8 9
9 10 10 11 9 9 8 8 9 9 9 9 9 9 10 10 10 10 10 10 9 9 8 8 8 8 8 8 8 8 8 8 8 8 9 9 8 9 9 9 8 8 8
10 9 9 10 9 9 9 9 9 9 9 8 8 8 8 9 9 9 9 9 9 9 9 9 9 9 8 8 7 8 8 8 8 7 7 7 8 8 8 9 8 8 9
9 8 9 9 9 9 9 9 9 9 8 8 8 8 8 8 8 8 8 8 9 8 8 9 9 8 8 8 8 8 7 7 7 7 7 7 8 8 8 8 8 8 8
8 8 8 8 8 9 9 9 8 8 8 8 8 8 8 7 7 8 8 8 8 8 8 8 8 8 8 7 7 8 8 8 7 7 7 7 7 7 7 7 7 7 7
7 7 8 8 8 9 9 8 8 8 8 8 8 8 7 8 8 8 8 8 7 8 8 8 8 8 8 7 7 7 7 7 7 7 6 6 6 6 6 6 6 6 6
6 6 6 6 8 8 8 8 8 8 8 8 8 8 8 8 8 8 9 8 8 8 7 7 7 7 6 7 6 6 6 6 6 6 6 6 5 5 5 5 5 5 5
6 6 5 5 7 6 6 7 7 7 7 7 7 7 8 8 8 8 8 9 8 8 8 7 8 7 7 7 6 6 5 5 5 4 4 4 4 4 4 4 3 3 2
3 6 5 4 4 5 4 5 6 6 5 5 5 5 5 5 6 6 7 6 6 6 6 5 5 5 5 5 5 5 5 4 4 3 2 2 2 -0 -1 -1 -1 -1 -1
2 3 3 3 4 5 4 2 2 3 3 3 3 3 3 3 3 3 4 4 3 3 3 2 2 1 1 2 2 3 3 1 0 -1 -1 -2 -3 -3 -3 -4 -4 -3 -3
0 0 1 1 1 2 3 3 1 1 1 1 1 1 0 -0 -0 1 1 1 0 -0 -0 -1 -1 -1 -0 -0 -3 -3 -3 -3 -3 -3 -4 -4 -5 -6 -6 -6 -6 -6 -6
-1 -1 -1 0 1 0 1 -0 1 -1 -1 -1 -2 -2 -3 -3 -3 -3 -2 -2 -3 -2 -4 -4 -3 -3 -3 -4 -4 -4 -4 -4 -4 -5 -5 -6 -7 -7 -6 -6 -7 -7 -7
-3 -2 -2 -2 -2 -2 -1 -1 -2 -2 -3 -3 -4 -4 -4 -4 -5 -5 -4 -3 -3 -4 -4 -4 -4 -4 -5 -5 -5 -5 -6 -6 -6 -7 -7 -7 -7 -7 -7 -8 -9 -10 -10
-5 -4 -4 -4 -6 -7 -5 -5 -4 -4 -5 -5 -5 -5 -5 -5 -5 -5 -5 -5 -5 -5 -5 -5 -6 -6 -6 -7 -6 -6 -6 -6 -7 -7 -8 -8 -8 -9 -9 -9 -10 -11 -12
-6 -7 -7 -8 -8 -8 -9 -8 -7 -7 -6 -5 -6 -6 -6 -6 -6 -6 -7 -6 -6 -6 -6 -8 -9 -10 -10 -10 -9 -9 -8 -8 -9 -9 -10 -10 -10 -10 -12 -12 -13 -13 -13
-7 -7 -7 -7 -7 -7 -7 -8 -9 -9 -8 -8 -7 -7 -7 -7 -7 -7 -8 -8 -7 -7 -9 -10 -11 -12 -12 -12 -11 -11 -10 -10 -10 -10 -10 -10 -11 -13 -13 -13 -13 -14 -14
-8 -8 -8 -8 -8 -9 -9 -9 -10 -10 -10 -10 -10 -9 -8 -8 -8 -8 -8 -7 -9 -11 -12 -13 -14 -14 -14 -13 -12 -12 -12 -11 -11 -12 -12 -12 -12 -14 -13 -14 -14 -13 -15
-8 -8 -9 -9 -9 -9 -9 -9 -9 -9 -9 -9 -9 -9 -10 -10 -9 -9 -9 -9 -10 -12 -13 -13 -13 -12 -12 -12 -12 -12 -12 -12 -13 -13 -13 -13 -14 -15 -16 -16 -16 -16 -16
-10 -9 -9 -9 -9 -9 -9 -10 -10 -10 -10 -9 -10 -10 -10 -10 -10 -11 -11 -11 -12 -14 -14 -14 -13 -13 -13 -13 -14 -14 -14 -14 -14 -14 -14 -15 -14 -16 -16 -16 -17 -17 -16
-10 -10 -10 -10 -10 -10 -10 -10 -10 -10 -11 -11 -11 -11 -12 -12 -12 -12 -12 -12 -13 -13 -13 -13 -13 -13 -14 -14 -14 -14 -14 -14 -15 -15 -15 -15 -15 -16 -17 -17 -18 -18 -18
-12 -12 -12 -11 -11 -11 -11 -11 -12 -12 -12 -12 -13 -13 -13 -13 -13 -13 -13 -14 -14 -14 -14 -14 -14 -15 -15 -15 -15 -15 -15 -15 -15 -15 -16 -16 -16 -18 -18 -19 -18 -19 -18
-13 -13 -13 -12 -13 -14 -14 -13 -13 -13 -14 -14 -14 -14 -14 -14 -14 -14 -15 -15 -15 -15 -15 -15 -15 -16 -16 -16 -16 -16 -16 -16 -16 -16 -16 -17 -17 -18 -18 -19 -20 -18 -20
-15 -15 -15 -16 -16 -16 -16 -16 -16 -16 -16 -16 -16 -16 -16 -15 -16 -16 -16 -16 -16 -16 -16 -16 -16 -16 -16 -17 -17 -17 -17 -17 -17 -17 -17 -17 -18 -18 -18 -19 -18 -20 -19
-16 -16 -17 -17 -18 -18 -18 -18 -18 -17 -17 -17 -17 -17 -17 -17 -17 -17 -17 -17 -17 -17 -17 -17 -17 -17 -17 -17 -17 -17 -17 -17 -18 -18 -18 -18 -18 -19 -19 -20 -20 -20 -21

GFSGL_850_temp_105.txt.gz
Temp
12 11 11 12 12 12 11 11 10 10 10 9 10 10 10 9 9 9 9 9 9 9 9 9 9 8 9 9 8 8 8 8 8 8 9 10 9 10 9 10 10 10 10
11 10 11 12 12 11 11 10 10 10 9 9 10 10 9 9 9 9 9 9 9 9 9 9 9 8 8 8 8 8 8 7 7 8 9 9 10 9 9 9 9 9 9
10 10 11 11 11 11 11 10 10 10 10 9 9 9 9 9 9 9 9 9 9 9 8 8 8 8 7 7 7 7 8 7 8 7 8 8 8 9 9 9 9 9 9
10 10 11 10 10 10 11 9 10 9 10 10 9 9 9 9 9 9 8 8 8 8 8 8 7 7 7 7 7 7 7 7 7 7 8 8 8 8 8 8 9 9 9
9 10 10 10 10 10 10 9 9 9 9 9 8 9 9 9 9 9 9 9 8 9 8 8 8 8 8 7 7 7 7 7 8 8 8 8 8 9 8 9 8 9 9
9 9 9 9 9 9 9 9 9 9 9 8 9 8 8 8 9 8 9 9 9 9 9 9 8 8 8 9 9 8 7 8 7 7 7 7 8 7 8 8 7 8 8
8 9 9 9 9 8 8 9 9 8 8 8 8 8 8 8 8 9 8 8 8 8 8 8 8 8 9 9 9 9 8 8 7 7 7 7 8 7 7 8 7 8 7
6 6 7 8 8 8 8 8 8 8 8 9 8 8 8 8 8 8 8 7 8 8 8 8 8 8 8 8 8 8 8 8 8 7 7 7 7 7 7 7 7 7 6
3 1 2 5 6 7 7 7 7 8 8 8 8 8 8 8 8 8 8 8 7 7 8 8 8 8 8 8 8 8 7 7 7 7 6 6 6 6 6 6 6 5 5
2 1 0 2 4 4 5 5 6 7 6 6 7 7 7 7 8 8 8 8 8 8 7 7 7 7 7 7 7 7 6 6 5 5 5 5 5 5 4 4 4 3 2
0 0 -0 1 2 3 2 4 4 3 4 4 3 3 3 4 5 6 6 6 6 5 4 4 4 5 5 5 5 5 5 4 3 3 2 1 0 0 0 -1 -0 -0 0
0 1 2 2 3 3 3 3 1 1 2 2 2 2 1 1 2 3 4 4 4 3 3 2 2 2 2 3 3 3 1 0 0 -1 -2 -2 -2 -2 -3 -3 -3 -2 -2
-0 -1 -1 2 2 2 2 2 2 1 1 1 1 1 1 1 1 1 1 0 0 1 1 -0 -0 0 -0 -0 -2 -3 -3 -3 -3 -3 -3 -4 -4 -4 -4 -4 -4 -5 -5
-4 -3 -2 -1 -0 -0 -0 -1 0 -1 -2 -3 -3 -2 -2 -2 -2 -3 -2 -2 -2 -2 -2 -3 -3 -3 -2 -3 -3 -3 -4 -4 -4 -4 -5 -5 -6 -5 -5 -6 -7 -7 -8
-6 -5 -5 -5 -4 -3 -3 -3 -3 -3 -3 -4 -4 -4 -3 -4 -4 -4 -4 -4 -4 -5 -5 -5 -5 -5 -5 -5 -5 -6 -6 -6 -6 -7 -8 -9 -9 -9 -9 -9 -10 -10 -10
-7 -7 -7 -7 -7 -8 -7 -6 -5 -5 -5 -5 -5 -4 -5 -5 -6 -5 -5 -5 -6 -7 -7 -7 -8 -9 -9 -9 -9 -9 -8 -9 -10 -10 -11 -11 -11 -11 -11 -11 -11 -11 -11
-7 -8 -8 -8 -8 -8 -8 -9 -8 -7 -6 -5 -5 -5 -5 -6 -6 -7 -7 -6 -7 -7 -8 -9 -10 -10 -11 -11 -11 -11 -11 -10 -10 -11 -12 -12 -12 -12 -12 -12 -12 -12 -12
-8 -7 -8 -8 -9 -9 -9 -9 -9 -10 -8 -8 -7 -7 -7 -7 -8 -8 -10 -9 -9 -9 -11 -11 -12 -12 -12 -12 -12 -12 -13 -12 -11 -12 -11 -11 -13 -13 -13 -13 -13 -13 -13
-9 -10 -9 -9 -8 -9 -9 -9 -10 -10 -10 -11 -11 -9 -9 -9 -8 -8 -8 -9 -11 -12 -12 -13 -13 -13 -13 -14 -14 -13 -12 -11 -11 -13 -13 -13 -14 -14 -14 -14 -14 -13 -14
-10 -10 -11 -10 -10 -11 -11 -11 -11 -11 -12 -11 -10 -11 -12 -11 -10 -10 -12 -13 -13 -14 -14 -14 -15 -15 -15 -15 -15 -15 -15 -15 -15 -15 -15 -15 -15 -15 -15 -15 -15 -15 -15
-11 -11 -11 -11 -11 -11 -12 -12 -12 -12 -13 -13 -11 -11 -13 -14 -14 -15 -15 -15 -15 -15 -16 -16 -16 -16 -16 -16 -16 -16 -15 -16 -14 -16 -15 -17 -16 -16 -16 -16 -16 -16 -16
-12 -12 -12 -12 -12 -12 -13 -13 -13 -13 -13 -14 -15 -14 -15 -15 -16 -16 -17 -17 -17 -17 -17 -17 -17 -15 -14 -15 -15 -17 -15 -15 -14 -15 -16 -17 -17 -17 -17 -17 -17 -17 -16
-13 -13 -13 -13 -13 -13 -13 -14 -14 -14 -15 -15 -15 -16 -16 -17 -17 -17 -18 -18 -18 -15 -16 -16 -15 -15 -15 -15 -15 -15 -15 -14 -15 -15 -15 -17 -18 -17 -18 -18 -18 -18 -18
-14 -14 -14 -15 -14 -14 -14 -15 -15 -15 -16 -16 -16 -17 -17 -18 -18 -18 -17 -17 -17 -15 -15 -15 -15 -15 -15 -15 -15 -15 -15 -15 -15 -15 -15 -16 -19 -19 -19 -19 -18 -18 -19
-15 -15 -15 -15 -15 -15 -15 -16 -16 -16 -17 -17 -17 -18 -18 -19 -19 -19 -17 -16 -16 -16 -16 -16 -16 -16 -16 -16 -16 -16 -16 -16 -16 -16 -16 -17 -19 -18 -20 -18 -20 -20 -19
-17 -17 -16 -16 -16 -16 -16 -17 -17 -18 -18 -18 -19 -19 -19 -19 -19 -19 -17 -16 -16 -16 -17 -16 -16 -17 -17 -17 -16 -17 -17 -17 -17 -17 -17 -18 -19 -20 -21 -20 -20 -21 -20

GFSGL_850_temp_108.txt.gz
Temp
17 16 14 14 14 14 13 13 12 12 12 12 9 10 10 9 9 9 9 9 9 9 9 9 9 9 10 9 9 9 9 9 9 9 9 9 9 9 9 9 9 10 10
15 15 14 14 13 13 12 12 12 12 12 10 10 10 9 10 9 10 9 9 9 9 9 9 9 9 9 9 9 9 9 9 8 8 9 9 9 9 9 9 9 9 9
12 13 13 13 12 12 12 11 11 11 9 10 9 9 9 9 9 9 9 9 9 9 9 9 9 9 8 8 8 8 8 8 8 8 8 9 9 9 10 9 9 9 9
11 11 11 11 12 11 11 11 10 9 9 9 9 9 9 9 9 9 9 9 9 9 8 8 9 8 8 8 8 8 7 8 8 8 7 7 8 9 9 8 8 9 9
9 10 10 11 11 11 10 10 9 9 8 8 8 9 9 9 8 8 9 9 9 8 8 8 8 8 7 7 7 7 7 7 7 7 7 7 7 8 8 8 8 8 8
9 9 10 10 10 10 10 10 9 9 8 8 8 8 8 9 8 8 8 8 8 8 8 8 8 8 7 7 7 7 8 7 8 8 8 7 7 8 7 7 7 7 7
6 8 9 9 10 9 9 9 9 8 8 8 8 8 9 8 8 8 8 9 9 8 8 8 8 8 8 8 7 7 7 7 7 7 8 7 8 7 7 7 7 7 7
3 4 5 7 8 8 8 8 8 8 8 8 8 8 8 8 8 8 8 8 8 8 8 8 8 8 8 8 8 8 8 8 7 7 7 7 7 7 7 7 7 7 7
1 1 2 2 3 5 6 7 8 8 8 8 8 8 8 8 8 8 8 7 8 7 8 8 8 8 8 8 8 7 7 7 7 7 7 7 7 7 7 7 7 6 5
0 0 1 1 2 2 2 1 3 5 6 6 6 6 6 8 8 8 8 7 7 7 7 7 7 7 7 7 7 7 6 6 6 6 6 5 5 4 5 4 4 3 2
-0 -0 0 0 1 2 1 -0 -1 2 1 2 3 3 3 4 4 4 5 6 5 5 4 4 4 4 5 6 5 5 6 4 3 3 2 2 1 1 1 1 1 1 1
-1 -0 -0 -0 -0 0 1 0 -1 -1 1 0 2 4 3 2 3 2 3 3 2 2 3 2 2 1 2 3 2 2 1 0 -0 -0 -1 -1 -1 -1 -1 -1 -1 -2 -2
-2 -2 -2 -1 -0 -0 0 -1 0 1 -0 -0 0 -1 -1 0 2 -1 -0 -0 -0 1 0 -1 -0 -1 -1 -1 -2 -3 -3 -2 -2 -2 -2 -2 -3 -3 -3 -4 -4 -5 -5
-4 -3 -3 -3 -2 -1 -1 -1 -1 -2 -2 -0 -1 -2 -3 -3 -3 -2 -2 -3 -2 -3 -4 -5 -4 -4 -3 -3 -4 -4 -4 -4 -4 -5 -5 -6 -6 -5 -6 -6 -6 -7 -7
-6 -6 -6 -5 -4 -4 -3 -3 -3 -4 -5 -5 -5 -4 -5 -5 -6 -6 -5 -5 -6 -7 -7 -6 -5 -4 -5 -5 -5 -6 -7 -7 -8 -9 -9 -10 -9 -8 -8 -8 -8 -9 -8
-7 -7 -7 -7 -7 -7 -6 -6 -6 -5 -5 -5 -5 -5 -6 -7 -7 -7 -8 -8 -8 -7 -6 -7 -9 -9 -9 -9 -7 -7 -7 -7 -8 -8 -8 -8 -8 -9 -9 -9 -10 -10 -10
-8 -8 -8 -8 -8 -8 -8 -8 -8 -8 -6 -6 -7 -8 -8 -9 -9 -9 -8 -8 -8 -7 -7 -9 -10 -10 -10 -10 -9 -9 -9 -9 -9 -9 -9 -10 -10 -10 -10 -10 -11 -11 -12
-9 -9 -9 -9 -9 -9 -9 -9 -9 -9 -9 -9 -9 -8 -8 -8 -8 -9 -9 -8 -8 -8 -9 -10 -10 -11 -10 -10 -10 -10 -10 -10 -10 -10 -10 -10 -11 -11 -11 -11 -11 -11 -12
-9 -10 -10 -10 -10 -10 -10 -10 -10 -10 -10 -11 -11 -10 -10 -9 -9 -9 -9 -8 -10 -11 -11 -12 -12 -13 -13 -12 -13 -12 -12 -12 -12 -11 -11 -11 -12 -13 -12 -13 -13 -14 -13
-11 -10 -10 -10 -10 -10 -10 -10 -11 -11 -10 -10 -10 -11 -12 -10 -9 -10 -10 -11 -12 -13 -13 -13 -13 -13 -13 -13 -13 -14 -13 -13 -13 -13 -12 -13 -13 -14 -15 -15 -14 -15 -14
-11 -11 -11 -11 -11 -11 -11 -11 -12 -12 -11 -11 -11 -12 -12 -12 -12 -12 -12 -13 -14 -14 -14 -14 -14 -13 -14 -14 -14 -13 -13 -12 -13 -14 -14 -14 -16 -15 -16 -16 -16 -16 -16
-12 -12 -12 -12 -12 -12 -12 -12 -12 -13 -13 -13 -14 -14 -15 -14 -14 -14 -14 -15 -14 -14 -15 -14 -13 -14 -14 -14 -14 -14 -13 -13 -14 -14 -14 -16 -16 -16 -16 -17 -17 -17 -17
-13 -13 -13 -13 -13 -13 -13 -13 -13 -14 -14 -15 -15 -15 -15 -16 -16 -16 -16 -15 -14 -15 -14 -14 -14 -14 -14 -14 -14 -14 -14 -14 -14 -14 -15 -15 -17 -17 -17 -18 -18 -18 -17
-14 -14 -14 -14 -14 -14 -14 -14 -15 -15 -15 -16 -16 -17 -17 -18 -17 -17 -17 -17 -16 -16 -15 -15 -15 -15 -15 -15 -15 -15 -15 -15 -15 -15 -15 -16 -16 -17 -17 -18 -18 -18 -19
-15 -15 -15 -15 -15 -15 -15 -15 -16 -16 -16 -17 -17 -17 -18 -18 -18 -18 -17 -17 -16 -16 -16 -16 -16 -16 -16 -16 -16 -16 -16 -16 -16 -16 -17 -17 -17 -18 -19 -19 -19 -19 -19
-17 -16 -16 -16 -16 -16 -16 -16 -17 -17 -17 -18 -18 -18 -19 -19 -19 -19 -18 -17 -17 -17 -18 -17 -17 -17 -17 -16 -17 -17 -17 -17 -17 -17 -17 -18 -17 -18 -18 -19 -19 -19 -20

GFSGL_850_temp_111.txt.gz
Temp
18 17 18 18 16 15 15 15 14 13 13 12 12 11 10 10 10 10 9 9 9 9 9 9 9 9 9 9 9 9 9 10 10 11 10 9 9 9 9 9 10 9 9
13 16 16 16 15 15 14 14 13 13 12 12 11 10 10 10 11 10 9 9 9 9 10 9 9 9 9 9 9 9 9 9 9 9 10 9 9 9 9 9 9 9 9
12 12 14 14 14 14 14 13 12 13 12 11 10 9 10 10 10 10 9 9 8 9 9 9 9 9 9 9 9 9 9 9 9 8 8 9 9 8 8 8 9 9 9
10 11 11 12 14 13 14 12 12 11 11 10 9 9 9 9 9 9 9 9 9 9 9 9 9 8 9 9 9 8 8 8 8 8 8 8 8 8 8 8 8 9 9
9 10 10 10 11 12 12 11 11 10 10 9 9 8 8 8 8 8 9 9 9 9 9 9 8 8 8 8 7 8 8 7 7 8 7 7 7 7 7 8 8 8 8
6 8 9 10 10 11 11 10 11 10 9 9 9 8 8 8 8 8 8 8 8 8 8 8 8 8 7 7 7 8 7 8 8 8 8 8 8 8 8 7 8 8 7
3 4 6 8 9 10 10 10 9 9 9 8 8 9 8 8 8 8 8 8 8 8 8 8 8 8 8 7 7 7 7 7 7 8 7 7 7 8 8 8 8 8 7
1 2 3 4 5 6 8 9 9 9 8 8 8 8 8 8 8 8 8 8 8 8 8 8 8 8 8 8 8 7 7 8 8 8 7 7 7 7 7 7 7 7 7
1 1 1 3 3 3 3 4 6 8 8 8 8 8 8 8 8 8 8 8 8 8 8 8 8 8 8 8 8 8 8 8 7 7 7 7 7 7 7 7 6 6 5
0 -0 1 2 1 1 1 1 1 0 3 0 3 3 6 7 8 8 8 8 8 8 7 7 7 8 8 7 7 7 7 6 6 6 6 6 6 6 6 5 5 4 4
-1 -0 0 1 0 0 0 1 1 0 1 1 1 1 3 4 4 4 6 7 6 6 5 5 5 5 6 6 5 5 5 5 4 4 2 2 2 2 2 2 2 2 2
-3 -1 -1 0 0 -0 0 -0 0 -0 0 0 1 1 1 1 1 2 3 3 3 2 2 1 1 1 2 2 2 2 -0 2 1 1 -1 -1 -1 -1 0 0 1 0 -0
-3 -3 -2 -2 -2 -1 -1 -0 -0 -0 -0 -0 -0 1 -1 -2 -1 -1 -1 -0 0 1 1 -1 -1 -1 -1 -0 0 -1 -2 -1 -1 -2 -2 -2 -2 -2 -2 -2 -2 -2 -2
-6 -5 -4 -4 -3 -3 -2 -2 -2 -2 -2 -3 -2 -2 -2 -3 -3 -3 -3 -2 -2 -2 -3 -4 -3 -3 -3 -3 -4 -4 -4 -4 -3 -3 -3 -4 -5 -4 -4 -4 -4 -4 -4
-7 -7 -7 -6 -6 -5 -4 -5 -5 -5 -5 -4 -5 -5 -5 -6 -6 -5 -5 -5 -4 -4 -3 -4 -5 -5 -5 -6 -6 -6 -6 -5 -5 -7 -6 -6 -6 -6 -6 -6 -6 -7 -6
-7 -7 -8 -8 -7 -7 -7 -6 -7 -7 -7 -7 -7 -6 -7 -7 -7 -7 -6 -7 -7 -7 -6 -6 -6 -6 -6 -7 -7 -8 -8 -8 -8 -8 -8 -8 -7 -7 -7 -8 -8 -8 -7
-8 -8 -8 -8 -8 -8 -8 -8 -8 -8 -8 -7 -7 -8 -8 -8 -8 -8 -7 -7 -8 -7 -6 -8 -8 -8 -8 -9 -9 -9 -9 -8 -9 -9 -9 -9 -9 -9 -9 -9 -9 -9 -10
-9 -9 -9 -9 -9 -9 -9 -9 -9 -9 -9 -9 -10 -9 -10 -9 -9 -9 -8 -8 -8 -8 -8 -8 -9 -9 -9 -10 -10 -10 -9 -10 -9 -10 -9 -9 -9 -9 -10 -10 -11 -11 -11
-10 -10 -10 -10 -10 -10 -10 -10 -10 -10 -10 -10 -10 -10 -10 -10 -9 -9 -9 -8 -9 -10 -10 -10 -11 -11 -11 -11 -11 -11 -11 -10 -10 -11 -11 -11 -11 -11 -11 -12 -12 -12 -12
-11 -11 -11 -11 -11 -11 -11 -11 -10 -10 -10 -11 -11 -11 -11 -11 -10 -10 -11 -11 -11 -12 -12 -12 -12 -12 -13 -13 -13 -13 -12 -12 -12 -12 -12 -13 -13 -13 -13 -13 -13 -13 -13
-12 -12 -12 -12 -11 -12 -12 -12 -12 -12 -12 -12 -12 -12 -12 -11 -11 -12 -12 -12 -12 -12 -13 -13 -14 -13 -13 -13 -12 -13 -13 -13 -13 -13 -13 -13 -14 -14 -14 -15 -15 -14 -14
-12 -12 -12 -13 -13 -13 -13 -13 -13 -13 -13 -13 -14 -14 -14 -13 -13 -13 -13 -14 -14 -14 -14 -14 -13 -13 -13 -13 -13 -13 -13 -13 -13 -13 -14 -14 -14 -15 -15 -15 -16 -16 -16
-14 -14 -14 -13 -13 -13 -13 -14 -14 -14 -15 -15 -15 -15 -16 -15 -15 -15 -15 -15 -15 -14 -14 -14 -14 -14 -14 -14 -14 -14 -14 -14 -14 -14 -15 -15 -15 -16 -17 -16 -16 -17 -17
-14 -14 -14 -14 -14 -15 -15 -15 -15 -15 -15 -16 -16 -17 -17 -17 -17 -17 -16 -16 -15 -15 -15 -15 -15 -15 -15 -15 -15 -15 -15 -15 -15 -15 -16 -16 -16 -16 -16 -17 -17 -18 -19
-16 -15 -15 -15 -15 -15 -16 -16 -16 -16 -16 -17 -17 -18 -18 -18 -18 -17 -17 -17 -16 -16 -16 -15 -16 -15 -16 -15 -15 -16 -16 -16 -16 -16 -16 -16 -16 -16 -17 -17 -18 -18 -19
-17 -17 -17 -17 -17 -16 -17 -17 -17 -17 -18 -18 -18 -18 -18 -19 -18 -18 -18 -17 -17 -16 -16 -17 -16 -16 -16 -16 -16 -17 -17 -17 -17 -17 -17 -17 -18 -18 -18 -18 -18 -18 -19

GFSGL_850_temp_114.txt.gz
Temp
11 16 16 16 15 16 17 17 17 16 15 14 13 13 12 11 10 9 9 9 9 10 9 9 9 9 9 9 9 9 9 9 9 10 10 10 10 9 9 9 8 8 9
10 12 12 15 15 15 16 16 16 15 14 14 13 12 12 10 10 10 10 9 9 9 9 9 9 9 9 9 9 9 9 9 9 9 9 10 9 9 9 8 9 9 9
9 10 11 12 12 13 15 15 15 14 13 13 12 12 11 10 10 10 10 10 10 9 9 9 9 9 9 9 9 9 9 8 9 9 9 9 9 9 8 8 8 8 8
8 9 10 11 12 13 13 14 14 14 12 12 12 11 10 9 9 10 10 9 9 9 9 9 9 9 9 9 9 9 9 9 9 8 8 8 8 8 8 8 8 8 8
6 7 9 10 11 11 12 13 13 13 12 12 11 11 10 9 9 9 9 9 9 9 8 8 9 8 8 8 8 8 8 9 8 8 8 8 8 8 8 8 8 8 7
3 4 5 7 9 10 11 10 11 11 11 11 10 10 9 9 9 9 9 9 9 9 9 9 9 9 8 8 8 8 8 7 7 8 8 7 8 8 8 8 7 7 7
2 2 3 4 5 9 9 10 9 9 9 9 9 9 9 9 8 8 9 8 9 8 8 8 8 8 8 7 7 7 7 7 7 7 7 8 8 8 8 8 7 7 7
0 1 2 2 2 3 3 8 8 9 9 9 8 8 9 8 8 8 9 8 8 8 8 8 8 8 8 7 7 7 8 8 8 7 7 7 8 7 8 8 8 7 7
-1 -0 0 1 1 1 2 3 2 3 5 6 8 8 8 8 8 8 8 8 8 8 8 8 8 8 8 8 8 7 8 7 7 7 7 7 7 7 7 7 7 7 7
-2 -2 -1 -1 0 -0 0 0 1 2 1 1 1 4 4 6 7 8 8 8 8 8 7 7 8 8 8 8 8 8 8 8 8 7 7 7 7 7 7 6 6 5 5
-3 -2 -1 -1 -1 -1 -0 1 1 1 0 1 1 1 2 2 3 3 4 5 5 6 6 7 7 7 7 7 6 7 6 7 5 4 5 4 3 4 4 4 3 3 2
-4 -3 -2 -2 -2 -2 -1 -0 -0 -0 0 -0 1 0 1 1 1 1 1 2 1 2 2 1 4 4 5 4 3 3 3 3 2 1 1 2 1 1 0 2 1 0 1
-6 -5 -4 -4 -3 -3 -2 -2 -1 -1 -1 -0 -0 -0 -0 0 -1 -0 0 0 0 1 0 -1 -1 1 1 2 1 -0 -1 -0 0 -0 -1 -1 -1 -2 -1 -0 -1 -1 -1
-7 -7 -6 -4 -4 -4 -4 -4 -3 -3 -3 -3 -3 -3 -3 -3 -2 -2 -2 -2 -1 -1 -2 -2 -2 -2 -1 -2 -1 -1 -2 -2 -2 -2 -2 -3 -4 -4 -4 -3 -3 -3 -3
-7 -7 -7 -7 -6 -5 -5 -5 -6 -7 -7 -6 -6 -6 -5 -5 -6 -5 -4 -4 -4 -4 -3 -4 -4 -4 -3 -4 -4 -4 -4 -5 -4 -4 -4 -5 -5 -5 -5 -5 -4 -4 -4
-8 -8 -8 -8 -7 -7 -7 -7 -7 -8 -7 -8 -8 -7 -7 -8 -7 -7 -6 -6 -6 -6 -5 -5 -5 -6 -5 -6 -5 -5 -6 -6 -6 -6 -6 -6 -6 -7 -7 -7 -6 -6 -6
-9 -9 -9 -9 -9 -8 -8 -8 -7 -9 -9 -9 -9 -8 -8 -8 -8 -8 -7 -7 -7 -7 -6 -7 -8 -8 -8 -8 -8 -8 -8 -7 -7 -7 -7 -8 -8 -8 -9 -9 -9 -8 -8
-10 -10 -10 -10 -9 -9 -9 -9 -9 -9 -8 -8 -9 -9 -9 -8 -8 -8 -8 -8 -8 -8 -8 -8 -8 -8 -8 -9 -9 -9 -9 -10 -10 -10 -9 -9 -10 -10 -10 -10 -10 -10 -10
-11 -10 -11 -10 -10 -10 -10 -10 -10 -10 -10 -10 -10 -10 -10 -9 -9 -9 -9 -9 -8 -9 -9 -9 -10 -10 -10 -11 -11 -11 -11 -11 -11 -11 -11 -10 -10 -10 -10 -11 -11 -12 -12
-11 -11 -11 -11 -11 -11 -11 -11 -11 -11 -11 -11 -11 -11 -11 -11 -11 -10 -10 -10 -11 -11 -11 -11 -12 -12 -12 -12 -12 -12 -12 -12 -12 -12 -11 -12 -12 -12 -12 -12 -12 -12 -12
-12 -12 -12 -12 -12 -12 -12 -12 -12 -12 -12 -12 -12 -12 -12 -12 -12 -12 -13 -13 -13 -13 -13 -13 -13 -13 -13 -13 -13 -13 -13 -13 -13 -13 -13 -13 -13 -13 -13 -13 -13 -14 -14
-13 -13 -13 -13 -13 -13 -13 -13 -14 -14 -14 -14 -14 -14 -15 -14 -14 -14 -14 -15 -15 -15 -14 -15 -15 -14 -14 -14 -14 -14 -14 -14 -14 -14 -14 -14 -14 -14 -15 -15 -14 -14 -15
-14 -14 -14 -14 -14 -14 -14 -14 -14 -15 -15 -15 -16 -16 -16 -16 -16 -16 -16 -16 -16 -16 -15 -15 -15 -15 -15 -14 -14 -14 -14 -14 -14 -15 -15 -15 -15 -15 -15 -16 -16 -16 -16
-15 -15 -15 -15 -15 -15 -15 -15 -16 -16 -16 -16 -17 -17 -17 -17 -17 -17 -17 -17 -17 -16 -16 -15 -15 -16 -15 -15 -15 -15 -15 -15 -15 -15 -15 -16 -16 -16 -16 -16 -17 -17 -17
-16 -16 -16 -16 -16 -16 -16 -16 -16 -17 -17 -17 -18 -18 -18 -18 -18 -18 -18 -17 -17 -17 -16 -16 -17 -16 -16 -17 -16 -16 -16 -16 -16 -16 -16 -16 -17 -17 -17 -17 -18 -18 -18
-17 -17 -18 -17 -17 -17 -18 -18 -18 -18 -18 -18 -18 -19 -19 -19 -19 -19 -19 -18 -18 -18 -18 -17 -17 -17 -17 -17 -17 -17 -17 -17 -17 -17 -17 -17 -17 -17 -17 -17 -18 -18 -18

GFSGL_850_temp_117.txt.gz
Temp
9 10 12 15 16 17 16 16 16 16 16 16 15 15 14 12 11 11 10 10 9 9 9 9 9 9 9 9 9 9 9 9 9 9 9 9 10 10 10 10 10 9 9
7 9 10 11 12 12 14 15 15 15 15 15 15 15 14 12 11 11 10 10 10 9 9 9 9 9 9 9 9 9 9 9 9 9 9 9 10 10 10 10 9 9 9
6 8 9 10 10 11 12 13 14 15 15 14 14 14 13 12 11 11 10 10 10 10 9 10 9 9 9 9 9 9 9 9 9 9 9 9 9 9 9 9 9 9 8
4 6 8 9 10 10 11 11 12 13 14 14 14 14 11 11 11 11 10 10 10 10 10 9 9 9 9 9 9 9 9 9 9 8 8 9 9 9 8 8 8 9 8
3 4 5 6 8 9 11 11 11 11 13 13 13 13 11 11 11 10 10 10 10 9 9 9 9 9 9 9 9 9 9 9 8 8 8 8 8 8 8 8 8 8 8
2 2 3 4 6 7 9 10 10 10 10 11 12 11 10 11 10 9 9 10 10 9 9 9 9 9 9 9 8 8 8 8 8 8 8 8 8 8 8 8 8 8 7
0 1 2 2 3 4 5 7 8 8 9 10 10 10 10 9 9 9 9 9 9 9 9 9 9 8 8 8 8 8 8 8 8 8 8 8 8 8 8 7 7 7 7
0 0 -0 0 1 1 3 3 4 4 3 7 9 9 9 9 9 9 9 8 9 9 9 9 8 9 8 8 8 8 7 7 7 7 7 7 7 7 7 7 7 7 7
-1 -1 -1 -0 -1 -0 0 1 1 2 3 2 2 7 6 8 8 8 8 8 8 8 8 8 8 8 8 8 8 8 7 7 7 8 8 8 8 8 7 7 7 7 6
-3 -2 -1 -1 -1 -1 -1 -1 -0 0 1 2 2 3 2 3 6 8 8 8 8 7 8 8 8 8 8 8 8 7 7 7 7 7 7 7 7 7 7 7 7 7 7
-4 -3 -1 -1 -1 -1 -1 -1 -1 -0 -0 -0 1 2 2 2 2 2 3 4 5 5 5 6 7 7 7 7 7 7 7 7 7 6 6 6 6 6 6 6 5 4 4
-5 -3 -3 -3 -2 -2 -1 -1 -1 -1 -1 -1 -1 -0 0 1 1 1 0 1 1 2 2 1 2 1 3 4 4 5 5 4 3 3 2 2 2 1 2 2 2 2 1
-5 -5 -5 -4 -3 -3 -2 -1 -1 -2 -2 -2 -2 -3 -3 -2 -2 -2 -1 -0 -1 -0 0 1 0 -0 1 1 1 0 2 1 1 1 1 0 -0 -0 -1 -0 -1 -1 -1
-7 -6 -7 -6 -5 -5 -4 -4 -4 -4 -4 -4 -4 -5 -5 -5 -5 -4 -3 -3 -2 -2 -2 -2 -1 -1 -1 -1 -2 -2 -2 -2 -2 -1 -2 -2 -2 -2 -3 -4 -4 -3 -2
-7 -8 -7 -7 -7 -7 -7 -6 -7 -8 -8 -7 -7 -6 -6 -6 -7 -6 -5 -5 -4 -4 -4 -4 -3 -3 -3 -3 -3 -3 -3 -3 -3 -3 -4 -4 -4 -5 -5 -4 -4 -4 -4
-8 -8 -8 -8 -8 -8 -8 -8 -8 -9 -8 -8 -8 -8 -8 -8 -7 -7 -7 -7 -6 -6 -5 -5 -5 -5 -5 -5 -5 -6 -6 -6 -7 -7 -7 -6 -6 -5 -5 -5 -5 -5 -6
-9 -9 -9 -9 -9 -9 -9 -9 -9 -9 -9 -8 -9 -8 -8 -8 -8 -8 -8 -8 -7 -7 -6 -7 -7 -7 -7 -7 -7 -7 -7 -7 -8 -8 -8 -8 -8 -7 -7 -7 -7 -7 -7
-10 -10 -10 -10 -10 -10 -10 -10 -10 -10 -10 -9 -9 -10 -9 -9 -8 -8 -9 -9 -8 -8 -8 -8 -9 -9 -9 -9 -9 -9 -9 -9 -9 -9 -9 -9 -9 -9 -9 -9 -9 -9 -9
-10 -11 -11 -11 -11 -11 -11 -11 -10 -11 -11 -11 -11 -11 -11 -11 -11 -10 -10 -9 -10 -10 -10 -10 -11 -11 -11 -11 -11 -11 -11 -11 -10 -10 -10 -10 -10 -10 -10 -11 -11 -11 -11
-11 -12 -12 -12 -12 -12 -12 -12 -11 -12 -12 -12 -12 -12 -12 -12 -11 -11 -11 -12 -12 -12 -12 -12 -12 -12 -12 -12 -12 -12 -12 -12 -12 -12 -12 -12 -12 -12 -12 -12 -12 -12 -12
-13 -13 -13 -13 -13 -13 -13 -13 -13 -13 -13 -13 -13 -13 -13 -13 -13 -13 -13 -13 -13 -13 -13 -14 -14 -13 -14 -14 -14 -14 -13 -13 -13 -13 -13 -13 -13 -13 -13 -13 -13 -13 -13
-14 -14 -14 -14 -14 -14 -14 -14 -15 -15 -15 -15 -15 -15 -16 -15 -15 -15 -15 -15 -15 -15 -15 -14 -15 -15 -14 -14 -14 -14 -14 -14 -14 -14 -14 -14 -14 -14 -14 -14 -14 -14 -14
-14 -15 -15 -15 -15 -15 -15 -15 -15 -16 -16 -16 -16 -16 -17 -17 -17 -17 -16 -16 -16 -16 -16 -16 -16 -15 -15 -15 -15 -15 -15 -15 -15 -15 -15 -15 -16 -16 -15 -15 -15 -16 -16
-15 -15 -16 -16 -16 -16 -16 -16 -16 -16 -17 -17 -17 -18 -18 -18 -18 -18 -18 -17 -17 -17 -16 -16 -16 -16 -16 -16 -16 -16 -16 -15 -15 -15 -15 -16 -16 -16 -16 -16 -16 -16 -16
-16 -17 -17 -17 -17 -17 -17 -17 -17 -17 -18 -18 -18 -18 -19 -19 -19 -19 -19 -18 -18 -18 -18 -17 -17 -17 -17 -16 -16 -16 -16 -16 -16 -16 -16 -16 -16 -16 -16 -17 -17 -17 -17
-17 -18 -18 -18 -19 -19 -19 -19 -19 -19 -19 -19 -19 -19 -19 -20 -20 -20 -20 -19 -19 -19 -19 -18 -18 -18 -18 -17 -17 -17 -17 -17 -17 -17 -17 -17 -17 -17 -17 -17 -18 -18 -18

GFSGL_850_temp_120.txt.gz
Temp
8 9 9 10 11 13 14 15 14 15 16 16 16 16 16 15 14 13 12 11 11 10 9 10 9 9 9 9 9 9 9 9 9 9 10 9 9 9 8 10 10 10 9
7 8 9 9 10 10 11 11 12 12 13 14 15 14 15 15 15 13 12 11 11 10 10 10 9 9 9 9 8 9 9 9 9 9 9 9 9 9 9 9 10 10 10
5 6 7 9 9 10 10 10 11 12 12 13 14 14 14 14 14 13 11 11 10 10 10 10 10 9 9 9 9 9 9 9 9 9 9 8 8 9 9 9 9 9 9
3 4 6 6 7 9 9 10 10 11 11 11 12 14 14 14 14 13 11 10 10 10 10 10 10 10 10 10 9 9 9 9 9 8 8 8 8 9 9 9 9 9 8
1 2 2 3 5 6 7 9 9 10 10 11 11 11 11 13 13 12 11 11 10 10 10 10 10 10 9 9 9 9 8 9 9 9 9 8 9 9 9 10 9 9 8
1 0 1 1 2 4 5 6 7 8 9 10 10 10 10 10 11 11 10 10 10 10 10 10 10 9 9 9 9 9 9 8 8 8 8 8 8 8 9 8 9 8 8
-0 -0 0 0 0 1 2 4 5 5 6 7 9 9 9 9 10 10 10 9 10 10 10 10 9 9 9 9 8 8 8 8 8 8 8 8 8 8 8 8 8 8 8
-0 -1 -0 -0 -0 0 1 1 2 2 3 4 5 3 5 6 9 10 10 9 9 9 9 9 9 9 9 9 8 8 8 8 8 8 8 8 8 8 7 8 7 7 7
-2 -2 -1 -0 -0 -0 0 0 -0 1 1 2 2 3 3 4 6 7 8 9 8 9 8 8 8 8 8 8 8 8 8 8 8 8 7 7 7 7 6 7 7 7 7
-4 -4 -3 -2 -1 -1 -1 -1 -1 -1 -1 0 0 1 1 3 3 3 5 7 6 8 8 8 8 8 8 8 8 8 7 8 8 8 6 6 7 6 7 7 7 7 7
-6 -5 -4 -3 -3 -3 -2 -1 -1 -1 -0 -1 -1 -1 -0 -0 -0 0 1 2 3 1 2 4 5 6 7 7 7 7 7 7 7 6 6 6 6 6 6 7 7 6 6
-6 -5 -5 -5 -4 -3 -3 -2 -3 -2 -1 -2 -2 -2 -2 -2 -2 -1 -1 0 0 0 1 1 2 2 2 2 5 6 5 4 4 4 4 4 4 4 4 4 4 4 4
-6 -6 -5 -5 -5 -5 -4 -4 -3 -3 -4 -4 -4 -4 -4 -4 -4 -4 -3 -2 -2 -2 -2 -1 -1 -0 0 0 0 1 1 1 -0 -0 0 -0 -0 -0 0 1 1 1 1
-7 -7 -7 -6 -6 -6 -6 -6 -6 -6 -6 -6 -6 -6 -6 -6 -5 -5 -5 -5 -4 -4 -4 -3 -2 -2 -2 -2 -2 -2 -2 -2 -2 -2 -2 -3 -3 -3 -3 -2 -2 -2 -1
-8 -8 -8 -8 -8 -8 -8 -8 -8 -9 -9 -8 -9 -8 -8 -8 -8 -7 -6 -5 -5 -5 -4 -4 -4 -4 -4 -4 -4 -4 -4 -4 -4 -4 -4 -4 -4 -7 -6 -6 -5 -4 -4
-9 -9 -9 -9 -9 -9 -9 -9 -9 -9 -9 -9 -9 -9 -9 -9 -8 -8 -7 -7 -6 -6 -5 -5 -5 -6 -6 -7 -6 -6 -6 -6 -6 -6 -7 -7 -7 -7 -7 -7 -7 -7 -6
-10 -10 -9 -9 -9 -10 -10 -10 -9 -10 -10 -10 -10 -10 -9 -9 -8 -9 -9 -9 -8 -8 -6 -7 -8 -8 -8 -8 -8 -8 -8 -8 -8 -8 -8 -8 -8 -8 -9 -10 -9 -8 -7
-10 -10 -10 -11 -11 -11 -10 -11 -11 -11 -11 -11 -11 -11 -10 -10 -10 -10 -10 -10 -8 -8 -9 -9 -9 -10 -10 -10 -9 -9 -10 -10 -9 -10 -10 -10 -10 -10 -10 -9 -9 -9 -9
-11 -11 -11 -11 -12 -12 -12 -12 -12 -12 -12 -12 -12 -11 -11 -12 -12 -11 -11 -10 -10 -11 -11 -11 -11 -11 -11 -11 -11 -11 -11 -11 -11 -11 -10 -10 -10 -10 -10 -10 -10 -10 -10
-12 -12 -12 -12 -12 -12 -13 -13 -13 -13 -14 -13 -13 -13 -13 -12 -11 -12 -12 -12 -12 -12 -12 -12 -13 -13 -12 -12 -12 -12 -12 -12 -12 -12 -12 -12 -12 -12 -11 -11 -11 -11 -11
-13 -13 -13 -13 -13 -13 -14 -14 -15 -15 -15 -15 -15 -15 -15 -15 -14 -14 -14 -14 -14 -14 -14 -14 -14 -14 -13 -13 -13 -13 -13 -13 -13 -13 -13 -13 -13 -12 -12 -12 -12 -12 -12
-14 -14 -14 -15 -15 -15 -15 -15 -15 -16 -16 -16 -16 -17 -17 -16 -16 -16 -16 -15 -15 -15 -15 -15 -15 -15 -15 -14 -14 -14 -14 -14 -14 -14 -14 -14 -14 -14 -14 -14 -14 -14 -14
-14 -15 -15 -16 -16 -16 -16 -16 -16 -16 -17 -17 -17 -18 -18 -18 -18 -17 -17 -17 -17 -17 -16 -16 -16 -16 -15 -15 -15 -15 -15 -15 -15 -15 -15 -15 -15 -15 -15 -15 -15 -15 -15
-15 -16 -17 -17 -17 -17 -17 -17 -17 -17 -18 -18 -18 -18 -19 -19 -19 -19 -19 -18 -18 -18 -17 -17 -17 -16 -16 -16 -16 -16 -16 -16 -16 -16 -16 -16 -16 -16 -16 -16 -16 -16 -16
-17 -17 -17 -18 -18 -18 -19 -19 -19 -19 -19 -19 -19 -19 -19 -20 -20 -20 -20 -19 -19 -19 -19 -18 -18 -18 -17 -17 -17 -17 -17 -17 -16 -16 -17 -17 -17 -17 -17 -17 -17 -17 -18
-18 -18 -19 -19 -19 -19 -20 -20 -20 -20 -20 -20 -20 -20 -20 -20 -21 -21 -20 -20 -20 -20 -20 -19 -19 -19 -18 -18 -18 -18 -18 -17 -17 -17 -17 -17 -18 -18 -18 -18 -18 -18 -18